<?xml version="1.0" encoding="UTF-8" standalone="no" ?>
<gpx xmlns="http://www.topografix.com/GPX/1/1" xmlns:xsi="http://www.w3.org/2001/XMLSchema-instance" xsi:schemaLocation="http://www.topografix.com/GPX/1/1 http://www.topografix.com/GPX/1/1/gpx.xsd" version="1.1" creator="VisuGPX - https://www.visugpx.com">
  <metadata>
    <name>Jour 6</name>
  </metadata>
  <trk>
    <name><![CDATA[J6]]></name>
    <extensions>
      <line xmlns="http://www.topografix.com/GPX/gpx_style/0/2">
        <color>0000FF</color>
        <width>4</width>
      </line>
    </extensions>
    <trkseg>
      <trkpt lat="42.28325" lon="-1.27263">
        <ele>442.68</ele>
        <time>2021-08-04T08:40:30Z</time>
      </trkpt>
      <trkpt lat="42.28325" lon="-1.27263">
        <ele>442.9</ele>
        <time>2021-08-04T08:40:31Z</time>
      </trkpt>
      <trkpt lat="42.28323" lon="-1.27269">
        <ele>442.95</ele>
        <time>2021-08-04T08:40:34Z</time>
      </trkpt>
      <trkpt lat="42.28318" lon="-1.27347">
        <ele>443.82</ele>
        <time>2021-08-04T08:40:41Z</time>
      </trkpt>
      <trkpt lat="42.28313" lon="-1.27483">
        <ele>444.29</ele>
        <time>2021-08-04T08:40:50Z</time>
      </trkpt>
      <trkpt lat="42.28282" lon="-1.27602">
        <ele>443.25</ele>
        <time>2021-08-04T08:40:59Z</time>
      </trkpt>
      <trkpt lat="42.28247" lon="-1.27743">
        <ele>442.44</ele>
        <time>2021-08-04T08:41:09Z</time>
      </trkpt>
      <trkpt lat="42.28245" lon="-1.27834">
        <ele>441.81</ele>
        <time>2021-08-04T08:41:15Z</time>
      </trkpt>
      <trkpt lat="42.28279" lon="-1.28005">
        <ele>441.83</ele>
        <time>2021-08-04T08:41:24Z</time>
      </trkpt>
      <trkpt lat="42.28335" lon="-1.28275">
        <ele>442.33</ele>
        <time>2021-08-04T08:41:36Z</time>
      </trkpt>
      <trkpt lat="42.28404" lon="-1.2857">
        <ele>441.96</ele>
        <time>2021-08-04T08:41:49Z</time>
      </trkpt>
      <trkpt lat="42.28478" lon="-1.28755">
        <ele>445.07</ele>
        <time>2021-08-04T08:41:57Z</time>
      </trkpt>
      <trkpt lat="42.28529" lon="-1.28921">
        <ele>448.43</ele>
        <time>2021-08-04T08:42:04Z</time>
      </trkpt>
      <trkpt lat="42.28545" lon="-1.29128">
        <ele>448.66</ele>
        <time>2021-08-04T08:42:12Z</time>
      </trkpt>
      <trkpt lat="42.28521" lon="-1.29298">
        <ele>445.25</ele>
        <time>2021-08-04T08:42:18Z</time>
      </trkpt>
      <trkpt lat="42.28493" lon="-1.29409">
        <ele>441.68</ele>
        <time>2021-08-04T08:42:22Z</time>
      </trkpt>
      <trkpt lat="42.28489" lon="-1.29438">
        <ele>440.64</ele>
        <time>2021-08-04T08:42:23Z</time>
      </trkpt>
      <trkpt lat="42.28488" lon="-1.29562">
        <ele>436.67</ele>
        <time>2021-08-04T08:42:27Z</time>
      </trkpt>
      <trkpt lat="42.28506" lon="-1.29722">
        <ele>432.41</ele>
        <time>2021-08-04T08:42:32Z</time>
      </trkpt>
      <trkpt lat="42.28531" lon="-1.29842">
        <ele>429.18</ele>
        <time>2021-08-04T08:42:36Z</time>
      </trkpt>
      <trkpt lat="42.28627" lon="-1.29997">
        <ele>425.08</ele>
        <time>2021-08-04T08:42:43Z</time>
      </trkpt>
      <trkpt lat="42.28685" lon="-1.30155">
        <ele>422.05</ele>
        <time>2021-08-04T08:42:49Z</time>
      </trkpt>
      <trkpt lat="42.28769" lon="-1.30524">
        <ele>421.2</ele>
        <time>2021-08-04T08:43:01Z</time>
      </trkpt>
      <trkpt lat="42.28831" lon="-1.30825">
        <ele>421.26</ele>
        <time>2021-08-04T08:43:11Z</time>
      </trkpt>
      <trkpt lat="42.2885" lon="-1.31115">
        <ele>419.61</ele>
        <time>2021-08-04T08:43:20Z</time>
      </trkpt>
      <trkpt lat="42.28869" lon="-1.31357">
        <ele>416.32</ele>
        <time>2021-08-04T08:43:27Z</time>
      </trkpt>
      <trkpt lat="42.28902" lon="-1.31631">
        <ele>413.28</ele>
        <time>2021-08-04T08:43:35Z</time>
      </trkpt>
      <trkpt lat="42.28942" lon="-1.31981">
        <ele>410.82</ele>
        <time>2021-08-04T08:43:46Z</time>
      </trkpt>
      <trkpt lat="42.28987" lon="-1.32306">
        <ele>411.69</ele>
        <time>2021-08-04T08:43:56Z</time>
      </trkpt>
      <trkpt lat="42.29039" lon="-1.32496">
        <ele>411.81</ele>
        <time>2021-08-04T08:44:03Z</time>
      </trkpt>
      <trkpt lat="42.2912" lon="-1.32671">
        <ele>413.06</ele>
        <time>2021-08-04T08:44:10Z</time>
      </trkpt>
      <trkpt lat="42.29257" lon="-1.32867">
        <ele>416.14</ele>
        <time>2021-08-04T08:44:19Z</time>
      </trkpt>
      <trkpt lat="42.29363" lon="-1.3302">
        <ele>419.15</ele>
        <time>2021-08-04T08:44:26Z</time>
      </trkpt>
      <trkpt lat="42.29532" lon="-1.33284">
        <ele>421.84</ele>
        <time>2021-08-04T08:44:38Z</time>
      </trkpt>
      <trkpt lat="42.29636" lon="-1.33545">
        <ele>418.9</ele>
        <time>2021-08-04T08:44:48Z</time>
      </trkpt>
      <trkpt lat="42.29664" lon="-1.33655">
        <ele>415.56</ele>
        <time>2021-08-04T08:44:52Z</time>
      </trkpt>
      <trkpt lat="42.29685" lon="-1.33774">
        <ele>411.75</ele>
        <time>2021-08-04T08:44:56Z</time>
      </trkpt>
      <trkpt lat="42.29697" lon="-1.33896">
        <ele>407.74</ele>
        <time>2021-08-04T08:45:00Z</time>
      </trkpt>
      <trkpt lat="42.29702" lon="-1.33987">
        <ele>404.66</ele>
        <time>2021-08-04T08:45:03Z</time>
      </trkpt>
      <trkpt lat="42.29713" lon="-1.34079">
        <ele>401.54</ele>
        <time>2021-08-04T08:45:06Z</time>
      </trkpt>
      <trkpt lat="42.29745" lon="-1.342">
        <ele>397.84</ele>
        <time>2021-08-04T08:45:10Z</time>
      </trkpt>
      <trkpt lat="42.2981" lon="-1.34372">
        <ele>394.78</ele>
        <time>2021-08-04T08:45:16Z</time>
      </trkpt>
      <trkpt lat="42.29867" lon="-1.34513">
        <ele>393.72</ele>
        <time>2021-08-04T08:45:21Z</time>
      </trkpt>
      <trkpt lat="42.29954" lon="-1.34628">
        <ele>393.43</ele>
        <time>2021-08-04T08:45:26Z</time>
      </trkpt>
      <trkpt lat="42.30225" lon="-1.349">
        <ele>394.72</ele>
        <time>2021-08-04T08:45:40Z</time>
      </trkpt>
      <trkpt lat="42.30411" lon="-1.35211">
        <ele>395.3</ele>
        <time>2021-08-04T08:45:52Z</time>
      </trkpt>
      <trkpt lat="42.30566" lon="-1.35499">
        <ele>394.94</ele>
        <time>2021-08-04T08:46:03Z</time>
      </trkpt>
      <trkpt lat="42.30672" lon="-1.35632">
        <ele>396.66</ele>
        <time>2021-08-04T08:46:10Z</time>
      </trkpt>
      <trkpt lat="42.30832" lon="-1.35738">
        <ele>395.62</ele>
        <time>2021-08-04T08:46:19Z</time>
      </trkpt>
      <trkpt lat="42.30975" lon="-1.35868">
        <ele>393.02</ele>
        <time>2021-08-04T08:46:27Z</time>
      </trkpt>
      <trkpt lat="42.31213" lon="-1.36118">
        <ele>390.57</ele>
        <time>2021-08-04T08:46:41Z</time>
      </trkpt>
      <trkpt lat="42.31387" lon="-1.36289">
        <ele>389.61</ele>
        <time>2021-08-04T08:46:51Z</time>
      </trkpt>
      <trkpt lat="42.3147" lon="-1.36461">
        <ele>388.91</ele>
        <time>2021-08-04T08:46:58Z</time>
      </trkpt>
      <trkpt lat="42.31538" lon="-1.36649">
        <ele>385.63</ele>
        <time>2021-08-04T08:47:05Z</time>
      </trkpt>
      <trkpt lat="42.31598" lon="-1.36815">
        <ele>382.53</ele>
        <time>2021-08-04T08:47:11Z</time>
      </trkpt>
      <trkpt lat="42.31782" lon="-1.37316">
        <ele>380.67</ele>
        <time>2021-08-04T08:47:29Z</time>
      </trkpt>
      <trkpt lat="42.31885" lon="-1.37507">
        <ele>380.35</ele>
        <time>2021-08-04T08:47:37Z</time>
      </trkpt>
      <trkpt lat="42.32057" lon="-1.37803">
        <ele>382.11</ele>
        <time>2021-08-04T08:47:49Z</time>
      </trkpt>
      <trkpt lat="42.32208" lon="-1.38033">
        <ele>383.26</ele>
        <time>2021-08-04T08:47:59Z</time>
      </trkpt>
      <trkpt lat="42.32443" lon="-1.38352">
        <ele>381.88</ele>
        <time>2021-08-04T08:48:13Z</time>
      </trkpt>
      <trkpt lat="42.32659" lon="-1.38648">
        <ele>379.73</ele>
        <time>2021-08-04T08:48:26Z</time>
      </trkpt>
      <trkpt lat="42.32915" lon="-1.39">
        <ele>378.03</ele>
        <time>2021-08-04T08:48:41Z</time>
      </trkpt>
      <trkpt lat="42.33127" lon="-1.39291">
        <ele>376.82</ele>
        <time>2021-08-04T08:48:54Z</time>
      </trkpt>
      <trkpt lat="42.33333" lon="-1.39572">
        <ele>378.21</ele>
        <time>2021-08-04T08:49:07Z</time>
      </trkpt>
      <trkpt lat="42.33612" lon="-1.39954">
        <ele>375.79</ele>
        <time>2021-08-04T08:49:24Z</time>
      </trkpt>
      <trkpt lat="42.33818" lon="-1.40238">
        <ele>377.78</ele>
        <time>2021-08-04T08:49:37Z</time>
      </trkpt>
      <trkpt lat="42.3393" lon="-1.4042">
        <ele>380.02</ele>
        <time>2021-08-04T08:49:46Z</time>
      </trkpt>
      <trkpt lat="42.34056" lon="-1.40702">
        <ele>378.51</ele>
        <time>2021-08-04T08:49:58Z</time>
      </trkpt>
      <trkpt lat="42.34166" lon="-1.40951">
        <ele>381.7</ele>
        <time>2021-08-04T08:50:09Z</time>
      </trkpt>
    </trkseg>
  </trk>
  <trk>
    <name><![CDATA[Jour 6_2]]></name>
    <trkseg>
      <trkpt lat="42.3418" lon="-1.41025">
        <ele>379.66</ele>
        <time>2021-08-04T08:51:55Z</time>
      </trkpt>
      <trkpt lat="42.3411" lon="-1.41085">
        <ele>383.37</ele>
        <time>2021-08-04T08:52:06Z</time>
      </trkpt>
      <trkpt lat="42.34066" lon="-1.41122">
        <ele>384.59</ele>
        <time>2021-08-04T08:52:12Z</time>
      </trkpt>
      <trkpt lat="42.34015" lon="-1.41132">
        <ele>385.19</ele>
        <time>2021-08-04T08:52:17Z</time>
      </trkpt>
      <trkpt lat="42.33905" lon="-1.41134">
        <ele>385.97</ele>
        <time>2021-08-04T08:52:26Z</time>
      </trkpt>
      <trkpt lat="42.3386" lon="-1.41161">
        <ele>386.22</ele>
        <time>2021-08-04T08:52:30Z</time>
      </trkpt>
      <trkpt lat="42.33768" lon="-1.41269">
        <ele>387.6</ele>
        <time>2021-08-04T08:52:39Z</time>
      </trkpt>
      <trkpt lat="42.33724" lon="-1.41299">
        <ele>387.83</ele>
        <time>2021-08-04T08:52:43Z</time>
      </trkpt>
      <trkpt lat="42.33568" lon="-1.4136">
        <ele>388.98</ele>
        <time>2021-08-04T08:52:56Z</time>
      </trkpt>
      <trkpt lat="42.33493" lon="-1.41393">
        <ele>389.83</ele>
        <time>2021-08-04T08:53:03Z</time>
      </trkpt>
      <trkpt lat="42.33407" lon="-1.41379">
        <ele>390.66</ele>
        <time>2021-08-04T08:53:10Z</time>
      </trkpt>
      <trkpt lat="42.33159" lon="-1.41295">
        <ele>393.65</ele>
        <time>2021-08-04T08:53:29Z</time>
      </trkpt>
      <trkpt lat="42.32994" lon="-1.41243">
        <ele>396.84</ele>
        <time>2021-08-04T08:53:41Z</time>
      </trkpt>
      <trkpt lat="42.32806" lon="-1.41182">
        <ele>399.84</ele>
        <time>2021-08-04T08:53:54Z</time>
      </trkpt>
      <trkpt lat="42.32622" lon="-1.41121">
        <ele>400.35</ele>
        <time>2021-08-04T08:54:08Z</time>
      </trkpt>
      <trkpt lat="42.32519" lon="-1.41114">
        <ele>401.03</ele>
        <time>2021-08-04T08:54:16Z</time>
      </trkpt>
      <trkpt lat="42.32361" lon="-1.41129">
        <ele>403.63</ele>
        <time>2021-08-04T08:54:27Z</time>
      </trkpt>
      <trkpt lat="42.32178" lon="-1.41144">
        <ele>406.73</ele>
        <time>2021-08-04T08:54:41Z</time>
      </trkpt>
      <trkpt lat="42.32167" lon="-1.41145">
        <ele>406.86</ele>
        <time>2021-08-04T08:54:42Z</time>
      </trkpt>
      <trkpt lat="42.32101" lon="-1.41179">
        <ele>407.97</ele>
        <time>2021-08-04T08:54:49Z</time>
      </trkpt>
      <trkpt lat="42.31965" lon="-1.41144">
        <ele>409.52</ele>
        <time>2021-08-04T08:55:00Z</time>
      </trkpt>
      <trkpt lat="42.31844" lon="-1.41162">
        <ele>411.69</ele>
        <time>2021-08-04T08:55:08Z</time>
      </trkpt>
      <trkpt lat="42.31756" lon="-1.4118">
        <ele>412.87</ele>
        <time>2021-08-04T08:55:14Z</time>
      </trkpt>
      <trkpt lat="42.31685" lon="-1.41219">
        <ele>413.5</ele>
        <time>2021-08-04T08:55:19Z</time>
      </trkpt>
      <trkpt lat="42.31543" lon="-1.41349">
        <ele>410.33</ele>
        <time>2021-08-04T08:55:29Z</time>
      </trkpt>
      <trkpt lat="42.31438" lon="-1.41443">
        <ele>407.86</ele>
        <time>2021-08-04T08:55:37Z</time>
      </trkpt>
      <trkpt lat="42.31346" lon="-1.41466">
        <ele>406.17</ele>
        <time>2021-08-04T08:55:43Z</time>
      </trkpt>
      <trkpt lat="42.31258" lon="-1.41479">
        <ele>405.08</ele>
        <time>2021-08-04T08:55:49Z</time>
      </trkpt>
      <trkpt lat="42.31121" lon="-1.415">
        <ele>405.23</ele>
        <time>2021-08-04T08:55:57Z</time>
      </trkpt>
      <trkpt lat="42.30983" lon="-1.41559">
        <ele>406.69</ele>
        <time>2021-08-04T08:56:05Z</time>
      </trkpt>
      <trkpt lat="42.30842" lon="-1.4161">
        <ele>407.96</ele>
        <time>2021-08-04T08:56:13Z</time>
      </trkpt>
      <trkpt lat="42.30642" lon="-1.41657">
        <ele>408.56</ele>
        <time>2021-08-04T08:56:26Z</time>
      </trkpt>
      <trkpt lat="42.30558" lon="-1.41675">
        <ele>408.6</ele>
        <time>2021-08-04T08:56:35Z</time>
      </trkpt>
      <trkpt lat="42.30478" lon="-1.41682">
        <ele>408.38</ele>
        <time>2021-08-04T08:56:45Z</time>
      </trkpt>
      <trkpt lat="42.30356" lon="-1.41705">
        <ele>408.97</ele>
        <time>2021-08-04T08:56:55Z</time>
      </trkpt>
      <trkpt lat="42.30206" lon="-1.41738">
        <ele>408.42</ele>
        <time>2021-08-04T08:57:06Z</time>
      </trkpt>
      <trkpt lat="42.30152" lon="-1.4179">
        <ele>407.03</ele>
        <time>2021-08-04T08:57:11Z</time>
      </trkpt>
      <trkpt lat="42.30147" lon="-1.41825">
        <ele>406.46</ele>
        <time>2021-08-04T08:57:13Z</time>
      </trkpt>
      <trkpt lat="42.30143" lon="-1.41888">
        <ele>405.46</ele>
        <time>2021-08-04T08:57:17Z</time>
      </trkpt>
      <trkpt lat="42.30095" lon="-1.42041">
        <ele>402.05</ele>
        <time>2021-08-04T08:57:27Z</time>
      </trkpt>
      <trkpt lat="42.30065" lon="-1.42128">
        <ele>400.09</ele>
        <time>2021-08-04T08:57:33Z</time>
      </trkpt>
      <trkpt lat="42.30024" lon="-1.4217">
        <ele>398.62</ele>
        <time>2021-08-04T08:57:37Z</time>
      </trkpt>
      <trkpt lat="42.29958" lon="-1.42213">
        <ele>397.63</ele>
        <time>2021-08-04T08:57:42Z</time>
      </trkpt>
      <trkpt lat="42.2985" lon="-1.42242">
        <ele>395.29</ele>
        <time>2021-08-04T08:57:50Z</time>
      </trkpt>
      <trkpt lat="42.29837" lon="-1.42241">
        <ele>395</ele>
        <time>2021-08-04T08:57:51Z</time>
      </trkpt>
      <trkpt lat="42.29738" lon="-1.42203">
        <ele>392.17</ele>
        <time>2021-08-04T08:57:59Z</time>
      </trkpt>
      <trkpt lat="42.29664" lon="-1.42164">
        <ele>388.91</ele>
        <time>2021-08-04T08:58:06Z</time>
      </trkpt>
      <trkpt lat="42.29641" lon="-1.42148">
        <ele>388.12</ele>
        <time>2021-08-04T08:58:08Z</time>
      </trkpt>
      <trkpt lat="42.29549" lon="-1.4211">
        <ele>386.81</ele>
        <time>2021-08-04T08:58:15Z</time>
      </trkpt>
      <trkpt lat="42.29458" lon="-1.42057">
        <ele>386.79</ele>
        <time>2021-08-04T08:58:22Z</time>
      </trkpt>
      <trkpt lat="42.29382" lon="-1.41972">
        <ele>385.33</ele>
        <time>2021-08-04T08:58:29Z</time>
      </trkpt>
      <trkpt lat="42.29313" lon="-1.41854">
        <ele>384.76</ele>
        <time>2021-08-04T08:58:37Z</time>
      </trkpt>
      <trkpt lat="42.29306" lon="-1.4184">
        <ele>384.8</ele>
        <time>2021-08-04T08:58:38Z</time>
      </trkpt>
      <trkpt lat="42.29256" lon="-1.4181">
        <ele>385.21</ele>
        <time>2021-08-04T08:58:43Z</time>
      </trkpt>
      <trkpt lat="42.29242" lon="-1.41815">
        <ele>385.29</ele>
        <time>2021-08-04T08:58:44Z</time>
      </trkpt>
      <trkpt lat="42.29202" lon="-1.41826">
        <ele>386.07</ele>
        <time>2021-08-04T08:58:47Z</time>
      </trkpt>
      <trkpt lat="42.29088" lon="-1.41798">
        <ele>387.29</ele>
        <time>2021-08-04T08:58:55Z</time>
      </trkpt>
      <trkpt lat="42.28968" lon="-1.41744">
        <ele>387.92</ele>
        <time>2021-08-04T08:59:03Z</time>
      </trkpt>
      <trkpt lat="42.28817" lon="-1.41758">
        <ele>387.16</ele>
        <time>2021-08-04T08:59:12Z</time>
      </trkpt>
      <trkpt lat="42.28582" lon="-1.41788">
        <ele>384.26</ele>
        <time>2021-08-04T08:59:27Z</time>
      </trkpt>
      <trkpt lat="42.28532" lon="-1.41781">
        <ele>383.83</ele>
        <time>2021-08-04T08:59:31Z</time>
      </trkpt>
      <trkpt lat="42.2849" lon="-1.41756">
        <ele>383.42</ele>
        <time>2021-08-04T08:59:35Z</time>
      </trkpt>
      <trkpt lat="42.28429" lon="-1.4171">
        <ele>382.35</ele>
        <time>2021-08-04T08:59:41Z</time>
      </trkpt>
      <trkpt lat="42.28366" lon="-1.41697">
        <ele>380.68</ele>
        <time>2021-08-04T08:59:46Z</time>
      </trkpt>
      <trkpt lat="42.28263" lon="-1.41641">
        <ele>379.79</ele>
        <time>2021-08-04T08:59:54Z</time>
      </trkpt>
      <trkpt lat="42.28153" lon="-1.41615">
        <ele>379.83</ele>
        <time>2021-08-04T09:00:02Z</time>
      </trkpt>
      <trkpt lat="42.28001" lon="-1.41587">
        <ele>379.57</ele>
        <time>2021-08-04T09:00:12Z</time>
      </trkpt>
      <trkpt lat="42.27812" lon="-1.41571">
        <ele>376.5</ele>
        <time>2021-08-04T09:00:25Z</time>
      </trkpt>
      <trkpt lat="42.27707" lon="-1.41533">
        <ele>374.05</ele>
        <time>2021-08-04T09:00:33Z</time>
      </trkpt>
      <trkpt lat="42.27594" lon="-1.41547">
        <ele>373.18</ele>
        <time>2021-08-04T09:00:41Z</time>
      </trkpt>
      <trkpt lat="42.27422" lon="-1.41575">
        <ele>374.17</ele>
        <time>2021-08-04T09:00:52Z</time>
      </trkpt>
      <trkpt lat="42.27396" lon="-1.41578">
        <ele>374.14</ele>
        <time>2021-08-04T09:00:54Z</time>
      </trkpt>
      <trkpt lat="42.27338" lon="-1.41628">
        <ele>373.95</ele>
        <time>2021-08-04T09:01:00Z</time>
      </trkpt>
      <trkpt lat="42.27282" lon="-1.41635">
        <ele>373.26</ele>
        <time>2021-08-04T09:01:05Z</time>
      </trkpt>
      <trkpt lat="42.27213" lon="-1.41659">
        <ele>372.33</ele>
        <time>2021-08-04T09:01:11Z</time>
      </trkpt>
      <trkpt lat="42.27204" lon="-1.41668">
        <ele>372.08</ele>
        <time>2021-08-04T09:01:12Z</time>
      </trkpt>
      <trkpt lat="42.27139" lon="-1.4169">
        <ele>370.37</ele>
        <time>2021-08-04T09:01:18Z</time>
      </trkpt>
      <trkpt lat="42.27033" lon="-1.41669">
        <ele>366.83</ele>
        <time>2021-08-04T09:01:28Z</time>
      </trkpt>
      <trkpt lat="42.26933" lon="-1.41673">
        <ele>363.63</ele>
        <time>2021-08-04T09:01:36Z</time>
      </trkpt>
      <trkpt lat="42.26849" lon="-1.41713">
        <ele>361.83</ele>
        <time>2021-08-04T09:01:44Z</time>
      </trkpt>
      <trkpt lat="42.26782" lon="-1.41755">
        <ele>361.53</ele>
        <time>2021-08-04T09:01:51Z</time>
      </trkpt>
      <trkpt lat="42.26715" lon="-1.4184">
        <ele>360.89</ele>
        <time>2021-08-04T09:02:00Z</time>
      </trkpt>
      <trkpt lat="42.26709" lon="-1.4185">
        <ele>360.88</ele>
        <time>2021-08-04T09:02:01Z</time>
      </trkpt>
      <trkpt lat="42.26654" lon="-1.41878">
        <ele>361.42</ele>
        <time>2021-08-04T09:02:07Z</time>
      </trkpt>
      <trkpt lat="42.26557" lon="-1.41869">
        <ele>364.27</ele>
        <time>2021-08-04T09:02:17Z</time>
      </trkpt>
      <trkpt lat="42.26518" lon="-1.4185">
        <ele>365.7</ele>
        <time>2021-08-04T09:02:21Z</time>
      </trkpt>
      <trkpt lat="42.2648" lon="-1.41844">
        <ele>366.29</ele>
        <time>2021-08-04T09:02:25Z</time>
      </trkpt>
      <trkpt lat="42.26349" lon="-1.41856">
        <ele>366.32</ele>
        <time>2021-08-04T09:02:36Z</time>
      </trkpt>
      <trkpt lat="42.26199" lon="-1.41894">
        <ele>366.46</ele>
        <time>2021-08-04T09:02:48Z</time>
      </trkpt>
      <trkpt lat="42.26187" lon="-1.41896">
        <ele>366.49</ele>
        <time>2021-08-04T09:02:49Z</time>
      </trkpt>
      <trkpt lat="42.26023" lon="-1.41882">
        <ele>367.3</ele>
        <time>2021-08-04T09:03:02Z</time>
      </trkpt>
      <trkpt lat="42.25897" lon="-1.41871">
        <ele>367.88</ele>
        <time>2021-08-04T09:03:13Z</time>
      </trkpt>
      <trkpt lat="42.25788" lon="-1.41848">
        <ele>368.04</ele>
        <time>2021-08-04T09:03:24Z</time>
      </trkpt>
      <trkpt lat="42.25744" lon="-1.41837">
        <ele>368.31</ele>
        <time>2021-08-04T09:03:28Z</time>
      </trkpt>
      <trkpt lat="42.25711" lon="-1.41809">
        <ele>368.7</ele>
        <time>2021-08-04T09:03:32Z</time>
      </trkpt>
      <trkpt lat="42.25655" lon="-1.4172">
        <ele>369</ele>
        <time>2021-08-04T09:03:43Z</time>
      </trkpt>
      <trkpt lat="42.25581" lon="-1.41609">
        <ele>370.61</ele>
        <time>2021-08-04T09:03:55Z</time>
      </trkpt>
      <trkpt lat="42.25563" lon="-1.41583">
        <ele>370.62</ele>
        <time>2021-08-04T09:03:58Z</time>
      </trkpt>
      <trkpt lat="42.25522" lon="-1.41516">
        <ele>369.94</ele>
        <time>2021-08-04T09:04:06Z</time>
      </trkpt>
      <trkpt lat="42.25493" lon="-1.41523">
        <ele>369.58</ele>
        <time>2021-08-04T09:04:10Z</time>
      </trkpt>
      <trkpt lat="42.25403" lon="-1.41595">
        <ele>368.87</ele>
        <time>2021-08-04T09:04:20Z</time>
      </trkpt>
      <trkpt lat="42.25385" lon="-1.4161">
        <ele>368.81</ele>
        <time>2021-08-04T09:04:22Z</time>
      </trkpt>
      <trkpt lat="42.25369" lon="-1.41627">
        <ele>368.74</ele>
        <time>2021-08-04T09:04:24Z</time>
      </trkpt>
      <trkpt lat="42.25301" lon="-1.41737">
        <ele>368.97</ele>
        <time>2021-08-04T09:04:35Z</time>
      </trkpt>
      <trkpt lat="42.25256" lon="-1.41779">
        <ele>368.96</ele>
        <time>2021-08-04T09:04:41Z</time>
      </trkpt>
      <trkpt lat="42.25235" lon="-1.41814">
        <ele>368.68</ele>
        <time>2021-08-04T09:04:45Z</time>
      </trkpt>
      <trkpt lat="42.25186" lon="-1.41894">
        <ele>368.89</ele>
        <time>2021-08-04T09:04:55Z</time>
      </trkpt>
      <trkpt lat="42.25177" lon="-1.41944">
        <ele>369.29</ele>
        <time>2021-08-04T09:05:00Z</time>
      </trkpt>
      <trkpt lat="42.25179" lon="-1.41985">
        <ele>369.37</ele>
        <time>2021-08-04T09:05:04Z</time>
      </trkpt>
      <trkpt lat="42.25197" lon="-1.42035">
        <ele>369.72</ele>
        <time>2021-08-04T09:05:09Z</time>
      </trkpt>
      <trkpt lat="42.25214" lon="-1.42067">
        <ele>369.67</ele>
        <time>2021-08-04T09:05:12Z</time>
      </trkpt>
      <trkpt lat="42.25223" lon="-1.42116">
        <ele>368.85</ele>
        <time>2021-08-04T09:05:16Z</time>
      </trkpt>
      <trkpt lat="42.25238" lon="-1.42248">
        <ele>367.66</ele>
        <time>2021-08-04T09:05:26Z</time>
      </trkpt>
      <trkpt lat="42.25245" lon="-1.42392">
        <ele>367.57</ele>
        <time>2021-08-04T09:05:37Z</time>
      </trkpt>
      <trkpt lat="42.25253" lon="-1.42514">
        <ele>367.05</ele>
        <time>2021-08-04T09:05:48Z</time>
      </trkpt>
      <trkpt lat="42.25285" lon="-1.42634">
        <ele>366.4</ele>
        <time>2021-08-04T09:05:58Z</time>
      </trkpt>
      <trkpt lat="42.25316" lon="-1.42763">
        <ele>365.07</ele>
        <time>2021-08-04T09:06:09Z</time>
      </trkpt>
      <trkpt lat="42.25361" lon="-1.42858">
        <ele>363.57</ele>
        <time>2021-08-04T09:06:20Z</time>
      </trkpt>
      <trkpt lat="42.25354" lon="-1.4291">
        <ele>363.68</ele>
        <time>2021-08-04T09:06:26Z</time>
      </trkpt>
      <trkpt lat="42.25338" lon="-1.42924">
        <ele>363.97</ele>
        <time>2021-08-04T09:06:28Z</time>
      </trkpt>
      <trkpt lat="42.25247" lon="-1.42991">
        <ele>363.07</ele>
        <time>2021-08-04T09:06:39Z</time>
      </trkpt>
      <trkpt lat="42.25221" lon="-1.43036">
        <ele>362.82</ele>
        <time>2021-08-04T09:06:44Z</time>
      </trkpt>
      <trkpt lat="42.25204" lon="-1.4308">
        <ele>362.42</ele>
        <time>2021-08-04T09:06:48Z</time>
      </trkpt>
      <trkpt lat="42.25175" lon="-1.43106">
        <ele>361.4</ele>
        <time>2021-08-04T09:06:52Z</time>
      </trkpt>
      <trkpt lat="42.25124" lon="-1.43116">
        <ele>360.23</ele>
        <time>2021-08-04T09:06:58Z</time>
      </trkpt>
      <trkpt lat="42.25044" lon="-1.43088">
        <ele>358.27</ele>
        <time>2021-08-04T09:07:07Z</time>
      </trkpt>
      <trkpt lat="42.24923" lon="-1.43106">
        <ele>355.23</ele>
        <time>2021-08-04T09:07:19Z</time>
      </trkpt>
      <trkpt lat="42.24759" lon="-1.43123">
        <ele>352.78</ele>
        <time>2021-08-04T09:07:36Z</time>
      </trkpt>
      <trkpt lat="42.24723" lon="-1.43131">
        <ele>352.5</ele>
        <time>2021-08-04T09:07:40Z</time>
      </trkpt>
      <trkpt lat="42.2469" lon="-1.43159">
        <ele>352.01</ele>
        <time>2021-08-04T09:07:44Z</time>
      </trkpt>
      <trkpt lat="42.24598" lon="-1.43305">
        <ele>349.34</ele>
        <time>2021-08-04T09:07:56Z</time>
      </trkpt>
      <trkpt lat="42.24581" lon="-1.43327">
        <ele>348.76</ele>
        <time>2021-08-04T09:07:58Z</time>
      </trkpt>
      <trkpt lat="42.24483" lon="-1.43385">
        <ele>346.36</ele>
        <time>2021-08-04T09:08:07Z</time>
      </trkpt>
      <trkpt lat="42.24367" lon="-1.4345">
        <ele>344.5</ele>
        <time>2021-08-04T09:08:19Z</time>
      </trkpt>
      <trkpt lat="42.24243" lon="-1.43521">
        <ele>345.04</ele>
        <time>2021-08-04T09:08:32Z</time>
      </trkpt>
      <trkpt lat="42.24204" lon="-1.43529">
        <ele>345.14</ele>
        <time>2021-08-04T09:08:36Z</time>
      </trkpt>
      <trkpt lat="42.24171" lon="-1.43522">
        <ele>344.78</ele>
        <time>2021-08-04T09:08:39Z</time>
      </trkpt>
      <trkpt lat="42.24125" lon="-1.4353">
        <ele>343.78</ele>
        <time>2021-08-04T09:08:44Z</time>
      </trkpt>
      <trkpt lat="42.24091" lon="-1.4355">
        <ele>343.47</ele>
        <time>2021-08-04T09:08:48Z</time>
      </trkpt>
      <trkpt lat="42.23997" lon="-1.43655">
        <ele>344.44</ele>
        <time>2021-08-04T09:09:01Z</time>
      </trkpt>
      <trkpt lat="42.23894" lon="-1.43772">
        <ele>346.09</ele>
        <time>2021-08-04T09:09:15Z</time>
      </trkpt>
      <trkpt lat="42.23784" lon="-1.43883">
        <ele>347.01</ele>
        <time>2021-08-04T09:09:28Z</time>
      </trkpt>
      <trkpt lat="42.23677" lon="-1.4403">
        <ele>347.81</ele>
        <time>2021-08-04T09:09:42Z</time>
      </trkpt>
      <trkpt lat="42.23669" lon="-1.44041">
        <ele>348.05</ele>
        <time>2021-08-04T09:09:43Z</time>
      </trkpt>
      <trkpt lat="42.23609" lon="-1.44188">
        <ele>351.3</ele>
        <time>2021-08-04T09:09:55Z</time>
      </trkpt>
      <trkpt lat="42.23564" lon="-1.44309">
        <ele>352.86</ele>
        <time>2021-08-04T09:10:05Z</time>
      </trkpt>
      <trkpt lat="42.23567" lon="-1.44359">
        <ele>352.97</ele>
        <time>2021-08-04T09:10:10Z</time>
      </trkpt>
      <trkpt lat="42.23582" lon="-1.44408">
        <ele>352.82</ele>
        <time>2021-08-04T09:10:14Z</time>
      </trkpt>
      <trkpt lat="42.23588" lon="-1.44556">
        <ele>352.14</ele>
        <time>2021-08-04T09:10:24Z</time>
      </trkpt>
      <trkpt lat="42.23585" lon="-1.44614">
        <ele>351.52</ele>
        <time>2021-08-04T09:10:28Z</time>
      </trkpt>
      <trkpt lat="42.23552" lon="-1.44683">
        <ele>351.92</ele>
        <time>2021-08-04T09:10:34Z</time>
      </trkpt>
      <trkpt lat="42.23436" lon="-1.44782">
        <ele>350.45</ele>
        <time>2021-08-04T09:10:46Z</time>
      </trkpt>
      <trkpt lat="42.23363" lon="-1.44853">
        <ele>347.36</ele>
        <time>2021-08-04T09:10:53Z</time>
      </trkpt>
      <trkpt lat="42.23336" lon="-1.44892">
        <ele>346.62</ele>
        <time>2021-08-04T09:10:57Z</time>
      </trkpt>
      <trkpt lat="42.23292" lon="-1.45017">
        <ele>347.22</ele>
        <time>2021-08-04T09:11:07Z</time>
      </trkpt>
      <trkpt lat="42.23226" lon="-1.45119">
        <ele>348.68</ele>
        <time>2021-08-04T09:11:16Z</time>
      </trkpt>
      <trkpt lat="42.23117" lon="-1.45227">
        <ele>350.71</ele>
        <time>2021-08-04T09:11:28Z</time>
      </trkpt>
      <trkpt lat="42.23071" lon="-1.45278">
        <ele>350.55</ele>
        <time>2021-08-04T09:11:36Z</time>
      </trkpt>
      <trkpt lat="42.23029" lon="-1.45331">
        <ele>348.81</ele>
        <time>2021-08-04T09:11:46Z</time>
      </trkpt>
      <trkpt lat="42.23018" lon="-1.45355">
        <ele>348.47</ele>
        <time>2021-08-04T09:11:50Z</time>
      </trkpt>
      <trkpt lat="42.22996" lon="-1.45418">
        <ele>347.96</ele>
        <time>2021-08-04T09:11:58Z</time>
      </trkpt>
      <trkpt lat="42.22964" lon="-1.45446">
        <ele>346.8</ele>
        <time>2021-08-04T09:12:03Z</time>
      </trkpt>
      <trkpt lat="42.22888" lon="-1.45468">
        <ele>343.07</ele>
        <time>2021-08-04T09:12:11Z</time>
      </trkpt>
      <trkpt lat="42.22878" lon="-1.45471">
        <ele>342.37</ele>
        <time>2021-08-04T09:12:12Z</time>
      </trkpt>
      <trkpt lat="42.22817" lon="-1.45522">
        <ele>338.74</ele>
        <time>2021-08-04T09:12:19Z</time>
      </trkpt>
      <trkpt lat="42.22784" lon="-1.45539">
        <ele>336.94</ele>
        <time>2021-08-04T09:12:23Z</time>
      </trkpt>
      <trkpt lat="42.22685" lon="-1.45548">
        <ele>333.7</ele>
        <time>2021-08-04T09:12:33Z</time>
      </trkpt>
      <trkpt lat="42.22566" lon="-1.45557">
        <ele>330.71</ele>
        <time>2021-08-04T09:12:44Z</time>
      </trkpt>
      <trkpt lat="42.22466" lon="-1.45594">
        <ele>327.04</ele>
        <time>2021-08-04T09:12:54Z</time>
      </trkpt>
      <trkpt lat="42.22364" lon="-1.45627">
        <ele>324.01</ele>
        <time>2021-08-04T09:13:06Z</time>
      </trkpt>
      <trkpt lat="42.22305" lon="-1.45655">
        <ele>322.35</ele>
        <time>2021-08-04T09:13:16Z</time>
      </trkpt>
      <trkpt lat="42.22269" lon="-1.45676">
        <ele>320.89</ele>
        <time>2021-08-04T09:13:24Z</time>
      </trkpt>
      <trkpt lat="42.22152" lon="-1.4574">
        <ele>320.82</ele>
        <time>2021-08-04T09:13:38Z</time>
      </trkpt>
      <trkpt lat="42.22066" lon="-1.45824">
        <ele>320.85</ele>
        <time>2021-08-04T09:13:48Z</time>
      </trkpt>
      <trkpt lat="42.22026" lon="-1.45929">
        <ele>321.08</ele>
        <time>2021-08-04T09:13:56Z</time>
      </trkpt>
      <trkpt lat="42.22005" lon="-1.46093">
        <ele>319.47</ele>
        <time>2021-08-04T09:14:07Z</time>
      </trkpt>
      <trkpt lat="42.22001" lon="-1.46107">
        <ele>319.24</ele>
        <time>2021-08-04T09:14:08Z</time>
      </trkpt>
      <trkpt lat="42.21955" lon="-1.46165">
        <ele>316.73</ele>
        <time>2021-08-04T09:14:14Z</time>
      </trkpt>
      <trkpt lat="42.21933" lon="-1.46176">
        <ele>315.83</ele>
        <time>2021-08-04T09:14:16Z</time>
      </trkpt>
      <trkpt lat="42.2188" lon="-1.46229">
        <ele>313.88</ele>
        <time>2021-08-04T09:14:21Z</time>
      </trkpt>
      <trkpt lat="42.21813" lon="-1.46329">
        <ele>310.33</ele>
        <time>2021-08-04T09:14:29Z</time>
      </trkpt>
      <trkpt lat="42.21806" lon="-1.4634">
        <ele>309.77</ele>
        <time>2021-08-04T09:14:30Z</time>
      </trkpt>
      <trkpt lat="42.21768" lon="-1.46347">
        <ele>307.03</ele>
        <time>2021-08-04T09:14:36Z</time>
      </trkpt>
      <trkpt lat="42.2176" lon="-1.46317">
        <ele>306.52</ele>
        <time>2021-08-04T09:14:38Z</time>
      </trkpt>
      <trkpt lat="42.21681" lon="-1.46152">
        <ele>305.5</ele>
        <time>2021-08-04T09:14:52Z</time>
      </trkpt>
      <trkpt lat="42.21575" lon="-1.46019">
        <ele>305.68</ele>
        <time>2021-08-04T09:15:06Z</time>
      </trkpt>
      <trkpt lat="42.21502" lon="-1.45892">
        <ele>305.97</ele>
        <time>2021-08-04T09:15:19Z</time>
      </trkpt>
      <trkpt lat="42.21452" lon="-1.458">
        <ele>304.38</ele>
        <time>2021-08-04T09:15:29Z</time>
      </trkpt>
      <trkpt lat="42.21441" lon="-1.45783">
        <ele>304.31</ele>
        <time>2021-08-04T09:15:31Z</time>
      </trkpt>
      <trkpt lat="42.21412" lon="-1.45759">
        <ele>304.55</ele>
        <time>2021-08-04T09:15:35Z</time>
      </trkpt>
      <trkpt lat="42.21364" lon="-1.45732">
        <ele>305.58</ele>
        <time>2021-08-04T09:15:41Z</time>
      </trkpt>
      <trkpt lat="42.21335" lon="-1.45697">
        <ele>304.64</ele>
        <time>2021-08-04T09:15:49Z</time>
      </trkpt>
      <trkpt lat="42.21339" lon="-1.45701">
        <ele>303.11</ele>
        <time>2021-08-04T09:16:02Z</time>
      </trkpt>
      <trkpt lat="42.21304" lon="-1.45653">
        <ele>303.52</ele>
        <time>2021-08-04T09:16:10Z</time>
      </trkpt>
      <trkpt lat="42.2122" lon="-1.45545">
        <ele>304.73</ele>
        <time>2021-08-04T09:16:20Z</time>
      </trkpt>
      <trkpt lat="42.2113" lon="-1.45427">
        <ele>307.06</ele>
        <time>2021-08-04T09:16:32Z</time>
      </trkpt>
      <trkpt lat="42.2104" lon="-1.45303">
        <ele>307.35</ele>
        <time>2021-08-04T09:16:44Z</time>
      </trkpt>
      <trkpt lat="42.20948" lon="-1.45176">
        <ele>306.52</ele>
        <time>2021-08-04T09:16:56Z</time>
      </trkpt>
      <trkpt lat="42.2085" lon="-1.45048">
        <ele>305.73</ele>
        <time>2021-08-04T09:17:10Z</time>
      </trkpt>
      <trkpt lat="42.20773" lon="-1.44948">
        <ele>306.01</ele>
        <time>2021-08-04T09:17:23Z</time>
      </trkpt>
      <trkpt lat="42.20699" lon="-1.44849">
        <ele>308.95</ele>
        <time>2021-08-04T09:17:34Z</time>
      </trkpt>
      <trkpt lat="42.20606" lon="-1.44721">
        <ele>309.34</ele>
        <time>2021-08-04T09:17:46Z</time>
      </trkpt>
      <trkpt lat="42.2052" lon="-1.44606">
        <ele>310.73</ele>
        <time>2021-08-04T09:17:58Z</time>
      </trkpt>
      <trkpt lat="42.20472" lon="-1.44543">
        <ele>314.04</ele>
        <time>2021-08-04T09:18:06Z</time>
      </trkpt>
      <trkpt lat="42.20396" lon="-1.44449">
        <ele>316.87</ele>
        <time>2021-08-04T09:18:18Z</time>
      </trkpt>
      <trkpt lat="42.20329" lon="-1.44353">
        <ele>318.43</ele>
        <time>2021-08-04T09:18:30Z</time>
      </trkpt>
      <trkpt lat="42.20255" lon="-1.4425">
        <ele>318.99</ele>
        <time>2021-08-04T09:18:45Z</time>
      </trkpt>
      <trkpt lat="42.20197" lon="-1.44171">
        <ele>319.3</ele>
        <time>2021-08-04T09:18:58Z</time>
      </trkpt>
      <trkpt lat="42.2018" lon="-1.44138">
        <ele>319.39</ele>
        <time>2021-08-04T09:19:09Z</time>
      </trkpt>
      <trkpt lat="42.20178" lon="-1.44133">
        <ele>319.45</ele>
        <time>2021-08-04T09:19:11Z</time>
      </trkpt>
      <trkpt lat="42.20185" lon="-1.44125">
        <ele>319.63</ele>
        <time>2021-08-04T09:19:22Z</time>
      </trkpt>
      <trkpt lat="42.20185" lon="-1.44125">
        <ele>319.4</ele>
        <time>2021-08-04T09:21:45Z</time>
      </trkpt>
      <trkpt lat="42.20183" lon="-1.44135">
        <ele>319.54</ele>
        <time>2021-08-04T09:21:54Z</time>
      </trkpt>
      <trkpt lat="42.20172" lon="-1.44128">
        <ele>319.83</ele>
        <time>2021-08-04T09:22:12Z</time>
      </trkpt>
      <trkpt lat="42.20168" lon="-1.44124">
        <ele>319.85</ele>
        <time>2021-08-04T09:22:13Z</time>
      </trkpt>
      <trkpt lat="42.20164" lon="-1.4412">
        <ele>319.87</ele>
        <time>2021-08-04T09:22:14Z</time>
      </trkpt>
      <trkpt lat="42.20121" lon="-1.4406">
        <ele>320.07</ele>
        <time>2021-08-04T09:22:22Z</time>
      </trkpt>
      <trkpt lat="42.20051" lon="-1.43963">
        <ele>320.16</ele>
        <time>2021-08-04T09:22:35Z</time>
      </trkpt>
      <trkpt lat="42.19989" lon="-1.43881">
        <ele>320.62</ele>
        <time>2021-08-04T09:22:44Z</time>
      </trkpt>
      <trkpt lat="42.19927" lon="-1.43797">
        <ele>321.47</ele>
        <time>2021-08-04T09:22:53Z</time>
      </trkpt>
      <trkpt lat="42.19873" lon="-1.43715">
        <ele>322.3</ele>
        <time>2021-08-04T09:23:04Z</time>
      </trkpt>
      <trkpt lat="42.19862" lon="-1.4368">
        <ele>322.59</ele>
        <time>2021-08-04T09:23:08Z</time>
      </trkpt>
      <trkpt lat="42.19849" lon="-1.43555">
        <ele>325.14</ele>
        <time>2021-08-04T09:23:22Z</time>
      </trkpt>
      <trkpt lat="42.19847" lon="-1.43491">
        <ele>328.62</ele>
        <time>2021-08-04T09:23:31Z</time>
      </trkpt>
      <trkpt lat="42.19847" lon="-1.43449">
        <ele>331.85</ele>
        <time>2021-08-04T09:23:37Z</time>
      </trkpt>
      <trkpt lat="42.19845" lon="-1.43398">
        <ele>335.18</ele>
        <time>2021-08-04T09:23:44Z</time>
      </trkpt>
      <trkpt lat="42.19842" lon="-1.43361">
        <ele>337.6</ele>
        <time>2021-08-04T09:23:52Z</time>
      </trkpt>
      <trkpt lat="42.19853" lon="-1.43354">
        <ele>337.97</ele>
        <time>2021-08-04T09:23:58Z</time>
      </trkpt>
      <trkpt lat="42.19861" lon="-1.43373">
        <ele>338.2</ele>
        <time>2021-08-04T09:24:03Z</time>
      </trkpt>
      <trkpt lat="42.19884" lon="-1.43409">
        <ele>339.64</ele>
        <time>2021-08-04T09:24:15Z</time>
      </trkpt>
      <trkpt lat="42.19899" lon="-1.43437">
        <ele>341.1</ele>
        <time>2021-08-04T09:24:26Z</time>
      </trkpt>
      <trkpt lat="42.1992" lon="-1.43478">
        <ele>344.06</ele>
        <time>2021-08-04T09:24:37Z</time>
      </trkpt>
      <trkpt lat="42.19919" lon="-1.43515">
        <ele>346.3</ele>
        <time>2021-08-04T09:24:49Z</time>
      </trkpt>
      <trkpt lat="42.1992" lon="-1.43516">
        <ele>346.75</ele>
        <time>2021-08-04T09:25:03Z</time>
      </trkpt>
      <trkpt lat="42.1992" lon="-1.43516">
        <ele>347.54</ele>
        <time>2021-08-04T09:25:24Z</time>
      </trkpt>
      <trkpt lat="42.19921" lon="-1.43513">
        <ele>348.31</ele>
        <time>2021-08-04T09:40:43Z</time>
      </trkpt>
      <trkpt lat="42.1992" lon="-1.43513">
        <ele>348.31</ele>
        <time>2021-08-04T09:40:44Z</time>
      </trkpt>
      <trkpt lat="42.19923" lon="-1.43513">
        <ele>348.31</ele>
        <time>2021-08-04T09:41:08Z</time>
      </trkpt>
      <trkpt lat="42.1993" lon="-1.43505">
        <ele>346.37</ele>
        <time>2021-08-04T09:41:17Z</time>
      </trkpt>
      <trkpt lat="42.19926" lon="-1.43486">
        <ele>346.12</ele>
        <time>2021-08-04T09:41:23Z</time>
      </trkpt>
      <trkpt lat="42.19894" lon="-1.43427">
        <ele>345.64</ele>
        <time>2021-08-04T09:41:33Z</time>
      </trkpt>
      <trkpt lat="42.19859" lon="-1.4337">
        <ele>342.4</ele>
        <time>2021-08-04T09:41:41Z</time>
      </trkpt>
      <trkpt lat="42.19855" lon="-1.43363">
        <ele>341.93</ele>
        <time>2021-08-04T09:41:42Z</time>
      </trkpt>
      <trkpt lat="42.19831" lon="-1.43322">
        <ele>339</ele>
        <time>2021-08-04T09:41:49Z</time>
      </trkpt>
      <trkpt lat="42.19797" lon="-1.43201">
        <ele>337.4</ele>
        <time>2021-08-04T09:42:03Z</time>
      </trkpt>
      <trkpt lat="42.19763" lon="-1.4309">
        <ele>337.26</ele>
        <time>2021-08-04T09:42:14Z</time>
      </trkpt>
      <trkpt lat="42.19743" lon="-1.43032">
        <ele>336.77</ele>
        <time>2021-08-04T09:42:19Z</time>
      </trkpt>
      <trkpt lat="42.197" lon="-1.42937">
        <ele>337.05</ele>
        <time>2021-08-04T09:42:29Z</time>
      </trkpt>
      <trkpt lat="42.19678" lon="-1.42834">
        <ele>340.33</ele>
        <time>2021-08-04T09:42:37Z</time>
      </trkpt>
      <trkpt lat="42.1966" lon="-1.42656">
        <ele>342.72</ele>
        <time>2021-08-04T09:42:49Z</time>
      </trkpt>
      <trkpt lat="42.1964" lon="-1.42429">
        <ele>343.52</ele>
        <time>2021-08-04T09:43:05Z</time>
      </trkpt>
      <trkpt lat="42.1962" lon="-1.42238">
        <ele>344.5</ele>
        <time>2021-08-04T09:43:22Z</time>
      </trkpt>
      <trkpt lat="42.19609" lon="-1.42115">
        <ele>347.79</ele>
        <time>2021-08-04T09:43:33Z</time>
      </trkpt>
      <trkpt lat="42.19595" lon="-1.42023">
        <ele>351.14</ele>
        <time>2021-08-04T09:43:42Z</time>
      </trkpt>
      <trkpt lat="42.19569" lon="-1.41932">
        <ele>350.9</ele>
        <time>2021-08-04T09:43:52Z</time>
      </trkpt>
      <trkpt lat="42.19518" lon="-1.4177">
        <ele>351.53</ele>
        <time>2021-08-04T09:44:06Z</time>
      </trkpt>
      <trkpt lat="42.1947" lon="-1.41607">
        <ele>349.32</ele>
        <time>2021-08-04T09:44:21Z</time>
      </trkpt>
      <trkpt lat="42.19435" lon="-1.41493">
        <ele>348.45</ele>
        <time>2021-08-04T09:44:33Z</time>
      </trkpt>
      <trkpt lat="42.19394" lon="-1.41362">
        <ele>348.65</ele>
        <time>2021-08-04T09:44:47Z</time>
      </trkpt>
      <trkpt lat="42.19389" lon="-1.41347">
        <ele>348.67</ele>
        <time>2021-08-04T09:44:49Z</time>
      </trkpt>
      <trkpt lat="42.19362" lon="-1.41316">
        <ele>348.7</ele>
        <time>2021-08-04T09:44:55Z</time>
      </trkpt>
      <trkpt lat="42.19281" lon="-1.41281">
        <ele>348.82</ele>
        <time>2021-08-04T09:45:06Z</time>
      </trkpt>
      <trkpt lat="42.19161" lon="-1.41229">
        <ele>348.48</ele>
        <time>2021-08-04T09:45:19Z</time>
      </trkpt>
      <trkpt lat="42.19011" lon="-1.41176">
        <ele>347.57</ele>
        <time>2021-08-04T09:45:34Z</time>
      </trkpt>
      <trkpt lat="42.18865" lon="-1.41185">
        <ele>344.19</ele>
        <time>2021-08-04T09:45:46Z</time>
      </trkpt>
      <trkpt lat="42.18774" lon="-1.41188">
        <ele>341.11</ele>
        <time>2021-08-04T09:45:53Z</time>
      </trkpt>
      <trkpt lat="42.18674" lon="-1.4115">
        <ele>338.2</ele>
        <time>2021-08-04T09:46:01Z</time>
      </trkpt>
      <trkpt lat="42.18501" lon="-1.41045">
        <ele>335.15</ele>
        <time>2021-08-04T09:46:16Z</time>
      </trkpt>
      <trkpt lat="42.18358" lon="-1.40978">
        <ele>332.43</ele>
        <time>2021-08-04T09:46:29Z</time>
      </trkpt>
      <trkpt lat="42.18322" lon="-1.4095">
        <ele>331.82</ele>
        <time>2021-08-04T09:46:33Z</time>
      </trkpt>
      <trkpt lat="42.18262" lon="-1.40857">
        <ele>332.48</ele>
        <time>2021-08-04T09:46:44Z</time>
      </trkpt>
      <trkpt lat="42.1816" lon="-1.40762">
        <ele>334.34</ele>
        <time>2021-08-04T09:46:56Z</time>
      </trkpt>
      <trkpt lat="42.1811" lon="-1.4073">
        <ele>335.63</ele>
        <time>2021-08-04T09:47:01Z</time>
      </trkpt>
      <trkpt lat="42.18024" lon="-1.40729">
        <ele>338.21</ele>
        <time>2021-08-04T09:47:10Z</time>
      </trkpt>
      <trkpt lat="42.18006" lon="-1.4073">
        <ele>338.31</ele>
        <time>2021-08-04T09:47:12Z</time>
      </trkpt>
      <trkpt lat="42.17964" lon="-1.40753">
        <ele>338.26</ele>
        <time>2021-08-04T09:47:17Z</time>
      </trkpt>
      <trkpt lat="42.17853" lon="-1.40888">
        <ele>336.24</ele>
        <time>2021-08-04T09:47:31Z</time>
      </trkpt>
      <trkpt lat="42.17766" lon="-1.41067">
        <ele>335.21</ele>
        <time>2021-08-04T09:47:44Z</time>
      </trkpt>
      <trkpt lat="42.17713" lon="-1.41265">
        <ele>333.89</ele>
        <time>2021-08-04T09:47:58Z</time>
      </trkpt>
      <trkpt lat="42.17689" lon="-1.41309">
        <ele>333.31</ele>
        <time>2021-08-04T09:48:02Z</time>
      </trkpt>
      <trkpt lat="42.17592" lon="-1.41428">
        <ele>331.44</ele>
        <time>2021-08-04T09:48:15Z</time>
      </trkpt>
      <trkpt lat="42.1747" lon="-1.4158">
        <ele>329.44</ele>
        <time>2021-08-04T09:48:32Z</time>
      </trkpt>
      <trkpt lat="42.17382" lon="-1.41688">
        <ele>328.94</ele>
        <time>2021-08-04T09:48:43Z</time>
      </trkpt>
      <trkpt lat="42.17265" lon="-1.41835">
        <ele>329.28</ele>
        <time>2021-08-04T09:48:57Z</time>
      </trkpt>
      <trkpt lat="42.17145" lon="-1.41978">
        <ele>331.32</ele>
        <time>2021-08-04T09:49:12Z</time>
      </trkpt>
      <trkpt lat="42.17131" lon="-1.42002">
        <ele>331.59</ele>
        <time>2021-08-04T09:49:14Z</time>
      </trkpt>
      <trkpt lat="42.17054" lon="-1.42182">
        <ele>330.81</ele>
        <time>2021-08-04T09:49:28Z</time>
      </trkpt>
      <trkpt lat="42.16973" lon="-1.423">
        <ele>327.73</ele>
        <time>2021-08-04T09:49:39Z</time>
      </trkpt>
      <trkpt lat="42.16913" lon="-1.4237">
        <ele>324.49</ele>
        <time>2021-08-04T09:49:49Z</time>
      </trkpt>
      <trkpt lat="42.16875" lon="-1.42415">
        <ele>321.39</ele>
        <time>2021-08-04T09:49:58Z</time>
      </trkpt>
      <trkpt lat="42.16837" lon="-1.42448">
        <ele>319.43</ele>
        <time>2021-08-04T09:50:03Z</time>
      </trkpt>
      <trkpt lat="42.168" lon="-1.42492">
        <ele>318.9</ele>
        <time>2021-08-04T09:50:07Z</time>
      </trkpt>
      <trkpt lat="42.16743" lon="-1.42587">
        <ele>320.05</ele>
        <time>2021-08-04T09:50:16Z</time>
      </trkpt>
      <trkpt lat="42.16677" lon="-1.4267">
        <ele>320.81</ele>
        <time>2021-08-04T09:50:26Z</time>
      </trkpt>
      <trkpt lat="42.16597" lon="-1.42761">
        <ele>318.75</ele>
        <time>2021-08-04T09:50:37Z</time>
      </trkpt>
      <trkpt lat="42.1649" lon="-1.42876">
        <ele>320.57</ele>
        <time>2021-08-04T09:50:50Z</time>
      </trkpt>
      <trkpt lat="42.16403" lon="-1.42984">
        <ele>322.57</ele>
        <time>2021-08-04T09:51:01Z</time>
      </trkpt>
      <trkpt lat="42.16335" lon="-1.43064">
        <ele>322.03</ele>
        <time>2021-08-04T09:51:09Z</time>
      </trkpt>
      <trkpt lat="42.16292" lon="-1.43182">
        <ele>320.97</ele>
        <time>2021-08-04T09:51:21Z</time>
      </trkpt>
      <trkpt lat="42.16288" lon="-1.43197">
        <ele>320.77</ele>
        <time>2021-08-04T09:51:23Z</time>
      </trkpt>
      <trkpt lat="42.16288" lon="-1.43296">
        <ele>319.75</ele>
        <time>2021-08-04T09:51:36Z</time>
      </trkpt>
      <trkpt lat="42.16314" lon="-1.43383">
        <ele>318.81</ele>
        <time>2021-08-04T09:51:48Z</time>
      </trkpt>
      <trkpt lat="42.16364" lon="-1.43489">
        <ele>317.18</ele>
        <time>2021-08-04T09:52:03Z</time>
      </trkpt>
      <trkpt lat="42.16422" lon="-1.43604">
        <ele>316.51</ele>
        <time>2021-08-04T09:52:18Z</time>
      </trkpt>
      <trkpt lat="42.16483" lon="-1.43721">
        <ele>317.37</ele>
        <time>2021-08-04T09:52:31Z</time>
      </trkpt>
      <trkpt lat="42.16522" lon="-1.43817">
        <ele>319.02</ele>
        <time>2021-08-04T09:52:43Z</time>
      </trkpt>
      <trkpt lat="42.16561" lon="-1.43897">
        <ele>315.79</ele>
        <time>2021-08-04T09:52:57Z</time>
      </trkpt>
      <trkpt lat="42.16615" lon="-1.43956">
        <ele>313.42</ele>
        <time>2021-08-04T09:53:11Z</time>
      </trkpt>
      <trkpt lat="42.16682" lon="-1.44021">
        <ele>312.16</ele>
        <time>2021-08-04T09:53:28Z</time>
      </trkpt>
      <trkpt lat="42.16719" lon="-1.44057">
        <ele>311.19</ele>
        <time>2021-08-04T09:53:41Z</time>
      </trkpt>
      <trkpt lat="42.16763" lon="-1.44131">
        <ele>311.03</ele>
        <time>2021-08-04T09:53:50Z</time>
      </trkpt>
      <trkpt lat="42.16816" lon="-1.44211">
        <ele>310.19</ele>
        <time>2021-08-04T09:53:59Z</time>
      </trkpt>
      <trkpt lat="42.16902" lon="-1.4429">
        <ele>308.73</ele>
        <time>2021-08-04T09:54:11Z</time>
      </trkpt>
      <trkpt lat="42.16976" lon="-1.44399">
        <ele>307.1</ele>
        <time>2021-08-04T09:54:25Z</time>
      </trkpt>
      <trkpt lat="42.17022" lon="-1.44473">
        <ele>306.52</ele>
        <time>2021-08-04T09:54:37Z</time>
      </trkpt>
      <trkpt lat="42.1707" lon="-1.44551">
        <ele>306.7</ele>
        <time>2021-08-04T09:54:50Z</time>
      </trkpt>
      <trkpt lat="42.17147" lon="-1.44626">
        <ele>306.5</ele>
        <time>2021-08-04T09:55:03Z</time>
      </trkpt>
      <trkpt lat="42.17227" lon="-1.44704">
        <ele>303.47</ele>
        <time>2021-08-04T09:55:15Z</time>
      </trkpt>
      <trkpt lat="42.17271" lon="-1.44767">
        <ele>301.22</ele>
        <time>2021-08-04T09:55:24Z</time>
      </trkpt>
      <trkpt lat="42.17281" lon="-1.44804">
        <ele>298.14</ele>
        <time>2021-08-04T09:55:34Z</time>
      </trkpt>
      <trkpt lat="42.17301" lon="-1.44857">
        <ele>297.91</ele>
        <time>2021-08-04T09:55:40Z</time>
      </trkpt>
      <trkpt lat="42.17325" lon="-1.44889">
        <ele>298.09</ele>
        <time>2021-08-04T09:55:44Z</time>
      </trkpt>
      <trkpt lat="42.17437" lon="-1.45015">
        <ele>300.27</ele>
        <time>2021-08-04T09:56:00Z</time>
      </trkpt>
      <trkpt lat="42.17518" lon="-1.4514">
        <ele>300.54</ele>
        <time>2021-08-04T09:56:12Z</time>
      </trkpt>
      <trkpt lat="42.17568" lon="-1.45223">
        <ele>298.61</ele>
        <time>2021-08-04T09:56:19Z</time>
      </trkpt>
      <trkpt lat="42.17654" lon="-1.45308">
        <ele>296.81</ele>
        <time>2021-08-04T09:56:29Z</time>
      </trkpt>
      <trkpt lat="42.17788" lon="-1.45447">
        <ele>298.77</ele>
        <time>2021-08-04T09:56:43Z</time>
      </trkpt>
      <trkpt lat="42.17858" lon="-1.45524">
        <ele>300.56</ele>
        <time>2021-08-04T09:56:53Z</time>
      </trkpt>
      <trkpt lat="42.17949" lon="-1.45615">
        <ele>302.2</ele>
        <time>2021-08-04T09:57:06Z</time>
      </trkpt>
      <trkpt lat="42.1805" lon="-1.45744">
        <ele>304.66</ele>
        <time>2021-08-04T09:57:20Z</time>
      </trkpt>
      <trkpt lat="42.18156" lon="-1.45875">
        <ele>303.35</ele>
        <time>2021-08-04T09:57:34Z</time>
      </trkpt>
      <trkpt lat="42.18185" lon="-1.45985">
        <ele>302.44</ele>
        <time>2021-08-04T09:57:43Z</time>
      </trkpt>
      <trkpt lat="42.18179" lon="-1.46146">
        <ele>302.83</ele>
        <time>2021-08-04T09:57:56Z</time>
      </trkpt>
      <trkpt lat="42.1814" lon="-1.46361">
        <ele>301.97</ele>
        <time>2021-08-04T09:58:13Z</time>
      </trkpt>
      <trkpt lat="42.18151" lon="-1.46485">
        <ele>299.77</ele>
        <time>2021-08-04T09:58:23Z</time>
      </trkpt>
      <trkpt lat="42.18192" lon="-1.46715">
        <ele>296.66</ele>
        <time>2021-08-04T09:58:42Z</time>
      </trkpt>
      <trkpt lat="42.18215" lon="-1.46929">
        <ele>294.58</ele>
        <time>2021-08-04T09:58:59Z</time>
      </trkpt>
      <trkpt lat="42.18232" lon="-1.47087">
        <ele>292.39</ele>
        <time>2021-08-04T09:59:13Z</time>
      </trkpt>
      <trkpt lat="42.18253" lon="-1.47302">
        <ele>289.83</ele>
        <time>2021-08-04T09:59:31Z</time>
      </trkpt>
      <trkpt lat="42.18268" lon="-1.4744">
        <ele>290.36</ele>
        <time>2021-08-04T09:59:43Z</time>
      </trkpt>
      <trkpt lat="42.18275" lon="-1.47469">
        <ele>290.2</ele>
        <time>2021-08-04T09:59:45Z</time>
      </trkpt>
      <trkpt lat="42.18294" lon="-1.47519">
        <ele>289.03</ele>
        <time>2021-08-04T09:59:49Z</time>
      </trkpt>
      <trkpt lat="42.18303" lon="-1.47638">
        <ele>287.95</ele>
        <time>2021-08-04T10:00:01Z</time>
      </trkpt>
      <trkpt lat="42.18292" lon="-1.47749">
        <ele>291</ele>
        <time>2021-08-04T10:00:11Z</time>
      </trkpt>
      <trkpt lat="42.18286" lon="-1.47806">
        <ele>292.86</ele>
        <time>2021-08-04T10:00:16Z</time>
      </trkpt>
      <trkpt lat="42.18293" lon="-1.47856">
        <ele>294.46</ele>
        <time>2021-08-04T10:00:22Z</time>
      </trkpt>
      <trkpt lat="42.18343" lon="-1.47947">
        <ele>297.79</ele>
        <time>2021-08-04T10:00:33Z</time>
      </trkpt>
      <trkpt lat="42.18374" lon="-1.47993">
        <ele>298.8</ele>
        <time>2021-08-04T10:00:38Z</time>
      </trkpt>
      <trkpt lat="42.18391" lon="-1.48044">
        <ele>299.14</ele>
        <time>2021-08-04T10:00:45Z</time>
      </trkpt>
      <trkpt lat="42.18391" lon="-1.48048">
        <ele>298.78</ele>
        <time>2021-08-04T10:00:59Z</time>
      </trkpt>
      <trkpt lat="42.18396" lon="-1.48081">
        <ele>299.09</ele>
        <time>2021-08-04T10:01:13Z</time>
      </trkpt>
      <trkpt lat="42.18403" lon="-1.48118">
        <ele>299.84</ele>
        <time>2021-08-04T10:01:17Z</time>
      </trkpt>
      <trkpt lat="42.18451" lon="-1.48202">
        <ele>303.01</ele>
        <time>2021-08-04T10:01:28Z</time>
      </trkpt>
      <trkpt lat="42.18506" lon="-1.48282">
        <ele>304.6</ele>
        <time>2021-08-04T10:01:41Z</time>
      </trkpt>
      <trkpt lat="42.18556" lon="-1.48372">
        <ele>303.76</ele>
        <time>2021-08-04T10:01:55Z</time>
      </trkpt>
      <trkpt lat="42.18574" lon="-1.48411">
        <ele>303.18</ele>
        <time>2021-08-04T10:02:00Z</time>
      </trkpt>
      <trkpt lat="42.18603" lon="-1.48435">
        <ele>302.4</ele>
        <time>2021-08-04T10:02:05Z</time>
      </trkpt>
      <trkpt lat="42.1867" lon="-1.48439">
        <ele>302.02</ele>
        <time>2021-08-04T10:02:17Z</time>
      </trkpt>
      <trkpt lat="42.18691" lon="-1.48429">
        <ele>302.2</ele>
        <time>2021-08-04T10:02:21Z</time>
      </trkpt>
      <trkpt lat="42.18741" lon="-1.48436">
        <ele>302.61</ele>
        <time>2021-08-04T10:02:28Z</time>
      </trkpt>
      <trkpt lat="42.18843" lon="-1.48523">
        <ele>303.6</ele>
        <time>2021-08-04T10:02:42Z</time>
      </trkpt>
      <trkpt lat="42.1896" lon="-1.4862">
        <ele>304.88</ele>
        <time>2021-08-04T10:02:57Z</time>
      </trkpt>
      <trkpt lat="42.1909" lon="-1.48731">
        <ele>304.94</ele>
        <time>2021-08-04T10:03:13Z</time>
      </trkpt>
      <trkpt lat="42.19188" lon="-1.48814">
        <ele>307.57</ele>
        <time>2021-08-04T10:03:26Z</time>
      </trkpt>
      <trkpt lat="42.19277" lon="-1.48893">
        <ele>310.49</ele>
        <time>2021-08-04T10:03:37Z</time>
      </trkpt>
      <trkpt lat="42.19394" lon="-1.49011">
        <ele>308.29</ele>
        <time>2021-08-04T10:03:51Z</time>
      </trkpt>
      <trkpt lat="42.19423" lon="-1.49038">
        <ele>306.6</ele>
        <time>2021-08-04T10:03:55Z</time>
      </trkpt>
      <trkpt lat="42.19526" lon="-1.49141">
        <ele>304.58</ele>
        <time>2021-08-04T10:04:09Z</time>
      </trkpt>
      <trkpt lat="42.19647" lon="-1.49262">
        <ele>304.58</ele>
        <time>2021-08-04T10:04:23Z</time>
      </trkpt>
      <trkpt lat="42.19757" lon="-1.49373">
        <ele>302.51</ele>
        <time>2021-08-04T10:04:36Z</time>
      </trkpt>
      <trkpt lat="42.19923" lon="-1.49541">
        <ele>302.65</ele>
        <time>2021-08-04T10:04:56Z</time>
      </trkpt>
      <trkpt lat="42.2009" lon="-1.4971">
        <ele>304.64</ele>
        <time>2021-08-04T10:05:17Z</time>
      </trkpt>
      <trkpt lat="42.20213" lon="-1.49836">
        <ele>307.67</ele>
        <time>2021-08-04T10:05:31Z</time>
      </trkpt>
      <trkpt lat="42.20282" lon="-1.49905">
        <ele>310.68</ele>
        <time>2021-08-04T10:05:39Z</time>
      </trkpt>
      <trkpt lat="42.20357" lon="-1.49979">
        <ele>313.71</ele>
        <time>2021-08-04T10:05:48Z</time>
      </trkpt>
      <trkpt lat="42.20436" lon="-1.50055">
        <ele>316.76</ele>
        <time>2021-08-04T10:05:57Z</time>
      </trkpt>
      <trkpt lat="42.20504" lon="-1.50128">
        <ele>319.22</ele>
        <time>2021-08-04T10:06:07Z</time>
      </trkpt>
      <trkpt lat="42.20537" lon="-1.50174">
        <ele>317.4</ele>
        <time>2021-08-04T10:06:16Z</time>
      </trkpt>
      <trkpt lat="42.20557" lon="-1.50218">
        <ele>314.36</ele>
        <time>2021-08-04T10:06:24Z</time>
      </trkpt>
      <trkpt lat="42.20584" lon="-1.50275">
        <ele>311.31</ele>
        <time>2021-08-04T10:06:33Z</time>
      </trkpt>
      <trkpt lat="42.20634" lon="-1.50383">
        <ele>308.57</ele>
        <time>2021-08-04T10:06:43Z</time>
      </trkpt>
      <trkpt lat="42.20687" lon="-1.50495">
        <ele>305.46</ele>
        <time>2021-08-04T10:06:50Z</time>
      </trkpt>
      <trkpt lat="42.20722" lon="-1.50569">
        <ele>303.14</ele>
        <time>2021-08-04T10:06:55Z</time>
      </trkpt>
      <trkpt lat="42.20735" lon="-1.50666">
        <ele>301.32</ele>
        <time>2021-08-04T10:07:02Z</time>
      </trkpt>
      <trkpt lat="42.20723" lon="-1.50769">
        <ele>300.87</ele>
        <time>2021-08-04T10:07:11Z</time>
      </trkpt>
      <trkpt lat="42.20699" lon="-1.50853">
        <ele>302.08</ele>
        <time>2021-08-04T10:07:16Z</time>
      </trkpt>
      <trkpt lat="42.20698" lon="-1.50905">
        <ele>303.04</ele>
        <time>2021-08-04T10:07:19Z</time>
      </trkpt>
      <trkpt lat="42.20703" lon="-1.50922">
        <ele>303.44</ele>
        <time>2021-08-04T10:07:20Z</time>
      </trkpt>
      <trkpt lat="42.20753" lon="-1.51027">
        <ele>304.45</ele>
        <time>2021-08-04T10:07:28Z</time>
      </trkpt>
      <trkpt lat="42.20769" lon="-1.51062">
        <ele>303.36</ele>
        <time>2021-08-04T10:07:35Z</time>
      </trkpt>
      <trkpt lat="42.2081" lon="-1.5116">
        <ele>304.69</ele>
        <time>2021-08-04T10:07:44Z</time>
      </trkpt>
      <trkpt lat="42.20856" lon="-1.51274">
        <ele>302.8</ele>
        <time>2021-08-04T10:07:57Z</time>
      </trkpt>
      <trkpt lat="42.209" lon="-1.51381">
        <ele>301.08</ele>
        <time>2021-08-04T10:08:11Z</time>
      </trkpt>
      <trkpt lat="42.20939" lon="-1.51469">
        <ele>299.21</ele>
        <time>2021-08-04T10:08:27Z</time>
      </trkpt>
      <trkpt lat="42.20959" lon="-1.51495">
        <ele>298.52</ele>
        <time>2021-08-04T10:08:40Z</time>
      </trkpt>
      <trkpt lat="42.20972" lon="-1.51501">
        <ele>297.93</ele>
        <time>2021-08-04T10:08:50Z</time>
      </trkpt>
      <trkpt lat="42.20971" lon="-1.5152">
        <ele>296.93</ele>
        <time>2021-08-04T10:09:02Z</time>
      </trkpt>
      <trkpt lat="42.20971" lon="-1.51521">
        <ele>296.89</ele>
        <time>2021-08-04T10:09:03Z</time>
      </trkpt>
      <trkpt lat="42.2096" lon="-1.51542">
        <ele>295.58</ele>
        <time>2021-08-04T10:09:22Z</time>
      </trkpt>
      <trkpt lat="42.20956" lon="-1.51548">
        <ele>295.2</ele>
        <time>2021-08-04T10:09:43Z</time>
      </trkpt>
      <trkpt lat="42.20956" lon="-1.51549">
        <ele>295.11</ele>
        <time>2021-08-04T10:09:58Z</time>
      </trkpt>
      <trkpt lat="42.20957" lon="-1.51565">
        <ele>294.84</ele>
        <time>2021-08-04T10:10:10Z</time>
      </trkpt>
      <trkpt lat="42.20958" lon="-1.51565">
        <ele>295.09</ele>
        <time>2021-08-04T10:10:29Z</time>
      </trkpt>
      <trkpt lat="42.20956" lon="-1.51565">
        <ele>295.09</ele>
        <time>2021-08-04T10:10:49Z</time>
      </trkpt>
      <trkpt lat="42.20956" lon="-1.51569">
        <ele>294.31</ele>
        <time>2021-08-04T10:10:58Z</time>
      </trkpt>
      <trkpt lat="42.20959" lon="-1.51566">
        <ele>294.3</ele>
        <time>2021-08-04T10:11:12Z</time>
      </trkpt>
      <trkpt lat="42.20959" lon="-1.51566">
        <ele>295.33</ele>
        <time>2021-08-04T10:11:45Z</time>
      </trkpt>
      <trkpt lat="42.2096" lon="-1.51561">
        <ele>294.19</ele>
        <time>2021-08-04T10:19:29Z</time>
      </trkpt>
      <trkpt lat="42.20956" lon="-1.51565">
        <ele>294.19</ele>
        <time>2021-08-04T10:19:30Z</time>
      </trkpt>
      <trkpt lat="42.20957" lon="-1.51565">
        <ele>294.19</ele>
        <time>2021-08-04T10:19:51Z</time>
      </trkpt>
      <trkpt lat="42.20941" lon="-1.51567">
        <ele>292.6</ele>
        <time>2021-08-04T10:19:59Z</time>
      </trkpt>
      <trkpt lat="42.20908" lon="-1.5159">
        <ele>291.61</ele>
        <time>2021-08-04T10:20:08Z</time>
      </trkpt>
      <trkpt lat="42.20815" lon="-1.51602">
        <ele>291.45</ele>
        <time>2021-08-04T10:20:23Z</time>
      </trkpt>
      <trkpt lat="42.2069" lon="-1.51612">
        <ele>290.87</ele>
        <time>2021-08-04T10:20:39Z</time>
      </trkpt>
      <trkpt lat="42.20569" lon="-1.51605">
        <ele>290.52</ele>
        <time>2021-08-04T10:20:53Z</time>
      </trkpt>
      <trkpt lat="42.20513" lon="-1.51574">
        <ele>290.27</ele>
        <time>2021-08-04T10:21:00Z</time>
      </trkpt>
      <trkpt lat="42.20487" lon="-1.51544">
        <ele>290.15</ele>
        <time>2021-08-04T10:21:04Z</time>
      </trkpt>
      <trkpt lat="42.20466" lon="-1.51511">
        <ele>290.08</ele>
        <time>2021-08-04T10:21:08Z</time>
      </trkpt>
      <trkpt lat="42.20415" lon="-1.51501">
        <ele>289.96</ele>
        <time>2021-08-04T10:21:14Z</time>
      </trkpt>
      <trkpt lat="42.20291" lon="-1.51534">
        <ele>290</ele>
        <time>2021-08-04T10:21:29Z</time>
      </trkpt>
      <trkpt lat="42.20282" lon="-1.51539">
        <ele>289.98</ele>
        <time>2021-08-04T10:21:30Z</time>
      </trkpt>
      <trkpt lat="42.20233" lon="-1.51589">
        <ele>289.96</ele>
        <time>2021-08-04T10:21:37Z</time>
      </trkpt>
      <trkpt lat="42.20164" lon="-1.51621">
        <ele>289.34</ele>
        <time>2021-08-04T10:21:49Z</time>
      </trkpt>
      <trkpt lat="42.20082" lon="-1.51665">
        <ele>289.96</ele>
        <time>2021-08-04T10:22:00Z</time>
      </trkpt>
      <trkpt lat="42.20066" lon="-1.51674">
        <ele>290.03</ele>
        <time>2021-08-04T10:22:02Z</time>
      </trkpt>
      <trkpt lat="42.19953" lon="-1.51699">
        <ele>289.6</ele>
        <time>2021-08-04T10:22:15Z</time>
      </trkpt>
      <trkpt lat="42.19812" lon="-1.5175">
        <ele>289.44</ele>
        <time>2021-08-04T10:22:29Z</time>
      </trkpt>
      <trkpt lat="42.19625" lon="-1.51833">
        <ele>288.19</ele>
        <time>2021-08-04T10:22:47Z</time>
      </trkpt>
      <trkpt lat="42.19494" lon="-1.519">
        <ele>287.25</ele>
        <time>2021-08-04T10:23:00Z</time>
      </trkpt>
      <trkpt lat="42.19351" lon="-1.51969">
        <ele>286.81</ele>
        <time>2021-08-04T10:23:15Z</time>
      </trkpt>
      <trkpt lat="42.19213" lon="-1.52027">
        <ele>286.34</ele>
        <time>2021-08-04T10:23:29Z</time>
      </trkpt>
      <trkpt lat="42.19049" lon="-1.52032">
        <ele>285.22</ele>
        <time>2021-08-04T10:23:46Z</time>
      </trkpt>
      <trkpt lat="42.18944" lon="-1.52031">
        <ele>284.92</ele>
        <time>2021-08-04T10:23:57Z</time>
      </trkpt>
      <trkpt lat="42.18908" lon="-1.52046">
        <ele>284.9</ele>
        <time>2021-08-04T10:24:01Z</time>
      </trkpt>
      <trkpt lat="42.188" lon="-1.52122">
        <ele>285.7</ele>
        <time>2021-08-04T10:24:14Z</time>
      </trkpt>
      <trkpt lat="42.1873" lon="-1.52138">
        <ele>285.34</ele>
        <time>2021-08-04T10:24:23Z</time>
      </trkpt>
      <trkpt lat="42.18663" lon="-1.52141">
        <ele>285.32</ele>
        <time>2021-08-04T10:24:32Z</time>
      </trkpt>
      <trkpt lat="42.18622" lon="-1.52166">
        <ele>285.71</ele>
        <time>2021-08-04T10:24:37Z</time>
      </trkpt>
      <trkpt lat="42.18608" lon="-1.5218">
        <ele>285.89</ele>
        <time>2021-08-04T10:24:39Z</time>
      </trkpt>
      <trkpt lat="42.18557" lon="-1.52201">
        <ele>286.59</ele>
        <time>2021-08-04T10:24:46Z</time>
      </trkpt>
      <trkpt lat="42.18481" lon="-1.52184">
        <ele>286.41</ele>
        <time>2021-08-04T10:24:59Z</time>
      </trkpt>
      <trkpt lat="42.18389" lon="-1.52169">
        <ele>287.96</ele>
        <time>2021-08-04T10:25:13Z</time>
      </trkpt>
      <trkpt lat="42.18326" lon="-1.52191">
        <ele>289.19</ele>
        <time>2021-08-04T10:25:22Z</time>
      </trkpt>
      <trkpt lat="42.18253" lon="-1.52201">
        <ele>290.52</ele>
        <time>2021-08-04T10:25:32Z</time>
      </trkpt>
      <trkpt lat="42.18226" lon="-1.52189">
        <ele>291.13</ele>
        <time>2021-08-04T10:25:36Z</time>
      </trkpt>
      <trkpt lat="42.1812" lon="-1.52125">
        <ele>293.03</ele>
        <time>2021-08-04T10:25:48Z</time>
      </trkpt>
      <trkpt lat="42.18072" lon="-1.5211">
        <ele>294.51</ele>
        <time>2021-08-04T10:25:52Z</time>
      </trkpt>
      <trkpt lat="42.18024" lon="-1.52123">
        <ele>295.77</ele>
        <time>2021-08-04T10:25:56Z</time>
      </trkpt>
      <trkpt lat="42.17943" lon="-1.52186">
        <ele>298.92</ele>
        <time>2021-08-04T10:26:03Z</time>
      </trkpt>
      <trkpt lat="42.17903" lon="-1.52259">
        <ele>302.65</ele>
        <time>2021-08-04T10:26:09Z</time>
      </trkpt>
      <trkpt lat="42.179" lon="-1.52269">
        <ele>303.25</ele>
        <time>2021-08-04T10:26:10Z</time>
      </trkpt>
      <trkpt lat="42.17913" lon="-1.52326">
        <ele>306.94</ele>
        <time>2021-08-04T10:26:16Z</time>
      </trkpt>
      <trkpt lat="42.1792" lon="-1.52354">
        <ele>307.96</ele>
        <time>2021-08-04T10:26:18Z</time>
      </trkpt>
      <trkpt lat="42.17974" lon="-1.52526">
        <ele>311.57</ele>
        <time>2021-08-04T10:26:27Z</time>
      </trkpt>
      <trkpt lat="42.18024" lon="-1.52663">
        <ele>314.64</ele>
        <time>2021-08-04T10:26:34Z</time>
      </trkpt>
      <trkpt lat="42.18049" lon="-1.5273">
        <ele>316.17</ele>
        <time>2021-08-04T10:26:38Z</time>
      </trkpt>
      <trkpt lat="42.18083" lon="-1.52893">
        <ele>320</ele>
        <time>2021-08-04T10:26:46Z</time>
      </trkpt>
      <trkpt lat="42.18093" lon="-1.52949">
        <ele>321.43</ele>
        <time>2021-08-04T10:26:49Z</time>
      </trkpt>
      <trkpt lat="42.18075" lon="-1.53074">
        <ele>325.2</ele>
        <time>2021-08-04T10:26:56Z</time>
      </trkpt>
      <trkpt lat="42.17999" lon="-1.5322">
        <ele>325.1</ele>
        <time>2021-08-04T10:27:06Z</time>
      </trkpt>
      <trkpt lat="42.17957" lon="-1.53288">
        <ele>321.63</ele>
        <time>2021-08-04T10:27:13Z</time>
      </trkpt>
      <trkpt lat="42.1792" lon="-1.53332">
        <ele>318.59</ele>
        <time>2021-08-04T10:27:19Z</time>
      </trkpt>
      <trkpt lat="42.17891" lon="-1.53358">
        <ele>316.11</ele>
        <time>2021-08-04T10:27:25Z</time>
      </trkpt>
      <trkpt lat="42.17837" lon="-1.53364">
        <ele>315.04</ele>
        <time>2021-08-04T10:27:31Z</time>
      </trkpt>
      <trkpt lat="42.17794" lon="-1.53356">
        <ele>314.65</ele>
        <time>2021-08-04T10:27:35Z</time>
      </trkpt>
      <trkpt lat="42.17693" lon="-1.53389">
        <ele>314.71</ele>
        <time>2021-08-04T10:27:43Z</time>
      </trkpt>
      <trkpt lat="42.1762" lon="-1.53425">
        <ele>314.51</ele>
        <time>2021-08-04T10:27:49Z</time>
      </trkpt>
      <trkpt lat="42.17586" lon="-1.53476">
        <ele>313.77</ele>
        <time>2021-08-04T10:27:54Z</time>
      </trkpt>
      <trkpt lat="42.17579" lon="-1.53504">
        <ele>313.31</ele>
        <time>2021-08-04T10:27:56Z</time>
      </trkpt>
      <trkpt lat="42.17557" lon="-1.53561">
        <ele>312.19</ele>
        <time>2021-08-04T10:28:00Z</time>
      </trkpt>
      <trkpt lat="42.17546" lon="-1.53709">
        <ele>309.01</ele>
        <time>2021-08-04T10:28:08Z</time>
      </trkpt>
      <trkpt lat="42.17539" lon="-1.53792">
        <ele>305.89</ele>
        <time>2021-08-04T10:28:12Z</time>
      </trkpt>
      <trkpt lat="42.17529" lon="-1.53883">
        <ele>302.38</ele>
        <time>2021-08-04T10:28:16Z</time>
      </trkpt>
      <trkpt lat="42.17525" lon="-1.53926">
        <ele>300.51</ele>
        <time>2021-08-04T10:28:18Z</time>
      </trkpt>
      <trkpt lat="42.17538" lon="-1.53991">
        <ele>296.19</ele>
        <time>2021-08-04T10:28:22Z</time>
      </trkpt>
      <trkpt lat="42.17546" lon="-1.54003">
        <ele>294.99</ele>
        <time>2021-08-04T10:28:23Z</time>
      </trkpt>
      <trkpt lat="42.17577" lon="-1.54043">
        <ele>290.51</ele>
        <time>2021-08-04T10:28:27Z</time>
      </trkpt>
      <trkpt lat="42.17593" lon="-1.54066">
        <ele>287.18</ele>
        <time>2021-08-04T10:28:30Z</time>
      </trkpt>
      <trkpt lat="42.17612" lon="-1.54092">
        <ele>283.69</ele>
        <time>2021-08-04T10:28:34Z</time>
      </trkpt>
      <trkpt lat="42.17619" lon="-1.54103">
        <ele>280.62</ele>
        <time>2021-08-04T10:28:40Z</time>
      </trkpt>
      <trkpt lat="42.17637" lon="-1.54133">
        <ele>278.71</ele>
        <time>2021-08-04T10:28:52Z</time>
      </trkpt>
      <trkpt lat="42.17692" lon="-1.54211">
        <ele>278.76</ele>
        <time>2021-08-04T10:29:00Z</time>
      </trkpt>
      <trkpt lat="42.17711" lon="-1.54246">
        <ele>278.93</ele>
        <time>2021-08-04T10:29:03Z</time>
      </trkpt>
      <trkpt lat="42.17716" lon="-1.54259">
        <ele>278.98</ele>
        <time>2021-08-04T10:29:04Z</time>
      </trkpt>
      <trkpt lat="42.17719" lon="-1.54272">
        <ele>279.05</ele>
        <time>2021-08-04T10:29:05Z</time>
      </trkpt>
      <trkpt lat="42.1772" lon="-1.54285">
        <ele>279.15</ele>
        <time>2021-08-04T10:29:06Z</time>
      </trkpt>
      <trkpt lat="42.17721" lon="-1.54298">
        <ele>279.25</ele>
        <time>2021-08-04T10:29:07Z</time>
      </trkpt>
      <trkpt lat="42.17719" lon="-1.54312">
        <ele>279.3</ele>
        <time>2021-08-04T10:29:08Z</time>
      </trkpt>
      <trkpt lat="42.17717" lon="-1.54326">
        <ele>279.39</ele>
        <time>2021-08-04T10:29:09Z</time>
      </trkpt>
      <trkpt lat="42.17713" lon="-1.54341">
        <ele>279.45</ele>
        <time>2021-08-04T10:29:10Z</time>
      </trkpt>
      <trkpt lat="42.17708" lon="-1.54357">
        <ele>279.5</ele>
        <time>2021-08-04T10:29:11Z</time>
      </trkpt>
      <trkpt lat="42.17656" lon="-1.54509">
        <ele>280.44</ele>
        <time>2021-08-04T10:29:19Z</time>
      </trkpt>
      <trkpt lat="42.17626" lon="-1.5457">
        <ele>281</ele>
        <time>2021-08-04T10:29:22Z</time>
      </trkpt>
      <trkpt lat="42.17598" lon="-1.54686">
        <ele>282.12</ele>
        <time>2021-08-04T10:29:28Z</time>
      </trkpt>
      <trkpt lat="42.17546" lon="-1.54766">
        <ele>284.44</ele>
        <time>2021-08-04T10:29:34Z</time>
      </trkpt>
      <trkpt lat="42.17539" lon="-1.54781">
        <ele>284.92</ele>
        <time>2021-08-04T10:29:35Z</time>
      </trkpt>
      <trkpt lat="42.17461" lon="-1.54889">
        <ele>289.62</ele>
        <time>2021-08-04T10:29:43Z</time>
      </trkpt>
      <trkpt lat="42.17411" lon="-1.5495">
        <ele>291.78</ele>
        <time>2021-08-04T10:29:47Z</time>
      </trkpt>
      <trkpt lat="42.17378" lon="-1.5506">
        <ele>293.8</ele>
        <time>2021-08-04T10:29:53Z</time>
      </trkpt>
      <trkpt lat="42.17363" lon="-1.55097">
        <ele>294.72</ele>
        <time>2021-08-04T10:29:55Z</time>
      </trkpt>
      <trkpt lat="42.17346" lon="-1.5513">
        <ele>295.87</ele>
        <time>2021-08-04T10:29:57Z</time>
      </trkpt>
      <trkpt lat="42.17333" lon="-1.552">
        <ele>297.19</ele>
        <time>2021-08-04T10:30:01Z</time>
      </trkpt>
      <trkpt lat="42.17302" lon="-1.55324">
        <ele>299.19</ele>
        <time>2021-08-04T10:30:08Z</time>
      </trkpt>
      <trkpt lat="42.17251" lon="-1.55424">
        <ele>301.28</ele>
        <time>2021-08-04T10:30:14Z</time>
      </trkpt>
      <trkpt lat="42.17231" lon="-1.55515">
        <ele>302.67</ele>
        <time>2021-08-04T10:30:19Z</time>
      </trkpt>
      <trkpt lat="42.17172" lon="-1.55655">
        <ele>303.82</ele>
        <time>2021-08-04T10:30:27Z</time>
      </trkpt>
      <trkpt lat="42.17085" lon="-1.55764">
        <ele>304.89</ele>
        <time>2021-08-04T10:30:34Z</time>
      </trkpt>
      <trkpt lat="42.17014" lon="-1.55864">
        <ele>305.9</ele>
        <time>2021-08-04T10:30:40Z</time>
      </trkpt>
      <trkpt lat="42.17013" lon="-1.55888">
        <ele>306.06</ele>
        <time>2021-08-04T10:30:41Z</time>
      </trkpt>
      <trkpt lat="42.17016" lon="-1.55971">
        <ele>306.95</ele>
        <time>2021-08-04T10:30:45Z</time>
      </trkpt>
      <trkpt lat="42.16986" lon="-1.56051">
        <ele>307.41</ele>
        <time>2021-08-04T10:30:50Z</time>
      </trkpt>
      <trkpt lat="42.16959" lon="-1.56072">
        <ele>307.93</ele>
        <time>2021-08-04T10:30:52Z</time>
      </trkpt>
      <trkpt lat="42.16894" lon="-1.56107">
        <ele>308.96</ele>
        <time>2021-08-04T10:30:57Z</time>
      </trkpt>
      <trkpt lat="42.1683" lon="-1.56176">
        <ele>310.56</ele>
        <time>2021-08-04T10:31:05Z</time>
      </trkpt>
      <trkpt lat="42.16762" lon="-1.56294">
        <ele>310.97</ele>
        <time>2021-08-04T10:31:14Z</time>
      </trkpt>
      <trkpt lat="42.16658" lon="-1.56526">
        <ele>307.85</ele>
        <time>2021-08-04T10:31:28Z</time>
      </trkpt>
      <trkpt lat="42.16592" lon="-1.56663">
        <ele>304.68</ele>
        <time>2021-08-04T10:31:37Z</time>
      </trkpt>
      <trkpt lat="42.16492" lon="-1.56836">
        <ele>301.75</ele>
        <time>2021-08-04T10:31:48Z</time>
      </trkpt>
      <trkpt lat="42.16428" lon="-1.56947">
        <ele>298.29</ele>
        <time>2021-08-04T10:31:55Z</time>
      </trkpt>
      <trkpt lat="42.16412" lon="-1.5706">
        <ele>295.26</ele>
        <time>2021-08-04T10:32:01Z</time>
      </trkpt>
      <trkpt lat="42.16408" lon="-1.57153">
        <ele>292.87</ele>
        <time>2021-08-04T10:32:07Z</time>
      </trkpt>
      <trkpt lat="42.16411" lon="-1.57216">
        <ele>290.43</ele>
        <time>2021-08-04T10:32:11Z</time>
      </trkpt>
      <trkpt lat="42.16421" lon="-1.57269">
        <ele>287.67</ele>
        <time>2021-08-04T10:32:15Z</time>
      </trkpt>
      <trkpt lat="42.1642" lon="-1.57282">
        <ele>286.98</ele>
        <time>2021-08-04T10:32:16Z</time>
      </trkpt>
      <trkpt lat="42.16413" lon="-1.57297">
        <ele>286.34</ele>
        <time>2021-08-04T10:32:17Z</time>
      </trkpt>
      <trkpt lat="42.16407" lon="-1.57311">
        <ele>285.82</ele>
        <time>2021-08-04T10:32:18Z</time>
      </trkpt>
      <trkpt lat="42.16369" lon="-1.57425">
        <ele>282.2</ele>
        <time>2021-08-04T10:32:26Z</time>
      </trkpt>
      <trkpt lat="42.16377" lon="-1.57542">
        <ele>278.88</ele>
        <time>2021-08-04T10:32:33Z</time>
      </trkpt>
      <trkpt lat="42.1638" lon="-1.57556">
        <ele>278.2</ele>
        <time>2021-08-04T10:32:34Z</time>
      </trkpt>
      <trkpt lat="42.164" lon="-1.57594">
        <ele>276.16</ele>
        <time>2021-08-04T10:32:37Z</time>
      </trkpt>
      <trkpt lat="42.16423" lon="-1.57671">
        <ele>273.64</ele>
        <time>2021-08-04T10:32:42Z</time>
      </trkpt>
      <trkpt lat="42.16447" lon="-1.57721">
        <ele>271.84</ele>
        <time>2021-08-04T10:32:46Z</time>
      </trkpt>
      <trkpt lat="42.1654" lon="-1.57856">
        <ele>268.28</ele>
        <time>2021-08-04T10:32:59Z</time>
      </trkpt>
      <trkpt lat="42.16613" lon="-1.57964">
        <ele>268.33</ele>
        <time>2021-08-04T10:33:07Z</time>
      </trkpt>
      <trkpt lat="42.16778" lon="-1.58206">
        <ele>270.14</ele>
        <time>2021-08-04T10:33:23Z</time>
      </trkpt>
      <trkpt lat="42.16905" lon="-1.58403">
        <ele>268.62</ele>
        <time>2021-08-04T10:33:37Z</time>
      </trkpt>
      <trkpt lat="42.17006" lon="-1.58606">
        <ele>269.33</ele>
        <time>2021-08-04T10:33:50Z</time>
      </trkpt>
      <trkpt lat="42.17107" lon="-1.58805">
        <ele>270.74</ele>
        <time>2021-08-04T10:34:04Z</time>
      </trkpt>
      <trkpt lat="42.17169" lon="-1.58923">
        <ele>270.34</ele>
        <time>2021-08-04T10:34:14Z</time>
      </trkpt>
      <trkpt lat="42.17204" lon="-1.59067">
        <ele>268.77</ele>
        <time>2021-08-04T10:34:25Z</time>
      </trkpt>
      <trkpt lat="42.17213" lon="-1.59124">
        <ele>267.41</ele>
        <time>2021-08-04T10:34:33Z</time>
      </trkpt>
      <trkpt lat="42.17233" lon="-1.59158">
        <ele>265.67</ele>
        <time>2021-08-04T10:34:43Z</time>
      </trkpt>
      <trkpt lat="42.17281" lon="-1.59237">
        <ele>265.57</ele>
        <time>2021-08-04T10:34:54Z</time>
      </trkpt>
      <trkpt lat="42.17316" lon="-1.59295">
        <ele>265.59</ele>
        <time>2021-08-04T10:35:01Z</time>
      </trkpt>
      <trkpt lat="42.17372" lon="-1.59353">
        <ele>264.94</ele>
        <time>2021-08-04T10:35:13Z</time>
      </trkpt>
      <trkpt lat="42.17431" lon="-1.5942">
        <ele>265.18</ele>
        <time>2021-08-04T10:35:28Z</time>
      </trkpt>
      <trkpt lat="42.17471" lon="-1.59482">
        <ele>265.37</ele>
        <time>2021-08-04T10:35:40Z</time>
      </trkpt>
      <trkpt lat="42.1751" lon="-1.59542">
        <ele>265.89</ele>
        <time>2021-08-04T10:35:53Z</time>
      </trkpt>
      <trkpt lat="42.17549" lon="-1.59579">
        <ele>266</ele>
        <time>2021-08-04T10:36:04Z</time>
      </trkpt>
      <trkpt lat="42.1759" lon="-1.59603">
        <ele>266.47</ele>
        <time>2021-08-04T10:36:16Z</time>
      </trkpt>
      <trkpt lat="42.17631" lon="-1.59579">
        <ele>267.39</ele>
        <time>2021-08-04T10:36:26Z</time>
      </trkpt>
      <trkpt lat="42.17653" lon="-1.5959">
        <ele>268.49</ele>
        <time>2021-08-04T10:36:31Z</time>
      </trkpt>
      <trkpt lat="42.1768" lon="-1.59631">
        <ele>271.28</ele>
        <time>2021-08-04T10:36:41Z</time>
      </trkpt>
      <trkpt lat="42.17696" lon="-1.59637">
        <ele>272.5</ele>
        <time>2021-08-04T10:36:57Z</time>
      </trkpt>
      <trkpt lat="42.17724" lon="-1.59664">
        <ele>272.86</ele>
        <time>2021-08-04T10:37:06Z</time>
      </trkpt>
      <trkpt lat="42.17749" lon="-1.59662">
        <ele>273.1</ele>
        <time>2021-08-04T10:37:15Z</time>
      </trkpt>
      <trkpt lat="42.1775" lon="-1.59661">
        <ele>273.6</ele>
        <time>2021-08-04T10:37:26Z</time>
      </trkpt>
      <trkpt lat="42.1776" lon="-1.5962">
        <ele>274.63</ele>
        <time>2021-08-04T10:37:47Z</time>
      </trkpt>
      <trkpt lat="42.1776" lon="-1.59617">
        <ele>276.07</ele>
        <time>2021-08-04T10:38:07Z</time>
      </trkpt>
      <trkpt lat="42.17761" lon="-1.59616">
        <ele>276.45</ele>
        <time>2021-08-04T10:38:41Z</time>
      </trkpt>
      <trkpt lat="42.17766" lon="-1.59605">
        <ele>276.44</ele>
        <time>2021-08-04T10:38:52Z</time>
      </trkpt>
      <trkpt lat="42.17756" lon="-1.5963">
        <ele>276.29</ele>
        <time>2021-08-04T10:39:06Z</time>
      </trkpt>
      <trkpt lat="42.17756" lon="-1.59641">
        <ele>275.15</ele>
        <time>2021-08-04T10:39:20Z</time>
      </trkpt>
      <trkpt lat="42.17759" lon="-1.59635">
        <ele>274.51</ele>
        <time>2021-08-04T10:39:40Z</time>
      </trkpt>
      <trkpt lat="42.17759" lon="-1.59634">
        <ele>274.2</ele>
        <time>2021-08-04T10:40:04Z</time>
      </trkpt>
      <trkpt lat="42.17759" lon="-1.59634">
        <ele>273.63</ele>
        <time>2021-08-04T10:40:18Z</time>
      </trkpt>
      <trkpt lat="42.17759" lon="-1.59621">
        <ele>273.77</ele>
        <time>2021-08-04T10:40:29Z</time>
      </trkpt>
      <trkpt lat="42.17757" lon="-1.59624">
        <ele>273.91</ele>
        <time>2021-08-04T10:40:31Z</time>
      </trkpt>
      <trkpt lat="42.17751" lon="-1.59626">
        <ele>274.12</ele>
        <time>2021-08-04T10:40:35Z</time>
      </trkpt>
      <trkpt lat="42.17749" lon="-1.59625">
        <ele>275.5</ele>
        <time>2021-08-04T10:40:54Z</time>
      </trkpt>
      <trkpt lat="42.1775" lon="-1.59626">
        <ele>276.3</ele>
        <time>2021-08-04T10:41:51Z</time>
      </trkpt>
      <trkpt lat="42.17747" lon="-1.59647">
        <ele>276.2</ele>
        <time>2021-08-04T10:41:56Z</time>
      </trkpt>
      <trkpt lat="42.17726" lon="-1.59665">
        <ele>275.77</ele>
        <time>2021-08-04T10:42:04Z</time>
      </trkpt>
      <trkpt lat="42.17723" lon="-1.59662">
        <ele>275.74</ele>
        <time>2021-08-04T10:42:05Z</time>
      </trkpt>
      <trkpt lat="42.17694" lon="-1.59637">
        <ele>275.09</ele>
        <time>2021-08-04T10:42:15Z</time>
      </trkpt>
      <trkpt lat="42.17677" lon="-1.59622">
        <ele>274.2</ele>
        <time>2021-08-04T10:42:31Z</time>
      </trkpt>
      <trkpt lat="42.17664" lon="-1.596">
        <ele>273.9</ele>
        <time>2021-08-04T10:42:37Z</time>
      </trkpt>
      <trkpt lat="42.17637" lon="-1.59576">
        <ele>272.01</ele>
        <time>2021-08-04T10:42:46Z</time>
      </trkpt>
      <trkpt lat="42.17634" lon="-1.59579">
        <ele>270.48</ele>
        <time>2021-08-04T10:42:58Z</time>
      </trkpt>
      <trkpt lat="42.17627" lon="-1.59576">
        <ele>270.03</ele>
        <time>2021-08-04T10:43:03Z</time>
      </trkpt>
      <trkpt lat="42.17634" lon="-1.59583">
        <ele>269.48</ele>
        <time>2021-08-04T10:43:11Z</time>
      </trkpt>
      <trkpt lat="42.17649" lon="-1.59592">
        <ele>270.05</ele>
        <time>2021-08-04T10:43:18Z</time>
      </trkpt>
      <trkpt lat="42.17675" lon="-1.59626">
        <ele>271.36</ele>
        <time>2021-08-04T10:43:23Z</time>
      </trkpt>
      <trkpt lat="42.17707" lon="-1.59649">
        <ele>273.12</ele>
        <time>2021-08-04T10:43:28Z</time>
      </trkpt>
      <trkpt lat="42.17726" lon="-1.59667">
        <ele>273.68</ele>
        <time>2021-08-04T10:43:31Z</time>
      </trkpt>
      <trkpt lat="42.17754" lon="-1.59657">
        <ele>274.33</ele>
        <time>2021-08-04T10:43:37Z</time>
      </trkpt>
      <trkpt lat="42.17755" lon="-1.5965">
        <ele>274.35</ele>
        <time>2021-08-04T10:43:38Z</time>
      </trkpt>
      <trkpt lat="42.17772" lon="-1.59584">
        <ele>275.54</ele>
        <time>2021-08-04T10:43:48Z</time>
      </trkpt>
      <trkpt lat="42.17775" lon="-1.59522">
        <ele>279.28</ele>
        <time>2021-08-04T10:43:55Z</time>
      </trkpt>
      <trkpt lat="42.17767" lon="-1.59474">
        <ele>283.52</ele>
        <time>2021-08-04T10:44:01Z</time>
      </trkpt>
      <trkpt lat="42.17742" lon="-1.59454">
        <ele>287.01</ele>
        <time>2021-08-04T10:44:04Z</time>
      </trkpt>
      <trkpt lat="42.17702" lon="-1.59423">
        <ele>291.64</ele>
        <time>2021-08-04T10:44:08Z</time>
      </trkpt>
      <trkpt lat="42.1768" lon="-1.59394">
        <ele>295.4</ele>
        <time>2021-08-04T10:44:11Z</time>
      </trkpt>
      <trkpt lat="42.17675" lon="-1.59352">
        <ele>300.11</ele>
        <time>2021-08-04T10:44:15Z</time>
      </trkpt>
      <trkpt lat="42.17692" lon="-1.59326">
        <ele>303.63</ele>
        <time>2021-08-04T10:44:18Z</time>
      </trkpt>
      <trkpt lat="42.177" lon="-1.59318">
        <ele>304.69</ele>
        <time>2021-08-04T10:44:19Z</time>
      </trkpt>
      <trkpt lat="42.17722" lon="-1.59291">
        <ele>307.73</ele>
        <time>2021-08-04T10:44:22Z</time>
      </trkpt>
      <trkpt lat="42.17757" lon="-1.59264">
        <ele>311.99</ele>
        <time>2021-08-04T10:44:26Z</time>
      </trkpt>
      <trkpt lat="42.17771" lon="-1.59247">
        <ele>313.42</ele>
        <time>2021-08-04T10:44:28Z</time>
      </trkpt>
      <trkpt lat="42.17805" lon="-1.59193">
        <ele>317.36</ele>
        <time>2021-08-04T10:44:34Z</time>
      </trkpt>
      <trkpt lat="42.17815" lon="-1.59172">
        <ele>320.09</ele>
        <time>2021-08-04T10:44:41Z</time>
      </trkpt>
      <trkpt lat="42.17821" lon="-1.59165">
        <ele>320.91</ele>
        <time>2021-08-04T10:44:51Z</time>
      </trkpt>
      <trkpt lat="42.17823" lon="-1.5916">
        <ele>320.94</ele>
        <time>2021-08-04T10:44:52Z</time>
      </trkpt>
      <trkpt lat="42.17839" lon="-1.59123">
        <ele>321.53</ele>
        <time>2021-08-04T10:44:56Z</time>
      </trkpt>
      <trkpt lat="42.17882" lon="-1.59091">
        <ele>323.51</ele>
        <time>2021-08-04T10:45:01Z</time>
      </trkpt>
      <trkpt lat="42.17916" lon="-1.59082">
        <ele>325.93</ele>
        <time>2021-08-04T10:45:04Z</time>
      </trkpt>
      <trkpt lat="42.17966" lon="-1.59083">
        <ele>329.44</ele>
        <time>2021-08-04T10:45:08Z</time>
      </trkpt>
      <trkpt lat="42.18024" lon="-1.59054">
        <ele>333.97</ele>
        <time>2021-08-04T10:45:13Z</time>
      </trkpt>
      <trkpt lat="42.18081" lon="-1.5901">
        <ele>339.25</ele>
        <time>2021-08-04T10:45:19Z</time>
      </trkpt>
      <trkpt lat="42.1811" lon="-1.58991">
        <ele>342.19</ele>
        <time>2021-08-04T10:45:22Z</time>
      </trkpt>
      <trkpt lat="42.18141" lon="-1.58949">
        <ele>345.58</ele>
        <time>2021-08-04T10:45:26Z</time>
      </trkpt>
      <trkpt lat="42.18178" lon="-1.58867">
        <ele>349.95</ele>
        <time>2021-08-04T10:45:32Z</time>
      </trkpt>
      <trkpt lat="42.18198" lon="-1.58806">
        <ele>352.93</ele>
        <time>2021-08-04T10:45:37Z</time>
      </trkpt>
      <trkpt lat="42.18199" lon="-1.58794">
        <ele>353.36</ele>
        <time>2021-08-04T10:45:38Z</time>
      </trkpt>
      <trkpt lat="42.182" lon="-1.58771">
        <ele>354.42</ele>
        <time>2021-08-04T10:45:40Z</time>
      </trkpt>
      <trkpt lat="42.18218" lon="-1.58705">
        <ele>359.09</ele>
        <time>2021-08-04T10:45:47Z</time>
      </trkpt>
      <trkpt lat="42.18263" lon="-1.58686">
        <ele>362.07</ele>
        <time>2021-08-04T10:45:52Z</time>
      </trkpt>
      <trkpt lat="42.18367" lon="-1.58644">
        <ele>363.67</ele>
        <time>2021-08-04T10:46:02Z</time>
      </trkpt>
      <trkpt lat="42.18388" lon="-1.58631">
        <ele>364.02</ele>
        <time>2021-08-04T10:46:04Z</time>
      </trkpt>
      <trkpt lat="42.1846" lon="-1.58639">
        <ele>366.21</ele>
        <time>2021-08-04T10:46:11Z</time>
      </trkpt>
      <trkpt lat="42.18509" lon="-1.58619">
        <ele>368.72</ele>
        <time>2021-08-04T10:46:16Z</time>
      </trkpt>
      <trkpt lat="42.18555" lon="-1.58625">
        <ele>370.53</ele>
        <time>2021-08-04T10:46:21Z</time>
      </trkpt>
      <trkpt lat="42.18569" lon="-1.58661">
        <ele>372.76</ele>
        <time>2021-08-04T10:46:24Z</time>
      </trkpt>
      <trkpt lat="42.18613" lon="-1.58734">
        <ele>377.66</ele>
        <time>2021-08-04T10:46:30Z</time>
      </trkpt>
      <trkpt lat="42.18648" lon="-1.58774">
        <ele>381.01</ele>
        <time>2021-08-04T10:46:33Z</time>
      </trkpt>
      <trkpt lat="42.18682" lon="-1.58818">
        <ele>384.72</ele>
        <time>2021-08-04T10:46:36Z</time>
      </trkpt>
      <trkpt lat="42.18714" lon="-1.58859">
        <ele>387.85</ele>
        <time>2021-08-04T10:46:39Z</time>
      </trkpt>
      <trkpt lat="42.18724" lon="-1.5887">
        <ele>388.48</ele>
        <time>2021-08-04T10:46:40Z</time>
      </trkpt>
      <trkpt lat="42.18747" lon="-1.58883">
        <ele>389.14</ele>
        <time>2021-08-04T10:46:42Z</time>
      </trkpt>
      <trkpt lat="42.1884" lon="-1.58882">
        <ele>392.15</ele>
        <time>2021-08-04T10:46:49Z</time>
      </trkpt>
      <trkpt lat="42.18906" lon="-1.58872">
        <ele>395.44</ele>
        <time>2021-08-04T10:46:54Z</time>
      </trkpt>
      <trkpt lat="42.19012" lon="-1.58859">
        <ele>397.72</ele>
        <time>2021-08-04T10:47:03Z</time>
      </trkpt>
      <trkpt lat="42.19056" lon="-1.58835">
        <ele>399.37</ele>
        <time>2021-08-04T10:47:10Z</time>
      </trkpt>
      <trkpt lat="42.1906" lon="-1.58782">
        <ele>400.68</ele>
        <time>2021-08-04T10:47:15Z</time>
      </trkpt>
      <trkpt lat="42.19088" lon="-1.58785">
        <ele>401.22</ele>
        <time>2021-08-04T10:47:19Z</time>
      </trkpt>
      <trkpt lat="42.19094" lon="-1.58794">
        <ele>401.22</ele>
        <time>2021-08-04T10:47:20Z</time>
      </trkpt>
      <trkpt lat="42.19143" lon="-1.58833">
        <ele>401.94</ele>
        <time>2021-08-04T10:47:25Z</time>
      </trkpt>
      <trkpt lat="42.19278" lon="-1.58827">
        <ele>406.18</ele>
        <time>2021-08-04T10:47:33Z</time>
      </trkpt>
      <trkpt lat="42.19377" lon="-1.58815">
        <ele>409.26</ele>
        <time>2021-08-04T10:47:38Z</time>
      </trkpt>
      <trkpt lat="42.19459" lon="-1.58808">
        <ele>412.33</ele>
        <time>2021-08-04T10:47:42Z</time>
      </trkpt>
      <trkpt lat="42.19556" lon="-1.58805">
        <ele>415.44</ele>
        <time>2021-08-04T10:47:47Z</time>
      </trkpt>
      <trkpt lat="42.19668" lon="-1.5886">
        <ele>415.77</ele>
        <time>2021-08-04T10:47:53Z</time>
      </trkpt>
      <trkpt lat="42.19919" lon="-1.591">
        <ele>415.96</ele>
        <time>2021-08-04T10:48:06Z</time>
      </trkpt>
      <trkpt lat="42.20111" lon="-1.59347">
        <ele>416.42</ele>
        <time>2021-08-04T10:48:17Z</time>
      </trkpt>
      <trkpt lat="42.20162" lon="-1.59511">
        <ele>417.72</ele>
        <time>2021-08-04T10:48:23Z</time>
      </trkpt>
      <trkpt lat="42.20157" lon="-1.59603">
        <ele>418.72</ele>
        <time>2021-08-04T10:48:27Z</time>
      </trkpt>
      <trkpt lat="42.2016" lon="-1.59641">
        <ele>418.14</ele>
        <time>2021-08-04T10:48:32Z</time>
      </trkpt>
      <trkpt lat="42.20174" lon="-1.59644">
        <ele>416.28</ele>
        <time>2021-08-04T10:48:39Z</time>
      </trkpt>
      <trkpt lat="42.20187" lon="-1.5963">
        <ele>415.16</ele>
        <time>2021-08-04T10:48:49Z</time>
      </trkpt>
      <trkpt lat="42.2022" lon="-1.59588">
        <ele>414.93</ele>
        <time>2021-08-04T10:48:56Z</time>
      </trkpt>
      <trkpt lat="42.203" lon="-1.59467">
        <ele>414.74</ele>
        <time>2021-08-04T10:49:06Z</time>
      </trkpt>
      <trkpt lat="42.20389" lon="-1.5934">
        <ele>415.53</ele>
        <time>2021-08-04T10:49:16Z</time>
      </trkpt>
      <trkpt lat="42.20445" lon="-1.59257">
        <ele>418.8</ele>
        <time>2021-08-04T10:49:23Z</time>
      </trkpt>
      <trkpt lat="42.20491" lon="-1.59189">
        <ele>422.58</ele>
        <time>2021-08-04T10:49:28Z</time>
      </trkpt>
      <trkpt lat="42.20523" lon="-1.59127">
        <ele>425.6</ele>
        <time>2021-08-04T10:49:32Z</time>
      </trkpt>
      <trkpt lat="42.20547" lon="-1.59053">
        <ele>429.36</ele>
        <time>2021-08-04T10:49:37Z</time>
      </trkpt>
      <trkpt lat="42.20565" lon="-1.58991">
        <ele>433.14</ele>
        <time>2021-08-04T10:49:41Z</time>
      </trkpt>
      <trkpt lat="42.2058" lon="-1.58941">
        <ele>436.46</ele>
        <time>2021-08-04T10:49:44Z</time>
      </trkpt>
      <trkpt lat="42.20591" lon="-1.58886">
        <ele>439.64</ele>
        <time>2021-08-04T10:49:47Z</time>
      </trkpt>
      <trkpt lat="42.20604" lon="-1.58815">
        <ele>443.57</ele>
        <time>2021-08-04T10:49:51Z</time>
      </trkpt>
      <trkpt lat="42.20614" lon="-1.58765">
        <ele>446.97</ele>
        <time>2021-08-04T10:49:54Z</time>
      </trkpt>
      <trkpt lat="42.20627" lon="-1.58721">
        <ele>450.9</ele>
        <time>2021-08-04T10:49:57Z</time>
      </trkpt>
      <trkpt lat="42.20642" lon="-1.58681">
        <ele>453.94</ele>
        <time>2021-08-04T10:50:00Z</time>
      </trkpt>
      <trkpt lat="42.20647" lon="-1.58632">
        <ele>457.87</ele>
        <time>2021-08-04T10:50:04Z</time>
      </trkpt>
    </trkseg>
  </trk>
  <trk>
    <name><![CDATA[Jour 6_3]]></name>
    <trkseg>
      <trkpt lat="42.20694" lon="-1.58568">
        <ele>467.22</ele>
        <time>2021-08-04T10:59:54Z</time>
      </trkpt>
      <trkpt lat="42.20736" lon="-1.58559">
        <ele>465.2</ele>
        <time>2021-08-04T11:00:00Z</time>
      </trkpt>
      <trkpt lat="42.20786" lon="-1.58534">
        <ele>461.3</ele>
        <time>2021-08-04T11:00:06Z</time>
      </trkpt>
      <trkpt lat="42.20822" lon="-1.5852">
        <ele>457.85</ele>
        <time>2021-08-04T11:00:10Z</time>
      </trkpt>
      <trkpt lat="42.20853" lon="-1.58517">
        <ele>455.06</ele>
        <time>2021-08-04T11:00:13Z</time>
      </trkpt>
      <trkpt lat="42.20895" lon="-1.58498">
        <ele>450.72</ele>
        <time>2021-08-04T11:00:17Z</time>
      </trkpt>
      <trkpt lat="42.20913" lon="-1.58482">
        <ele>448.47</ele>
        <time>2021-08-04T11:00:19Z</time>
      </trkpt>
      <trkpt lat="42.20946" lon="-1.58447">
        <ele>443.94</ele>
        <time>2021-08-04T11:00:23Z</time>
      </trkpt>
      <trkpt lat="42.20972" lon="-1.58425">
        <ele>440.65</ele>
        <time>2021-08-04T11:00:26Z</time>
      </trkpt>
      <trkpt lat="42.21001" lon="-1.58405">
        <ele>437.52</ele>
        <time>2021-08-04T11:00:29Z</time>
      </trkpt>
      <trkpt lat="42.21032" lon="-1.58388">
        <ele>434.3</ele>
        <time>2021-08-04T11:00:32Z</time>
      </trkpt>
      <trkpt lat="42.21051" lon="-1.58379">
        <ele>432.45</ele>
        <time>2021-08-04T11:00:34Z</time>
      </trkpt>
      <trkpt lat="42.21083" lon="-1.58373">
        <ele>428.28</ele>
        <time>2021-08-04T11:00:37Z</time>
      </trkpt>
      <trkpt lat="42.21128" lon="-1.58372">
        <ele>424.41</ele>
        <time>2021-08-04T11:00:41Z</time>
      </trkpt>
      <trkpt lat="42.21158" lon="-1.58363">
        <ele>421.34</ele>
        <time>2021-08-04T11:00:44Z</time>
      </trkpt>
      <trkpt lat="42.21184" lon="-1.5835">
        <ele>418.7</ele>
        <time>2021-08-04T11:00:47Z</time>
      </trkpt>
      <trkpt lat="42.21233" lon="-1.58357">
        <ele>414.85</ele>
        <time>2021-08-04T11:00:52Z</time>
      </trkpt>
      <trkpt lat="42.21291" lon="-1.58379">
        <ele>410.96</ele>
        <time>2021-08-04T11:00:57Z</time>
      </trkpt>
      <trkpt lat="42.21334" lon="-1.58401">
        <ele>407.3</ele>
        <time>2021-08-04T11:01:01Z</time>
      </trkpt>
      <trkpt lat="42.21355" lon="-1.58411">
        <ele>405.53</ele>
        <time>2021-08-04T11:01:03Z</time>
      </trkpt>
      <trkpt lat="42.21409" lon="-1.58411">
        <ele>401.06</ele>
        <time>2021-08-04T11:01:09Z</time>
      </trkpt>
      <trkpt lat="42.21463" lon="-1.58417">
        <ele>397.62</ele>
        <time>2021-08-04T11:01:14Z</time>
      </trkpt>
      <trkpt lat="42.21524" lon="-1.58407">
        <ele>394.57</ele>
        <time>2021-08-04T11:01:19Z</time>
      </trkpt>
      <trkpt lat="42.21576" lon="-1.58381">
        <ele>391.57</ele>
        <time>2021-08-04T11:01:23Z</time>
      </trkpt>
      <trkpt lat="42.21626" lon="-1.58372">
        <ele>387.78</ele>
        <time>2021-08-04T11:01:27Z</time>
      </trkpt>
      <trkpt lat="42.21692" lon="-1.58387">
        <ele>383.62</ele>
        <time>2021-08-04T11:01:32Z</time>
      </trkpt>
      <trkpt lat="42.21759" lon="-1.584">
        <ele>380.14</ele>
        <time>2021-08-04T11:01:37Z</time>
      </trkpt>
      <trkpt lat="42.21827" lon="-1.58413">
        <ele>376.43</ele>
        <time>2021-08-04T11:01:42Z</time>
      </trkpt>
      <trkpt lat="42.2184" lon="-1.58415">
        <ele>375.51</ele>
        <time>2021-08-04T11:01:43Z</time>
      </trkpt>
      <trkpt lat="42.21911" lon="-1.58373">
        <ele>371.43</ele>
        <time>2021-08-04T11:01:49Z</time>
      </trkpt>
      <trkpt lat="42.2196" lon="-1.58312">
        <ele>367.75</ele>
        <time>2021-08-04T11:01:54Z</time>
      </trkpt>
      <trkpt lat="42.21971" lon="-1.58302">
        <ele>367.02</ele>
        <time>2021-08-04T11:01:55Z</time>
      </trkpt>
      <trkpt lat="42.22038" lon="-1.58268">
        <ele>362.95</ele>
        <time>2021-08-04T11:02:01Z</time>
      </trkpt>
      <trkpt lat="42.22108" lon="-1.58229">
        <ele>359.89</ele>
        <time>2021-08-04T11:02:08Z</time>
      </trkpt>
      <trkpt lat="42.22188" lon="-1.58186">
        <ele>359.98</ele>
        <time>2021-08-04T11:02:14Z</time>
      </trkpt>
      <trkpt lat="42.22265" lon="-1.581">
        <ele>362.8</ele>
        <time>2021-08-04T11:02:21Z</time>
      </trkpt>
      <trkpt lat="42.22335" lon="-1.58041">
        <ele>366.82</ele>
        <time>2021-08-04T11:02:27Z</time>
      </trkpt>
      <trkpt lat="42.22347" lon="-1.58031">
        <ele>367.54</ele>
        <time>2021-08-04T11:02:28Z</time>
      </trkpt>
      <trkpt lat="42.22416" lon="-1.57941">
        <ele>371.66</ele>
        <time>2021-08-04T11:02:35Z</time>
      </trkpt>
      <trkpt lat="42.22485" lon="-1.57891">
        <ele>375.05</ele>
        <time>2021-08-04T11:02:42Z</time>
      </trkpt>
      <trkpt lat="42.22529" lon="-1.57842">
        <ele>374.96</ele>
        <time>2021-08-04T11:02:47Z</time>
      </trkpt>
      <trkpt lat="42.2263" lon="-1.5777">
        <ele>371.49</ele>
        <time>2021-08-04T11:02:56Z</time>
      </trkpt>
      <trkpt lat="42.22696" lon="-1.57731">
        <ele>368.17</ele>
        <time>2021-08-04T11:03:02Z</time>
      </trkpt>
      <trkpt lat="42.22756" lon="-1.57747">
        <ele>365.1</ele>
        <time>2021-08-04T11:03:07Z</time>
      </trkpt>
      <trkpt lat="42.22791" lon="-1.57767">
        <ele>363</ele>
        <time>2021-08-04T11:03:10Z</time>
      </trkpt>
      <trkpt lat="42.22828" lon="-1.57777">
        <ele>360.92</ele>
        <time>2021-08-04T11:03:13Z</time>
      </trkpt>
      <trkpt lat="42.22873" lon="-1.57806">
        <ele>358.59</ele>
        <time>2021-08-04T11:03:17Z</time>
      </trkpt>
      <trkpt lat="42.22952" lon="-1.57837">
        <ele>354.9</ele>
        <time>2021-08-04T11:03:23Z</time>
      </trkpt>
      <trkpt lat="42.23105" lon="-1.57845">
        <ele>351.23</ele>
        <time>2021-08-04T11:03:34Z</time>
      </trkpt>
      <trkpt lat="42.2323" lon="-1.57848">
        <ele>348.13</ele>
        <time>2021-08-04T11:03:44Z</time>
      </trkpt>
      <trkpt lat="42.23364" lon="-1.57851">
        <ele>346.09</ele>
        <time>2021-08-04T11:03:53Z</time>
      </trkpt>
      <trkpt lat="42.23568" lon="-1.57845">
        <ele>344.05</ele>
        <time>2021-08-04T11:04:05Z</time>
      </trkpt>
      <trkpt lat="42.2371" lon="-1.57805">
        <ele>342.39</ele>
        <time>2021-08-04T11:04:14Z</time>
      </trkpt>
      <trkpt lat="42.23819" lon="-1.57813">
        <ele>341.49</ele>
        <time>2021-08-04T11:04:21Z</time>
      </trkpt>
      <trkpt lat="42.23953" lon="-1.578">
        <ele>341.12</ele>
        <time>2021-08-04T11:04:29Z</time>
      </trkpt>
      <trkpt lat="42.24099" lon="-1.57782">
        <ele>341.14</ele>
        <time>2021-08-04T11:04:37Z</time>
      </trkpt>
      <trkpt lat="42.24257" lon="-1.57774">
        <ele>341.49</ele>
        <time>2021-08-04T11:04:45Z</time>
      </trkpt>
      <trkpt lat="42.24414" lon="-1.57784">
        <ele>340.25</ele>
        <time>2021-08-04T11:04:55Z</time>
      </trkpt>
      <trkpt lat="42.24498" lon="-1.57776">
        <ele>340.11</ele>
        <time>2021-08-04T11:05:00Z</time>
      </trkpt>
      <trkpt lat="42.2462" lon="-1.57721">
        <ele>341.57</ele>
        <time>2021-08-04T11:05:08Z</time>
      </trkpt>
      <trkpt lat="42.24713" lon="-1.57699">
        <ele>343.83</ele>
        <time>2021-08-04T11:05:15Z</time>
      </trkpt>
      <trkpt lat="42.24785" lon="-1.5769">
        <ele>346.32</ele>
        <time>2021-08-04T11:05:21Z</time>
      </trkpt>
      <trkpt lat="42.24798" lon="-1.57687">
        <ele>346.51</ele>
        <time>2021-08-04T11:05:22Z</time>
      </trkpt>
      <trkpt lat="42.24962" lon="-1.57597">
        <ele>346.15</ele>
        <time>2021-08-04T11:05:34Z</time>
      </trkpt>
      <trkpt lat="42.25045" lon="-1.57553">
        <ele>344.72</ele>
        <time>2021-08-04T11:05:41Z</time>
      </trkpt>
      <trkpt lat="42.2518" lon="-1.57533">
        <ele>344.24</ele>
        <time>2021-08-04T11:05:51Z</time>
      </trkpt>
      <trkpt lat="42.25335" lon="-1.57519">
        <ele>347.37</ele>
        <time>2021-08-04T11:06:03Z</time>
      </trkpt>
      <trkpt lat="42.25392" lon="-1.57514">
        <ele>350.47</ele>
        <time>2021-08-04T11:06:08Z</time>
      </trkpt>
      <trkpt lat="42.25449" lon="-1.57508">
        <ele>354.09</ele>
        <time>2021-08-04T11:06:13Z</time>
      </trkpt>
      <trkpt lat="42.25499" lon="-1.57502">
        <ele>357.22</ele>
        <time>2021-08-04T11:06:17Z</time>
      </trkpt>
      <trkpt lat="42.25563" lon="-1.57495">
        <ele>360.5</ele>
        <time>2021-08-04T11:06:22Z</time>
      </trkpt>
      <trkpt lat="42.25641" lon="-1.57485">
        <ele>364.03</ele>
        <time>2021-08-04T11:06:28Z</time>
      </trkpt>
      <trkpt lat="42.25736" lon="-1.57476">
        <ele>367.65</ele>
        <time>2021-08-04T11:06:35Z</time>
      </trkpt>
      <trkpt lat="42.25787" lon="-1.5747">
        <ele>370.62</ele>
        <time>2021-08-04T11:06:39Z</time>
      </trkpt>
      <trkpt lat="42.2584" lon="-1.57486">
        <ele>374.51</ele>
        <time>2021-08-04T11:06:43Z</time>
      </trkpt>
      <trkpt lat="42.25865" lon="-1.57507">
        <ele>376.79</ele>
        <time>2021-08-04T11:06:45Z</time>
      </trkpt>
      <trkpt lat="42.25923" lon="-1.57531">
        <ele>381.66</ele>
        <time>2021-08-04T11:06:49Z</time>
      </trkpt>
      <trkpt lat="42.25968" lon="-1.57533">
        <ele>386</ele>
        <time>2021-08-04T11:06:52Z</time>
      </trkpt>
      <trkpt lat="42.25981" lon="-1.5753">
        <ele>387.48</ele>
        <time>2021-08-04T11:06:53Z</time>
      </trkpt>
      <trkpt lat="42.25995" lon="-1.57523">
        <ele>388.97</ele>
        <time>2021-08-04T11:06:54Z</time>
      </trkpt>
      <trkpt lat="42.26007" lon="-1.57515">
        <ele>390.5</ele>
        <time>2021-08-04T11:06:55Z</time>
      </trkpt>
      <trkpt lat="42.26019" lon="-1.57504">
        <ele>392.15</ele>
        <time>2021-08-04T11:06:56Z</time>
      </trkpt>
      <trkpt lat="42.26041" lon="-1.57486">
        <ele>395.5</ele>
        <time>2021-08-04T11:06:58Z</time>
      </trkpt>
      <trkpt lat="42.2609" lon="-1.57479">
        <ele>401.48</ele>
        <time>2021-08-04T11:07:02Z</time>
      </trkpt>
      <trkpt lat="42.26115" lon="-1.5749">
        <ele>403.93</ele>
        <time>2021-08-04T11:07:04Z</time>
      </trkpt>
      <trkpt lat="42.2614" lon="-1.57502">
        <ele>405.88</ele>
        <time>2021-08-04T11:07:06Z</time>
      </trkpt>
      <trkpt lat="42.26195" lon="-1.5751">
        <ele>408.65</ele>
        <time>2021-08-04T11:07:10Z</time>
      </trkpt>
      <trkpt lat="42.26325" lon="-1.57498">
        <ele>409.66</ele>
        <time>2021-08-04T11:07:19Z</time>
      </trkpt>
      <trkpt lat="42.26457" lon="-1.57507">
        <ele>409.04</ele>
        <time>2021-08-04T11:07:28Z</time>
      </trkpt>
      <trkpt lat="42.26515" lon="-1.57509">
        <ele>408.82</ele>
        <time>2021-08-04T11:07:32Z</time>
      </trkpt>
      <trkpt lat="42.26587" lon="-1.57533">
        <ele>408.52</ele>
        <time>2021-08-04T11:07:37Z</time>
      </trkpt>
      <trkpt lat="42.26615" lon="-1.57554">
        <ele>408.42</ele>
        <time>2021-08-04T11:07:39Z</time>
      </trkpt>
      <trkpt lat="42.26727" lon="-1.57577">
        <ele>407.64</ele>
        <time>2021-08-04T11:07:46Z</time>
      </trkpt>
      <trkpt lat="42.26775" lon="-1.57564">
        <ele>407.14</ele>
        <time>2021-08-04T11:07:49Z</time>
      </trkpt>
      <trkpt lat="42.26881" lon="-1.57534">
        <ele>404.6</ele>
        <time>2021-08-04T11:07:58Z</time>
      </trkpt>
      <trkpt lat="42.26954" lon="-1.57527">
        <ele>403.34</ele>
        <time>2021-08-04T11:08:04Z</time>
      </trkpt>
      <trkpt lat="42.27012" lon="-1.57531">
        <ele>402.73</ele>
        <time>2021-08-04T11:08:09Z</time>
      </trkpt>
      <trkpt lat="42.27068" lon="-1.57508">
        <ele>401.3</ele>
        <time>2021-08-04T11:08:14Z</time>
      </trkpt>
      <trkpt lat="42.27172" lon="-1.57499">
        <ele>399.98</ele>
        <time>2021-08-04T11:08:22Z</time>
      </trkpt>
      <trkpt lat="42.27302" lon="-1.57497">
        <ele>400.75</ele>
        <time>2021-08-04T11:08:30Z</time>
      </trkpt>
      <trkpt lat="42.2736" lon="-1.57549">
        <ele>401.06</ele>
        <time>2021-08-04T11:08:35Z</time>
      </trkpt>
      <trkpt lat="42.27421" lon="-1.5759">
        <ele>402.39</ele>
        <time>2021-08-04T11:08:39Z</time>
      </trkpt>
      <trkpt lat="42.27474" lon="-1.57616">
        <ele>402.76</ele>
        <time>2021-08-04T11:08:42Z</time>
      </trkpt>
      <trkpt lat="42.27587" lon="-1.57639">
        <ele>403.41</ele>
        <time>2021-08-04T11:08:48Z</time>
      </trkpt>
      <trkpt lat="42.27685" lon="-1.57667">
        <ele>403.74</ele>
        <time>2021-08-04T11:08:54Z</time>
      </trkpt>
      <trkpt lat="42.27748" lon="-1.57693">
        <ele>400.55</ele>
        <time>2021-08-04T11:08:59Z</time>
      </trkpt>
      <trkpt lat="42.2782" lon="-1.57723">
        <ele>397.44</ele>
        <time>2021-08-04T11:09:06Z</time>
      </trkpt>
      <trkpt lat="42.27878" lon="-1.57755">
        <ele>393.94</ele>
        <time>2021-08-04T11:09:13Z</time>
      </trkpt>
      <trkpt lat="42.27967" lon="-1.57807">
        <ele>391.13</ele>
        <time>2021-08-04T11:09:22Z</time>
      </trkpt>
      <trkpt lat="42.28082" lon="-1.57894">
        <ele>393.47</ele>
        <time>2021-08-04T11:09:29Z</time>
      </trkpt>
      <trkpt lat="42.28111" lon="-1.57922">
        <ele>394.14</ele>
        <time>2021-08-04T11:09:31Z</time>
      </trkpt>
      <trkpt lat="42.28125" lon="-1.57939">
        <ele>394.25</ele>
        <time>2021-08-04T11:09:32Z</time>
      </trkpt>
      <trkpt lat="42.28198" lon="-1.58044">
        <ele>392.47</ele>
        <time>2021-08-04T11:09:38Z</time>
      </trkpt>
      <trkpt lat="42.28283" lon="-1.58103">
        <ele>390.06</ele>
        <time>2021-08-04T11:09:43Z</time>
      </trkpt>
      <trkpt lat="42.28345" lon="-1.58188">
        <ele>389.33</ele>
        <time>2021-08-04T11:09:48Z</time>
      </trkpt>
      <trkpt lat="42.2843" lon="-1.58376">
        <ele>386.29</ele>
        <time>2021-08-04T11:09:57Z</time>
      </trkpt>
      <trkpt lat="42.28459" lon="-1.5841">
        <ele>383.81</ele>
        <time>2021-08-04T11:10:00Z</time>
      </trkpt>
      <trkpt lat="42.28501" lon="-1.58478">
        <ele>379.3</ele>
        <time>2021-08-04T11:10:05Z</time>
      </trkpt>
      <trkpt lat="42.28544" lon="-1.58656">
        <ele>376.02</ele>
        <time>2021-08-04T11:10:15Z</time>
      </trkpt>
      <trkpt lat="42.28566" lon="-1.58712">
        <ele>374.81</ele>
        <time>2021-08-04T11:10:19Z</time>
      </trkpt>
      <trkpt lat="42.28584" lon="-1.58771">
        <ele>373.87</ele>
        <time>2021-08-04T11:10:23Z</time>
      </trkpt>
      <trkpt lat="42.28603" lon="-1.5889">
        <ele>372.98</ele>
        <time>2021-08-04T11:10:32Z</time>
      </trkpt>
      <trkpt lat="42.28603" lon="-1.58931">
        <ele>373.46</ele>
        <time>2021-08-04T11:10:38Z</time>
      </trkpt>
      <trkpt lat="42.28605" lon="-1.58934">
        <ele>373.52</ele>
        <time>2021-08-04T11:10:39Z</time>
      </trkpt>
      <trkpt lat="42.28607" lon="-1.58936">
        <ele>373.56</ele>
        <time>2021-08-04T11:10:40Z</time>
      </trkpt>
      <trkpt lat="42.28608" lon="-1.58938">
        <ele>373.56</ele>
        <time>2021-08-04T11:10:41Z</time>
      </trkpt>
      <trkpt lat="42.2861" lon="-1.58939">
        <ele>373.58</ele>
        <time>2021-08-04T11:10:42Z</time>
      </trkpt>
      <trkpt lat="42.28638" lon="-1.58958">
        <ele>373.85</ele>
        <time>2021-08-04T11:10:47Z</time>
      </trkpt>
      <trkpt lat="42.28713" lon="-1.59036">
        <ele>375</ele>
        <time>2021-08-04T11:10:55Z</time>
      </trkpt>
      <trkpt lat="42.28817" lon="-1.59144">
        <ele>377.63</ele>
        <time>2021-08-04T11:11:05Z</time>
      </trkpt>
      <trkpt lat="42.28877" lon="-1.5915">
        <ele>378.81</ele>
        <time>2021-08-04T11:11:12Z</time>
      </trkpt>
      <trkpt lat="42.2889" lon="-1.5914">
        <ele>378.86</ele>
        <time>2021-08-04T11:11:15Z</time>
      </trkpt>
      <trkpt lat="42.28923" lon="-1.59113">
        <ele>378.87</ele>
        <time>2021-08-04T11:11:20Z</time>
      </trkpt>
      <trkpt lat="42.29047" lon="-1.59062">
        <ele>379.07</ele>
        <time>2021-08-04T11:11:32Z</time>
      </trkpt>
      <trkpt lat="42.29086" lon="-1.59044">
        <ele>379.2</ele>
        <time>2021-08-04T11:11:36Z</time>
      </trkpt>
      <trkpt lat="42.29121" lon="-1.58983">
        <ele>379.08</ele>
        <time>2021-08-04T11:11:42Z</time>
      </trkpt>
      <trkpt lat="42.29149" lon="-1.5883">
        <ele>378.68</ele>
        <time>2021-08-04T11:11:55Z</time>
      </trkpt>
      <trkpt lat="42.2915" lon="-1.58819">
        <ele>378.66</ele>
        <time>2021-08-04T11:11:56Z</time>
      </trkpt>
      <trkpt lat="42.2919" lon="-1.5879">
        <ele>378.58</ele>
        <time>2021-08-04T11:12:03Z</time>
      </trkpt>
      <trkpt lat="42.29291" lon="-1.58807">
        <ele>378.74</ele>
        <time>2021-08-04T11:12:14Z</time>
      </trkpt>
      <trkpt lat="42.29376" lon="-1.58764">
        <ele>378.8</ele>
        <time>2021-08-04T11:12:24Z</time>
      </trkpt>
      <trkpt lat="42.294" lon="-1.5875">
        <ele>378.91</ele>
        <time>2021-08-04T11:12:27Z</time>
      </trkpt>
      <trkpt lat="42.29427" lon="-1.58694">
        <ele>378.89</ele>
        <time>2021-08-04T11:12:33Z</time>
      </trkpt>
      <trkpt lat="42.2943" lon="-1.58659">
        <ele>378.77</ele>
        <time>2021-08-04T11:12:36Z</time>
      </trkpt>
      <trkpt lat="42.29474" lon="-1.58615">
        <ele>378.75</ele>
        <time>2021-08-04T11:12:43Z</time>
      </trkpt>
      <trkpt lat="42.29494" lon="-1.58617">
        <ele>378.83</ele>
        <time>2021-08-04T11:12:45Z</time>
      </trkpt>
      <trkpt lat="42.2952" lon="-1.58613">
        <ele>379.12</ele>
        <time>2021-08-04T11:12:48Z</time>
      </trkpt>
      <trkpt lat="42.29559" lon="-1.58643">
        <ele>379.2</ele>
        <time>2021-08-04T11:12:53Z</time>
      </trkpt>
      <trkpt lat="42.29599" lon="-1.58669">
        <ele>379.2</ele>
        <time>2021-08-04T11:12:58Z</time>
      </trkpt>
      <trkpt lat="42.29653" lon="-1.58665">
        <ele>379.39</ele>
        <time>2021-08-04T11:13:05Z</time>
      </trkpt>
      <trkpt lat="42.29659" lon="-1.58661">
        <ele>379.36</ele>
        <time>2021-08-04T11:13:06Z</time>
      </trkpt>
      <trkpt lat="42.29663" lon="-1.58655">
        <ele>379.35</ele>
        <time>2021-08-04T11:13:07Z</time>
      </trkpt>
      <trkpt lat="42.2967" lon="-1.5861">
        <ele>379.35</ele>
        <time>2021-08-04T11:13:11Z</time>
      </trkpt>
      <trkpt lat="42.29666" lon="-1.58551">
        <ele>379.47</ele>
        <time>2021-08-04T11:13:15Z</time>
      </trkpt>
      <trkpt lat="42.29676" lon="-1.58489">
        <ele>379.66</ele>
        <time>2021-08-04T11:13:19Z</time>
      </trkpt>
      <trkpt lat="42.29768" lon="-1.5823">
        <ele>380.6</ele>
        <time>2021-08-04T11:13:34Z</time>
      </trkpt>
      <trkpt lat="42.29778" lon="-1.58202">
        <ele>380.64</ele>
        <time>2021-08-04T11:13:36Z</time>
      </trkpt>
      <trkpt lat="42.29822" lon="-1.58164">
        <ele>380.19</ele>
        <time>2021-08-04T11:13:41Z</time>
      </trkpt>
      <trkpt lat="42.29849" lon="-1.58147">
        <ele>379.32</ele>
        <time>2021-08-04T11:13:48Z</time>
      </trkpt>
      <trkpt lat="42.2986" lon="-1.58051">
        <ele>378.45</ele>
        <time>2021-08-04T11:13:59Z</time>
      </trkpt>
      <trkpt lat="42.29862" lon="-1.57994">
        <ele>378.74</ele>
        <time>2021-08-04T11:14:04Z</time>
      </trkpt>
      <trkpt lat="42.29855" lon="-1.5795">
        <ele>378.91</ele>
        <time>2021-08-04T11:14:08Z</time>
      </trkpt>
      <trkpt lat="42.29874" lon="-1.57904">
        <ele>378.91</ele>
        <time>2021-08-04T11:14:14Z</time>
      </trkpt>
      <trkpt lat="42.29884" lon="-1.57904">
        <ele>378.91</ele>
        <time>2021-08-04T11:14:15Z</time>
      </trkpt>
      <trkpt lat="42.29904" lon="-1.57901">
        <ele>378.96</ele>
        <time>2021-08-04T11:14:17Z</time>
      </trkpt>
      <trkpt lat="42.29953" lon="-1.57871">
        <ele>379.69</ele>
        <time>2021-08-04T11:14:22Z</time>
      </trkpt>
      <trkpt lat="42.29985" lon="-1.57835">
        <ele>380.23</ele>
        <time>2021-08-04T11:14:26Z</time>
      </trkpt>
      <trkpt lat="42.29999" lon="-1.57773">
        <ele>380.35</ele>
        <time>2021-08-04T11:14:31Z</time>
      </trkpt>
      <trkpt lat="42.29997" lon="-1.57718">
        <ele>380.33</ele>
        <time>2021-08-04T11:14:35Z</time>
      </trkpt>
      <trkpt lat="42.30019" lon="-1.57667">
        <ele>380.23</ele>
        <time>2021-08-04T11:14:40Z</time>
      </trkpt>
      <trkpt lat="42.30092" lon="-1.57595">
        <ele>380.98</ele>
        <time>2021-08-04T11:14:47Z</time>
      </trkpt>
      <trkpt lat="42.30139" lon="-1.57557">
        <ele>381.24</ele>
        <time>2021-08-04T11:14:51Z</time>
      </trkpt>
      <trkpt lat="42.30169" lon="-1.57486">
        <ele>381.16</ele>
        <time>2021-08-04T11:14:56Z</time>
      </trkpt>
      <trkpt lat="42.30221" lon="-1.57419">
        <ele>380.36</ele>
        <time>2021-08-04T11:15:03Z</time>
      </trkpt>
      <trkpt lat="42.30244" lon="-1.57414">
        <ele>380.22</ele>
        <time>2021-08-04T11:15:05Z</time>
      </trkpt>
      <trkpt lat="42.30287" lon="-1.57358">
        <ele>379.95</ele>
        <time>2021-08-04T11:15:11Z</time>
      </trkpt>
      <trkpt lat="42.30309" lon="-1.57272">
        <ele>379.46</ele>
        <time>2021-08-04T11:15:18Z</time>
      </trkpt>
      <trkpt lat="42.30304" lon="-1.57157">
        <ele>379.35</ele>
        <time>2021-08-04T11:15:25Z</time>
      </trkpt>
      <trkpt lat="42.30279" lon="-1.56936">
        <ele>379.74</ele>
        <time>2021-08-04T11:15:38Z</time>
      </trkpt>
      <trkpt lat="42.30276" lon="-1.56911">
        <ele>379.73</ele>
        <time>2021-08-04T11:15:40Z</time>
      </trkpt>
      <trkpt lat="42.30283" lon="-1.56865">
        <ele>379.63</ele>
        <time>2021-08-04T11:15:44Z</time>
      </trkpt>
      <trkpt lat="42.30289" lon="-1.56785">
        <ele>379.52</ele>
        <time>2021-08-04T11:15:50Z</time>
      </trkpt>
      <trkpt lat="42.30327" lon="-1.5673">
        <ele>379.52</ele>
        <time>2021-08-04T11:15:55Z</time>
      </trkpt>
      <trkpt lat="42.30415" lon="-1.56678">
        <ele>380.2</ele>
        <time>2021-08-04T11:16:03Z</time>
      </trkpt>
      <trkpt lat="42.30435" lon="-1.56676">
        <ele>380.27</ele>
        <time>2021-08-04T11:16:05Z</time>
      </trkpt>
      <trkpt lat="42.30474" lon="-1.56616">
        <ele>379.58</ele>
        <time>2021-08-04T11:16:12Z</time>
      </trkpt>
      <trkpt lat="42.30471" lon="-1.56601">
        <ele>379.49</ele>
        <time>2021-08-04T11:16:13Z</time>
      </trkpt>
      <trkpt lat="42.30455" lon="-1.56522">
        <ele>379.32</ele>
        <time>2021-08-04T11:16:19Z</time>
      </trkpt>
      <trkpt lat="42.30484" lon="-1.56473">
        <ele>379.38</ele>
        <time>2021-08-04T11:16:25Z</time>
      </trkpt>
      <trkpt lat="42.30536" lon="-1.56425">
        <ele>379.39</ele>
        <time>2021-08-04T11:16:32Z</time>
      </trkpt>
      <trkpt lat="42.30541" lon="-1.56387">
        <ele>379.28</ele>
        <time>2021-08-04T11:16:35Z</time>
      </trkpt>
      <trkpt lat="42.30536" lon="-1.56188">
        <ele>379.58</ele>
        <time>2021-08-04T11:16:47Z</time>
      </trkpt>
      <trkpt lat="42.30536" lon="-1.56175">
        <ele>379.58</ele>
        <time>2021-08-04T11:16:48Z</time>
      </trkpt>
      <trkpt lat="42.30554" lon="-1.5613">
        <ele>379.27</ele>
        <time>2021-08-04T11:16:54Z</time>
      </trkpt>
      <trkpt lat="42.30619" lon="-1.56078">
        <ele>379.06</ele>
        <time>2021-08-04T11:17:02Z</time>
      </trkpt>
      <trkpt lat="42.30725" lon="-1.56001">
        <ele>379.31</ele>
        <time>2021-08-04T11:17:12Z</time>
      </trkpt>
      <trkpt lat="42.30767" lon="-1.56">
        <ele>379.22</ele>
        <time>2021-08-04T11:17:16Z</time>
      </trkpt>
      <trkpt lat="42.30797" lon="-1.56012">
        <ele>379.19</ele>
        <time>2021-08-04T11:17:19Z</time>
      </trkpt>
      <trkpt lat="42.30861" lon="-1.55979">
        <ele>379.32</ele>
        <time>2021-08-04T11:17:26Z</time>
      </trkpt>
      <trkpt lat="42.30866" lon="-1.55966">
        <ele>379.33</ele>
        <time>2021-08-04T11:17:27Z</time>
      </trkpt>
      <trkpt lat="42.30923" lon="-1.55858">
        <ele>379.21</ele>
        <time>2021-08-04T11:17:36Z</time>
      </trkpt>
      <trkpt lat="42.30933" lon="-1.55815">
        <ele>379.18</ele>
        <time>2021-08-04T11:17:40Z</time>
      </trkpt>
      <trkpt lat="42.30945" lon="-1.55677">
        <ele>379.36</ele>
        <time>2021-08-04T11:17:49Z</time>
      </trkpt>
      <trkpt lat="42.30961" lon="-1.55519">
        <ele>378.95</ele>
        <time>2021-08-04T11:18:00Z</time>
      </trkpt>
      <trkpt lat="42.31003" lon="-1.55468">
        <ele>378.74</ele>
        <time>2021-08-04T11:18:06Z</time>
      </trkpt>
      <trkpt lat="42.31014" lon="-1.55467">
        <ele>378.77</ele>
        <time>2021-08-04T11:18:07Z</time>
      </trkpt>
      <trkpt lat="42.31077" lon="-1.55469">
        <ele>378.73</ele>
        <time>2021-08-04T11:18:15Z</time>
      </trkpt>
      <trkpt lat="42.31103" lon="-1.55502">
        <ele>378.57</ele>
        <time>2021-08-04T11:18:21Z</time>
      </trkpt>
      <trkpt lat="42.31151" lon="-1.55505">
        <ele>378.47</ele>
        <time>2021-08-04T11:18:26Z</time>
      </trkpt>
      <trkpt lat="42.3116" lon="-1.555">
        <ele>378.4</ele>
        <time>2021-08-04T11:18:27Z</time>
      </trkpt>
      <trkpt lat="42.31223" lon="-1.55466">
        <ele>377.68</ele>
        <time>2021-08-04T11:18:36Z</time>
      </trkpt>
      <trkpt lat="42.31316" lon="-1.55459">
        <ele>377.26</ele>
        <time>2021-08-04T11:18:47Z</time>
      </trkpt>
      <trkpt lat="42.3133" lon="-1.55459">
        <ele>377.2</ele>
        <time>2021-08-04T11:18:49Z</time>
      </trkpt>
      <trkpt lat="42.31376" lon="-1.55486">
        <ele>377.16</ele>
        <time>2021-08-04T11:18:55Z</time>
      </trkpt>
      <trkpt lat="42.31462" lon="-1.55583">
        <ele>375.19</ele>
        <time>2021-08-04T11:19:08Z</time>
      </trkpt>
      <trkpt lat="42.31554" lon="-1.55643">
        <ele>372.6</ele>
        <time>2021-08-04T11:19:22Z</time>
      </trkpt>
      <trkpt lat="42.31562" lon="-1.55647">
        <ele>372.42</ele>
        <time>2021-08-04T11:19:23Z</time>
      </trkpt>
      <trkpt lat="42.31646" lon="-1.5565">
        <ele>369.88</ele>
        <time>2021-08-04T11:19:32Z</time>
      </trkpt>
      <trkpt lat="42.31696" lon="-1.55651">
        <ele>368.19</ele>
        <time>2021-08-04T11:19:37Z</time>
      </trkpt>
      <trkpt lat="42.31801" lon="-1.55688">
        <ele>364.76</ele>
        <time>2021-08-04T11:19:47Z</time>
      </trkpt>
      <trkpt lat="42.31966" lon="-1.55742">
        <ele>362</ele>
        <time>2021-08-04T11:20:02Z</time>
      </trkpt>
      <trkpt lat="42.31987" lon="-1.55752">
        <ele>361.52</ele>
        <time>2021-08-04T11:20:04Z</time>
      </trkpt>
      <trkpt lat="42.32023" lon="-1.55795">
        <ele>360.61</ele>
        <time>2021-08-04T11:20:08Z</time>
      </trkpt>
      <trkpt lat="42.32058" lon="-1.55867">
        <ele>359.87</ele>
        <time>2021-08-04T11:20:13Z</time>
      </trkpt>
      <trkpt lat="42.32054" lon="-1.55945">
        <ele>358.82</ele>
        <time>2021-08-04T11:20:18Z</time>
      </trkpt>
      <trkpt lat="42.32047" lon="-1.5596">
        <ele>358.68</ele>
        <time>2021-08-04T11:20:19Z</time>
      </trkpt>
      <trkpt lat="42.31967" lon="-1.56112">
        <ele>357.95</ele>
        <time>2021-08-04T11:20:31Z</time>
      </trkpt>
      <trkpt lat="42.31909" lon="-1.56225">
        <ele>360.31</ele>
        <time>2021-08-04T11:20:42Z</time>
      </trkpt>
      <trkpt lat="42.31859" lon="-1.56326">
        <ele>360.37</ele>
        <time>2021-08-04T11:20:52Z</time>
      </trkpt>
      <trkpt lat="42.31818" lon="-1.56437">
        <ele>359.6</ele>
        <time>2021-08-04T11:21:02Z</time>
      </trkpt>
      <trkpt lat="42.31788" lon="-1.56525">
        <ele>356.18</ele>
        <time>2021-08-04T11:21:12Z</time>
      </trkpt>
      <trkpt lat="42.31777" lon="-1.56568">
        <ele>352.93</ele>
        <time>2021-08-04T11:21:20Z</time>
      </trkpt>
      <trkpt lat="42.31792" lon="-1.56621">
        <ele>350.71</ele>
        <time>2021-08-04T11:21:32Z</time>
      </trkpt>
      <trkpt lat="42.31815" lon="-1.56684">
        <ele>350.07</ele>
        <time>2021-08-04T11:21:43Z</time>
      </trkpt>
      <trkpt lat="42.3184" lon="-1.56749">
        <ele>349.46</ele>
        <time>2021-08-04T11:21:52Z</time>
      </trkpt>
      <trkpt lat="42.31851" lon="-1.56796">
        <ele>349.07</ele>
        <time>2021-08-04T11:22:00Z</time>
      </trkpt>
      <trkpt lat="42.31849" lon="-1.56838">
        <ele>348.73</ele>
        <time>2021-08-04T11:22:08Z</time>
      </trkpt>
      <trkpt lat="42.31849" lon="-1.56839">
        <ele>348.3</ele>
        <time>2021-08-04T11:22:17Z</time>
      </trkpt>
      <trkpt lat="42.31866" lon="-1.5686">
        <ele>348.33</ele>
        <time>2021-08-04T11:22:22Z</time>
      </trkpt>
      <trkpt lat="42.31952" lon="-1.56912">
        <ele>348.43</ele>
        <time>2021-08-04T11:22:34Z</time>
      </trkpt>
      <trkpt lat="42.32034" lon="-1.56966">
        <ele>349.13</ele>
        <time>2021-08-04T11:22:48Z</time>
      </trkpt>
      <trkpt lat="42.32018" lon="-1.57023">
        <ele>348.81</ele>
        <time>2021-08-04T11:22:56Z</time>
      </trkpt>
      <trkpt lat="42.31983" lon="-1.57122">
        <ele>347.5</ele>
        <time>2021-08-04T11:23:07Z</time>
      </trkpt>
      <trkpt lat="42.31967" lon="-1.57171">
        <ele>347.16</ele>
        <time>2021-08-04T11:23:12Z</time>
      </trkpt>
      <trkpt lat="42.31966" lon="-1.57233">
        <ele>346.67</ele>
        <time>2021-08-04T11:23:18Z</time>
      </trkpt>
      <trkpt lat="42.31977" lon="-1.57336">
        <ele>345.55</ele>
        <time>2021-08-04T11:23:30Z</time>
      </trkpt>
      <trkpt lat="42.31982" lon="-1.57399">
        <ele>344.32</ele>
        <time>2021-08-04T11:23:40Z</time>
      </trkpt>
      <trkpt lat="42.31986" lon="-1.57414">
        <ele>343.68</ele>
        <time>2021-08-04T11:23:48Z</time>
      </trkpt>
      <trkpt lat="42.31987" lon="-1.57417">
        <ele>343.63</ele>
        <time>2021-08-04T11:23:49Z</time>
      </trkpt>
      <trkpt lat="42.32" lon="-1.5742">
        <ele>343.34</ele>
        <time>2021-08-04T11:23:53Z</time>
      </trkpt>
      <trkpt lat="42.32048" lon="-1.57408">
        <ele>342.89</ele>
        <time>2021-08-04T11:24:02Z</time>
      </trkpt>
      <trkpt lat="42.32078" lon="-1.57407">
        <ele>342.4</ele>
        <time>2021-08-04T11:24:16Z</time>
      </trkpt>
      <trkpt lat="42.32079" lon="-1.5741">
        <ele>342.44</ele>
        <time>2021-08-04T11:24:35Z</time>
      </trkpt>
      <trkpt lat="42.32079" lon="-1.5741">
        <ele>342.78</ele>
        <time>2021-08-04T11:25:10Z</time>
      </trkpt>
      <trkpt lat="42.32086" lon="-1.5741">
        <ele>342.64</ele>
        <time>2021-08-04T11:35:04Z</time>
      </trkpt>
      <trkpt lat="42.32085" lon="-1.5741">
        <ele>342.64</ele>
        <time>2021-08-04T11:35:25Z</time>
      </trkpt>
      <trkpt lat="42.32082" lon="-1.57406">
        <ele>342.64</ele>
        <time>2021-08-04T11:35:29Z</time>
      </trkpt>
      <trkpt lat="42.32096" lon="-1.57399">
        <ele>341.04</ele>
        <time>2021-08-04T11:35:33Z</time>
      </trkpt>
      <trkpt lat="42.32129" lon="-1.57412">
        <ele>341.13</ele>
        <time>2021-08-04T11:35:39Z</time>
      </trkpt>
      <trkpt lat="42.3218" lon="-1.5751">
        <ele>342.06</ele>
        <time>2021-08-04T11:35:47Z</time>
      </trkpt>
      <trkpt lat="42.32254" lon="-1.57611">
        <ele>342.99</ele>
        <time>2021-08-04T11:35:55Z</time>
      </trkpt>
      <trkpt lat="42.32395" lon="-1.57742">
        <ele>340.66</ele>
        <time>2021-08-04T11:36:05Z</time>
      </trkpt>
      <trkpt lat="42.32611" lon="-1.57941">
        <ele>338.35</ele>
        <time>2021-08-04T11:36:19Z</time>
      </trkpt>
      <trkpt lat="42.32839" lon="-1.58148">
        <ele>338.55</ele>
        <time>2021-08-04T11:36:33Z</time>
      </trkpt>
      <trkpt lat="42.33117" lon="-1.58403">
        <ele>335.76</ele>
        <time>2021-08-04T11:36:49Z</time>
      </trkpt>
      <trkpt lat="42.33233" lon="-1.58535">
        <ele>332.88</ele>
        <time>2021-08-04T11:36:57Z</time>
      </trkpt>
      <trkpt lat="42.33356" lon="-1.58737">
        <ele>333.47</ele>
        <time>2021-08-04T11:37:07Z</time>
      </trkpt>
      <trkpt lat="42.33475" lon="-1.58929">
        <ele>334.62</ele>
        <time>2021-08-04T11:37:16Z</time>
      </trkpt>
      <trkpt lat="42.33637" lon="-1.59071">
        <ele>334.65</ele>
        <time>2021-08-04T11:37:26Z</time>
      </trkpt>
      <trkpt lat="42.33789" lon="-1.59196">
        <ele>332.89</ele>
        <time>2021-08-04T11:37:37Z</time>
      </trkpt>
      <trkpt lat="42.33833" lon="-1.59233">
        <ele>331.05</ele>
        <time>2021-08-04T11:37:43Z</time>
      </trkpt>
      <trkpt lat="42.33844" lon="-1.5924">
        <ele>329.5</ele>
        <time>2021-08-04T11:37:48Z</time>
      </trkpt>
      <trkpt lat="42.33859" lon="-1.59228">
        <ele>328.91</ele>
        <time>2021-08-04T11:37:52Z</time>
      </trkpt>
      <trkpt lat="42.33926" lon="-1.59152">
        <ele>329.68</ele>
        <time>2021-08-04T11:38:00Z</time>
      </trkpt>
      <trkpt lat="42.34" lon="-1.5908">
        <ele>333.23</ele>
        <time>2021-08-04T11:38:06Z</time>
      </trkpt>
      <trkpt lat="42.34013" lon="-1.59067">
        <ele>333.99</ele>
        <time>2021-08-04T11:38:07Z</time>
      </trkpt>
      <trkpt lat="42.34049" lon="-1.58966">
        <ele>337.75</ele>
        <time>2021-08-04T11:38:12Z</time>
      </trkpt>
      <trkpt lat="42.34058" lon="-1.58897">
        <ele>340.29</ele>
        <time>2021-08-04T11:38:15Z</time>
      </trkpt>
      <trkpt lat="42.34099" lon="-1.58788">
        <ele>344.46</ele>
        <time>2021-08-04T11:38:20Z</time>
      </trkpt>
      <trkpt lat="42.34159" lon="-1.58675">
        <ele>348.17</ele>
        <time>2021-08-04T11:38:25Z</time>
      </trkpt>
      <trkpt lat="42.3427" lon="-1.5847">
        <ele>351.21</ele>
        <time>2021-08-04T11:38:34Z</time>
      </trkpt>
      <trkpt lat="42.34471" lon="-1.58096">
        <ele>351.86</ele>
        <time>2021-08-04T11:38:50Z</time>
      </trkpt>
      <trkpt lat="42.34695" lon="-1.57679">
        <ele>354.92</ele>
        <time>2021-08-04T11:39:08Z</time>
      </trkpt>
      <trkpt lat="42.34899" lon="-1.57299">
        <ele>356.11</ele>
        <time>2021-08-04T11:39:24Z</time>
      </trkpt>
      <trkpt lat="42.35059" lon="-1.57002">
        <ele>356.19</ele>
        <time>2021-08-04T11:39:38Z</time>
      </trkpt>
      <trkpt lat="42.35201" lon="-1.56714">
        <ele>356.24</ele>
        <time>2021-08-04T11:39:52Z</time>
      </trkpt>
      <trkpt lat="42.35301" lon="-1.56514">
        <ele>352.76</ele>
        <time>2021-08-04T11:40:01Z</time>
      </trkpt>
      <trkpt lat="42.35368" lon="-1.56395">
        <ele>349.13</ele>
        <time>2021-08-04T11:40:06Z</time>
      </trkpt>
      <trkpt lat="42.35415" lon="-1.56295">
        <ele>345.36</ele>
        <time>2021-08-04T11:40:10Z</time>
      </trkpt>
      <trkpt lat="42.35459" lon="-1.56192">
        <ele>342.46</ele>
        <time>2021-08-04T11:40:14Z</time>
      </trkpt>
      <trkpt lat="42.35485" lon="-1.56047">
        <ele>342.37</ele>
        <time>2021-08-04T11:40:19Z</time>
      </trkpt>
      <trkpt lat="42.3552" lon="-1.5594">
        <ele>343.52</ele>
        <time>2021-08-04T11:40:23Z</time>
      </trkpt>
      <trkpt lat="42.356" lon="-1.55768">
        <ele>347.23</ele>
        <time>2021-08-04T11:40:30Z</time>
      </trkpt>
      <trkpt lat="42.3565" lon="-1.55617">
        <ele>348.83</ele>
        <time>2021-08-04T11:40:37Z</time>
      </trkpt>
      <trkpt lat="42.35692" lon="-1.55486">
        <ele>348.27</ele>
        <time>2021-08-04T11:40:46Z</time>
      </trkpt>
      <trkpt lat="42.35744" lon="-1.55327">
        <ele>347.25</ele>
        <time>2021-08-04T11:41:01Z</time>
      </trkpt>
      <trkpt lat="42.35798" lon="-1.55164">
        <ele>347.93</ele>
        <time>2021-08-04T11:41:15Z</time>
      </trkpt>
      <trkpt lat="42.35849" lon="-1.55006">
        <ele>347.67</ele>
        <time>2021-08-04T11:41:30Z</time>
      </trkpt>
      <trkpt lat="42.35893" lon="-1.54854">
        <ele>347.78</ele>
        <time>2021-08-04T11:41:44Z</time>
      </trkpt>
      <trkpt lat="42.35928" lon="-1.5475">
        <ele>348.13</ele>
        <time>2021-08-04T11:41:53Z</time>
      </trkpt>
      <trkpt lat="42.35971" lon="-1.54711">
        <ele>347.96</ele>
        <time>2021-08-04T11:41:59Z</time>
      </trkpt>
      <trkpt lat="42.36011" lon="-1.54698">
        <ele>346.95</ele>
        <time>2021-08-04T11:42:03Z</time>
      </trkpt>
      <trkpt lat="42.36051" lon="-1.54669">
        <ele>344.95</ele>
        <time>2021-08-04T11:42:07Z</time>
      </trkpt>
      <trkpt lat="42.36084" lon="-1.54622">
        <ele>341.09</ele>
        <time>2021-08-04T11:42:13Z</time>
      </trkpt>
      <trkpt lat="42.36102" lon="-1.54589">
        <ele>337.82</ele>
        <time>2021-08-04T11:42:19Z</time>
      </trkpt>
      <trkpt lat="42.36128" lon="-1.54506">
        <ele>335.3</ele>
        <time>2021-08-04T11:42:26Z</time>
      </trkpt>
      <trkpt lat="42.36162" lon="-1.54345">
        <ele>332.69</ele>
        <time>2021-08-04T11:42:33Z</time>
      </trkpt>
      <trkpt lat="42.36175" lon="-1.54292">
        <ele>332</ele>
        <time>2021-08-04T11:42:35Z</time>
      </trkpt>
      <trkpt lat="42.36247" lon="-1.54131">
        <ele>329.45</ele>
        <time>2021-08-04T11:42:42Z</time>
      </trkpt>
      <trkpt lat="42.36262" lon="-1.54027">
        <ele>328.15</ele>
        <time>2021-08-04T11:42:46Z</time>
      </trkpt>
      <trkpt lat="42.36247" lon="-1.53683">
        <ele>326.27</ele>
        <time>2021-08-04T11:43:00Z</time>
      </trkpt>
      <trkpt lat="42.36246" lon="-1.53321">
        <ele>327.6</ele>
        <time>2021-08-04T11:43:14Z</time>
      </trkpt>
      <trkpt lat="42.36271" lon="-1.52903">
        <ele>328.67</ele>
        <time>2021-08-04T11:43:29Z</time>
      </trkpt>
      <trkpt lat="42.36314" lon="-1.52593">
        <ele>329.34</ele>
        <time>2021-08-04T11:43:40Z</time>
      </trkpt>
      <trkpt lat="42.36398" lon="-1.52257">
        <ele>329.4</ele>
        <time>2021-08-04T11:43:53Z</time>
      </trkpt>
      <trkpt lat="42.36448" lon="-1.51882">
        <ele>329.85</ele>
        <time>2021-08-04T11:44:07Z</time>
      </trkpt>
      <trkpt lat="42.36496" lon="-1.51456">
        <ele>330.87</ele>
        <time>2021-08-04T11:44:23Z</time>
      </trkpt>
      <trkpt lat="42.36541" lon="-1.50915">
        <ele>332.25</ele>
        <time>2021-08-04T11:44:43Z</time>
      </trkpt>
      <trkpt lat="42.36593" lon="-1.50298">
        <ele>335.38</ele>
        <time>2021-08-04T11:45:05Z</time>
      </trkpt>
      <trkpt lat="42.3661" lon="-1.49822">
        <ele>338.04</ele>
        <time>2021-08-04T11:45:21Z</time>
      </trkpt>
      <trkpt lat="42.3663" lon="-1.49322">
        <ele>337.71</ele>
        <time>2021-08-04T11:45:38Z</time>
      </trkpt>
      <trkpt lat="42.36681" lon="-1.48763">
        <ele>338.61</ele>
        <time>2021-08-04T11:45:58Z</time>
      </trkpt>
      <trkpt lat="42.3675" lon="-1.48549">
        <ele>339.03</ele>
        <time>2021-08-04T11:46:07Z</time>
      </trkpt>
      <trkpt lat="42.36849" lon="-1.48248">
        <ele>341.37</ele>
        <time>2021-08-04T11:46:19Z</time>
      </trkpt>
      <trkpt lat="42.36985" lon="-1.47658">
        <ele>343.04</ele>
        <time>2021-08-04T11:46:41Z</time>
      </trkpt>
      <trkpt lat="42.37056" lon="-1.47292">
        <ele>343.08</ele>
        <time>2021-08-04T11:46:55Z</time>
      </trkpt>
      <trkpt lat="42.3705" lon="-1.47071">
        <ele>342.94</ele>
        <time>2021-08-04T11:47:04Z</time>
      </trkpt>
      <trkpt lat="42.37029" lon="-1.46802">
        <ele>343.89</ele>
        <time>2021-08-04T11:47:15Z</time>
      </trkpt>
      <trkpt lat="42.37066" lon="-1.46528">
        <ele>345.18</ele>
        <time>2021-08-04T11:47:26Z</time>
      </trkpt>
      <trkpt lat="42.37123" lon="-1.46167">
        <ele>346.45</ele>
        <time>2021-08-04T11:47:40Z</time>
      </trkpt>
      <trkpt lat="42.37176" lon="-1.45823">
        <ele>346.42</ele>
        <time>2021-08-04T11:47:54Z</time>
      </trkpt>
      <trkpt lat="42.37243" lon="-1.45674">
        <ele>346.3</ele>
        <time>2021-08-04T11:48:02Z</time>
      </trkpt>
      <trkpt lat="42.37283" lon="-1.45623">
        <ele>345.99</ele>
        <time>2021-08-04T11:48:06Z</time>
      </trkpt>
      <trkpt lat="42.37353" lon="-1.45459">
        <ele>346.1</ele>
        <time>2021-08-04T11:48:14Z</time>
      </trkpt>
      <trkpt lat="42.37499" lon="-1.45084">
        <ele>347.69</ele>
        <time>2021-08-04T11:48:29Z</time>
      </trkpt>
      <trkpt lat="42.3756" lon="-1.44924">
        <ele>347.12</ele>
        <time>2021-08-04T11:48:37Z</time>
      </trkpt>
      <trkpt lat="42.37593" lon="-1.44849">
        <ele>345.57</ele>
        <time>2021-08-04T11:48:44Z</time>
      </trkpt>
      <trkpt lat="42.37697" lon="-1.44731">
        <ele>345.35</ele>
        <time>2021-08-04T11:48:56Z</time>
      </trkpt>
      <trkpt lat="42.37774" lon="-1.44642">
        <ele>345.91</ele>
        <time>2021-08-04T11:49:05Z</time>
      </trkpt>
      <trkpt lat="42.37812" lon="-1.44616">
        <ele>346.25</ele>
        <time>2021-08-04T11:49:10Z</time>
      </trkpt>
      <trkpt lat="42.37841" lon="-1.44613">
        <ele>346.92</ele>
        <time>2021-08-04T11:49:14Z</time>
      </trkpt>
      <trkpt lat="42.37877" lon="-1.44617">
        <ele>349.72</ele>
        <time>2021-08-04T11:49:24Z</time>
      </trkpt>
      <trkpt lat="42.37875" lon="-1.44592">
        <ele>350.52</ele>
        <time>2021-08-04T11:49:30Z</time>
      </trkpt>
      <trkpt lat="42.37864" lon="-1.44565">
        <ele>351.02</ele>
        <time>2021-08-04T11:49:33Z</time>
      </trkpt>
      <trkpt lat="42.37846" lon="-1.44445">
        <ele>352.43</ele>
        <time>2021-08-04T11:49:44Z</time>
      </trkpt>
      <trkpt lat="42.37833" lon="-1.44331">
        <ele>353.97</ele>
        <time>2021-08-04T11:49:54Z</time>
      </trkpt>
      <trkpt lat="42.37813" lon="-1.44202">
        <ele>355.28</ele>
        <time>2021-08-04T11:50:04Z</time>
      </trkpt>
      <trkpt lat="42.37803" lon="-1.44146">
        <ele>356.47</ele>
        <time>2021-08-04T11:50:13Z</time>
      </trkpt>
      <trkpt lat="42.37791" lon="-1.44074">
        <ele>358.3</ele>
        <time>2021-08-04T11:50:25Z</time>
      </trkpt>
      <trkpt lat="42.37779" lon="-1.43984">
        <ele>360.48</ele>
        <time>2021-08-04T11:50:39Z</time>
      </trkpt>
      <trkpt lat="42.3778" lon="-1.4398">
        <ele>361.64</ele>
        <time>2021-08-04T11:50:47Z</time>
      </trkpt>
      <trkpt lat="42.37778" lon="-1.43969">
        <ele>362.04</ele>
        <time>2021-08-04T11:50:57Z</time>
      </trkpt>
      <trkpt lat="42.37778" lon="-1.43969">
        <ele>362.13</ele>
        <time>2021-08-04T11:51:04Z</time>
      </trkpt>
      <trkpt lat="42.37785" lon="-1.43973">
        <ele>362.25</ele>
        <time>2021-08-04T11:51:13Z</time>
      </trkpt>
      <trkpt lat="42.37785" lon="-1.44002">
        <ele>362.75</ele>
        <time>2021-08-04T11:51:18Z</time>
      </trkpt>
      <trkpt lat="42.37807" lon="-1.44144">
        <ele>362.61</ele>
        <time>2021-08-04T11:51:27Z</time>
      </trkpt>
      <trkpt lat="42.37818" lon="-1.44225">
        <ele>360.69</ele>
        <time>2021-08-04T11:51:34Z</time>
      </trkpt>
      <trkpt lat="42.37821" lon="-1.44245">
        <ele>360.01</ele>
        <time>2021-08-04T11:51:36Z</time>
      </trkpt>
      <trkpt lat="42.37821" lon="-1.44274">
        <ele>357.75</ele>
        <time>2021-08-04T11:51:43Z</time>
      </trkpt>
      <trkpt lat="42.37859" lon="-1.4428">
        <ele>356.51</ele>
        <time>2021-08-04T11:51:50Z</time>
      </trkpt>
      <trkpt lat="42.37869" lon="-1.44276">
        <ele>356.44</ele>
        <time>2021-08-04T11:51:51Z</time>
      </trkpt>
      <trkpt lat="42.3793" lon="-1.44256">
        <ele>355.65</ele>
        <time>2021-08-04T11:52:02Z</time>
      </trkpt>
      <trkpt lat="42.37938" lon="-1.44257">
        <ele>355.48</ele>
        <time>2021-08-04T11:52:12Z</time>
      </trkpt>
      <trkpt lat="42.37982" lon="-1.44244">
        <ele>355.5</ele>
        <time>2021-08-04T11:52:19Z</time>
      </trkpt>
      <trkpt lat="42.38051" lon="-1.44226">
        <ele>355.81</ele>
        <time>2021-08-04T11:52:30Z</time>
      </trkpt>
      <trkpt lat="42.38093" lon="-1.44215">
        <ele>355.09</ele>
        <time>2021-08-04T11:52:42Z</time>
      </trkpt>
      <trkpt lat="42.381" lon="-1.44214">
        <ele>354.71</ele>
        <time>2021-08-04T11:52:58Z</time>
      </trkpt>
      <trkpt lat="42.38108" lon="-1.4421">
        <ele>354.77</ele>
        <time>2021-08-04T11:53:19Z</time>
      </trkpt>
      <trkpt lat="42.38109" lon="-1.4421">
        <ele>354.36</ele>
        <time>2021-08-04T11:53:50Z</time>
      </trkpt>
      <trkpt lat="42.38123" lon="-1.4421">
        <ele>354.56</ele>
        <time>2021-08-04T11:53:55Z</time>
      </trkpt>
      <trkpt lat="42.38152" lon="-1.442">
        <ele>354.52</ele>
        <time>2021-08-04T11:54:06Z</time>
      </trkpt>
      <trkpt lat="42.38197" lon="-1.44189">
        <ele>354.32</ele>
        <time>2021-08-04T11:54:18Z</time>
      </trkpt>
      <trkpt lat="42.38209" lon="-1.44186">
        <ele>354.1</ele>
        <time>2021-08-04T11:54:27Z</time>
      </trkpt>
      <trkpt lat="42.38223" lon="-1.44157">
        <ele>353.69</ele>
        <time>2021-08-04T11:54:34Z</time>
      </trkpt>
      <trkpt lat="42.38221" lon="-1.44138">
        <ele>351.85</ele>
        <time>2021-08-04T11:54:44Z</time>
      </trkpt>
      <trkpt lat="42.3822" lon="-1.44111">
        <ele>350.75</ele>
        <time>2021-08-04T11:55:06Z</time>
      </trkpt>
      <trkpt lat="42.382" lon="-1.43975">
        <ele>347.67</ele>
        <time>2021-08-04T11:55:18Z</time>
      </trkpt>
      <trkpt lat="42.38178" lon="-1.43819">
        <ele>345.31</ele>
        <time>2021-08-04T11:55:30Z</time>
      </trkpt>
      <trkpt lat="42.38172" lon="-1.43769">
        <ele>345.37</ele>
        <time>2021-08-04T11:55:33Z</time>
      </trkpt>
      <trkpt lat="42.38175" lon="-1.43697">
        <ele>345.77</ele>
        <time>2021-08-04T11:55:37Z</time>
      </trkpt>
      <trkpt lat="42.38227" lon="-1.43438">
        <ele>347.52</ele>
        <time>2021-08-04T11:55:51Z</time>
      </trkpt>
      <trkpt lat="42.38275" lon="-1.43197">
        <ele>350.22</ele>
        <time>2021-08-04T11:56:05Z</time>
      </trkpt>
      <trkpt lat="42.38323" lon="-1.42995">
        <ele>350.11</ele>
        <time>2021-08-04T11:56:16Z</time>
      </trkpt>
      <trkpt lat="42.3838" lon="-1.42793">
        <ele>351.18</ele>
        <time>2021-08-04T11:56:27Z</time>
      </trkpt>
      <trkpt lat="42.38409" lon="-1.42591">
        <ele>352.66</ele>
        <time>2021-08-04T11:56:36Z</time>
      </trkpt>
      <trkpt lat="42.38467" lon="-1.42454">
        <ele>355.18</ele>
        <time>2021-08-04T11:56:43Z</time>
      </trkpt>
      <trkpt lat="42.38544" lon="-1.42268">
        <ele>356.78</ele>
        <time>2021-08-04T11:56:52Z</time>
      </trkpt>
      <trkpt lat="42.38581" lon="-1.42214">
        <ele>357.14</ele>
        <time>2021-08-04T11:56:56Z</time>
      </trkpt>
      <trkpt lat="42.38646" lon="-1.42168">
        <ele>355.93</ele>
        <time>2021-08-04T11:57:01Z</time>
      </trkpt>
      <trkpt lat="42.38687" lon="-1.42092">
        <ele>353.04</ele>
        <time>2021-08-04T11:57:06Z</time>
      </trkpt>
      <trkpt lat="42.38706" lon="-1.41997">
        <ele>351.36</ele>
        <time>2021-08-04T11:57:11Z</time>
      </trkpt>
      <trkpt lat="42.38766" lon="-1.41883">
        <ele>351.54</ele>
        <time>2021-08-04T11:57:18Z</time>
      </trkpt>
      <trkpt lat="42.38883" lon="-1.41731">
        <ele>351.58</ele>
        <time>2021-08-04T11:57:28Z</time>
      </trkpt>
      <trkpt lat="42.38924" lon="-1.4167">
        <ele>349.42</ele>
        <time>2021-08-04T11:57:34Z</time>
      </trkpt>
      <trkpt lat="42.38958" lon="-1.41615">
        <ele>346.94</ele>
        <time>2021-08-04T11:57:43Z</time>
      </trkpt>
      <trkpt lat="42.38992" lon="-1.41565">
        <ele>346.64</ele>
        <time>2021-08-04T11:57:51Z</time>
      </trkpt>
      <trkpt lat="42.39021" lon="-1.4154">
        <ele>346.45</ele>
        <time>2021-08-04T11:57:57Z</time>
      </trkpt>
      <trkpt lat="42.3904" lon="-1.41519">
        <ele>346.32</ele>
        <time>2021-08-04T11:58:00Z</time>
      </trkpt>
      <trkpt lat="42.3912" lon="-1.41478">
        <ele>346.67</ele>
        <time>2021-08-04T11:58:09Z</time>
      </trkpt>
      <trkpt lat="42.39152" lon="-1.41463">
        <ele>346.74</ele>
        <time>2021-08-04T11:58:12Z</time>
      </trkpt>
      <trkpt lat="42.39264" lon="-1.4146">
        <ele>347.48</ele>
        <time>2021-08-04T11:58:21Z</time>
      </trkpt>
      <trkpt lat="42.39334" lon="-1.41463">
        <ele>347.61</ele>
        <time>2021-08-04T11:58:27Z</time>
      </trkpt>
      <trkpt lat="42.39444" lon="-1.41493">
        <ele>347.54</ele>
        <time>2021-08-04T11:58:37Z</time>
      </trkpt>
      <trkpt lat="42.39539" lon="-1.41527">
        <ele>347.89</ele>
        <time>2021-08-04T11:58:46Z</time>
      </trkpt>
      <trkpt lat="42.3962" lon="-1.41616">
        <ele>348.45</ele>
        <time>2021-08-04T11:58:57Z</time>
      </trkpt>
      <trkpt lat="42.39651" lon="-1.41661">
        <ele>348.5</ele>
        <time>2021-08-04T11:59:01Z</time>
      </trkpt>
      <trkpt lat="42.39723" lon="-1.41727">
        <ele>348.7</ele>
        <time>2021-08-04T11:59:10Z</time>
      </trkpt>
      <trkpt lat="42.39746" lon="-1.4176">
        <ele>348.47</ele>
        <time>2021-08-04T11:59:17Z</time>
      </trkpt>
      <trkpt lat="42.39739" lon="-1.41795">
        <ele>347.41</ele>
        <time>2021-08-04T11:59:26Z</time>
      </trkpt>
      <trkpt lat="42.39739" lon="-1.41799">
        <ele>347.02</ele>
        <time>2021-08-04T11:59:28Z</time>
      </trkpt>
      <trkpt lat="42.3974" lon="-1.41805">
        <ele>345.8</ele>
        <time>2021-08-04T11:59:44Z</time>
      </trkpt>
      <trkpt lat="42.39735" lon="-1.41814">
        <ele>345.8</ele>
        <time>2021-08-04T11:59:49Z</time>
      </trkpt>
      <trkpt lat="42.39707" lon="-1.41849">
        <ele>344.18</ele>
        <time>2021-08-04T12:00:01Z</time>
      </trkpt>
      <trkpt lat="42.39698" lon="-1.41855">
        <ele>343.46</ele>
        <time>2021-08-04T12:00:06Z</time>
      </trkpt>
      <trkpt lat="42.397" lon="-1.41863">
        <ele>343.14</ele>
        <time>2021-08-04T12:00:10Z</time>
      </trkpt>
      <trkpt lat="42.39701" lon="-1.41863">
        <ele>343.27</ele>
        <time>2021-08-04T12:00:32Z</time>
      </trkpt>
      <trkpt lat="42.39701" lon="-1.41863">
        <ele>343.59</ele>
        <time>2021-08-04T12:00:50Z</time>
      </trkpt>
      <trkpt lat="42.39719" lon="-1.41876">
        <ele>343.49</ele>
        <time>2021-08-04T12:02:13Z</time>
      </trkpt>
      <trkpt lat="42.39709" lon="-1.41855">
        <ele>343.49</ele>
        <time>2021-08-04T12:02:36Z</time>
      </trkpt>
      <trkpt lat="42.39708" lon="-1.41858">
        <ele>343.49</ele>
        <time>2021-08-04T12:03:20Z</time>
      </trkpt>
      <trkpt lat="42.39708" lon="-1.41859">
        <ele>343.49</ele>
        <time>2021-08-04T12:03:50Z</time>
      </trkpt>
      <trkpt lat="42.39707" lon="-1.41861">
        <ele>343.49</ele>
        <time>2021-08-04T12:04:33Z</time>
      </trkpt>
      <trkpt lat="42.39707" lon="-1.41863">
        <ele>343.49</ele>
        <time>2021-08-04T12:05:08Z</time>
      </trkpt>
      <trkpt lat="42.39707" lon="-1.41863">
        <ele>343.49</ele>
        <time>2021-08-04T12:05:51Z</time>
      </trkpt>
      <trkpt lat="42.39705" lon="-1.41865">
        <ele>343.49</ele>
        <time>2021-08-04T12:06:47Z</time>
      </trkpt>
      <trkpt lat="42.39705" lon="-1.41865">
        <ele>343.49</ele>
        <time>2021-08-04T12:07:25Z</time>
      </trkpt>
      <trkpt lat="42.39706" lon="-1.41866">
        <ele>343.49</ele>
        <time>2021-08-04T12:08:10Z</time>
      </trkpt>
      <trkpt lat="42.39706" lon="-1.41868">
        <ele>343.49</ele>
        <time>2021-08-04T12:08:49Z</time>
      </trkpt>
      <trkpt lat="42.39706" lon="-1.41868">
        <ele>343.49</ele>
        <time>2021-08-04T12:09:24Z</time>
      </trkpt>
      <trkpt lat="42.39707" lon="-1.41868">
        <ele>343.49</ele>
        <time>2021-08-04T12:10:11Z</time>
      </trkpt>
      <trkpt lat="42.39707" lon="-1.4187">
        <ele>343.49</ele>
        <time>2021-08-04T12:10:49Z</time>
      </trkpt>
      <trkpt lat="42.39707" lon="-1.41872">
        <ele>343.49</ele>
        <time>2021-08-04T12:11:25Z</time>
      </trkpt>
      <trkpt lat="42.39708" lon="-1.4187">
        <ele>343.49</ele>
        <time>2021-08-04T12:12:03Z</time>
      </trkpt>
      <trkpt lat="42.39708" lon="-1.4187">
        <ele>343.49</ele>
        <time>2021-08-04T12:12:39Z</time>
      </trkpt>
      <trkpt lat="42.39708" lon="-1.4187">
        <ele>343.49</ele>
        <time>2021-08-04T12:13:56Z</time>
      </trkpt>
      <trkpt lat="42.39709" lon="-1.41869">
        <ele>343.49</ele>
        <time>2021-08-04T12:15:03Z</time>
      </trkpt>
      <trkpt lat="42.39708" lon="-1.4187">
        <ele>343.49</ele>
        <time>2021-08-04T12:16:03Z</time>
      </trkpt>
      <trkpt lat="42.39708" lon="-1.4187">
        <ele>343.49</ele>
        <time>2021-08-04T12:17:31Z</time>
      </trkpt>
      <trkpt lat="42.39708" lon="-1.41869">
        <ele>343.49</ele>
        <time>2021-08-04T12:18:36Z</time>
      </trkpt>
      <trkpt lat="42.39707" lon="-1.41869">
        <ele>343.49</ele>
        <time>2021-08-04T12:19:27Z</time>
      </trkpt>
      <trkpt lat="42.39707" lon="-1.41868">
        <ele>343.49</ele>
        <time>2021-08-04T12:20:21Z</time>
      </trkpt>
      <trkpt lat="42.39706" lon="-1.41868">
        <ele>343.49</ele>
        <time>2021-08-04T12:22:03Z</time>
      </trkpt>
      <trkpt lat="42.39706" lon="-1.41866">
        <ele>343.49</ele>
        <time>2021-08-04T12:23:02Z</time>
      </trkpt>
      <trkpt lat="42.39701" lon="-1.4187">
        <ele>343.49</ele>
        <time>2021-08-04T12:23:32Z</time>
      </trkpt>
      <trkpt lat="42.39703" lon="-1.41866">
        <ele>343.49</ele>
        <time>2021-08-04T12:24:15Z</time>
      </trkpt>
      <trkpt lat="42.39703" lon="-1.41867">
        <ele>343.49</ele>
        <time>2021-08-04T12:25:15Z</time>
      </trkpt>
      <trkpt lat="42.39703" lon="-1.41867">
        <ele>343.49</ele>
        <time>2021-08-04T12:25:58Z</time>
      </trkpt>
      <trkpt lat="42.39704" lon="-1.41868">
        <ele>343.49</ele>
        <time>2021-08-04T12:26:40Z</time>
      </trkpt>
      <trkpt lat="42.39703" lon="-1.41868">
        <ele>343.49</ele>
        <time>2021-08-04T12:27:13Z</time>
      </trkpt>
      <trkpt lat="42.39703" lon="-1.41868">
        <ele>343.49</ele>
        <time>2021-08-04T12:28:39Z</time>
      </trkpt>
      <trkpt lat="42.39703" lon="-1.41869">
        <ele>343.49</ele>
        <time>2021-08-04T12:29:21Z</time>
      </trkpt>
      <trkpt lat="42.39704" lon="-1.41867">
        <ele>343.49</ele>
        <time>2021-08-04T12:30:03Z</time>
      </trkpt>
      <trkpt lat="42.39704" lon="-1.41867">
        <ele>343.49</ele>
        <time>2021-08-04T12:30:44Z</time>
      </trkpt>
      <trkpt lat="42.39705" lon="-1.41868">
        <ele>343.49</ele>
        <time>2021-08-04T12:31:29Z</time>
      </trkpt>
      <trkpt lat="42.39705" lon="-1.41867">
        <ele>343.49</ele>
        <time>2021-08-04T12:33:06Z</time>
      </trkpt>
      <trkpt lat="42.39707" lon="-1.41866">
        <ele>343.49</ele>
        <time>2021-08-04T12:33:52Z</time>
      </trkpt>
      <trkpt lat="42.39707" lon="-1.41866">
        <ele>343.49</ele>
        <time>2021-08-04T12:35:03Z</time>
      </trkpt>
      <trkpt lat="42.39707" lon="-1.41866">
        <ele>343.49</ele>
        <time>2021-08-04T12:35:45Z</time>
      </trkpt>
      <trkpt lat="42.39707" lon="-1.41866">
        <ele>343.49</ele>
        <time>2021-08-04T12:36:51Z</time>
      </trkpt>
      <trkpt lat="42.39708" lon="-1.41866">
        <ele>343.49</ele>
        <time>2021-08-04T12:37:38Z</time>
      </trkpt>
      <trkpt lat="42.39709" lon="-1.41866">
        <ele>343.49</ele>
        <time>2021-08-04T12:38:19Z</time>
      </trkpt>
      <trkpt lat="42.39709" lon="-1.41868">
        <ele>343.49</ele>
        <time>2021-08-04T12:38:56Z</time>
      </trkpt>
      <trkpt lat="42.39709" lon="-1.41868">
        <ele>343.49</ele>
        <time>2021-08-04T12:39:34Z</time>
      </trkpt>
      <trkpt lat="42.39709" lon="-1.41868">
        <ele>343.49</ele>
        <time>2021-08-04T12:40:14Z</time>
      </trkpt>
      <trkpt lat="42.39709" lon="-1.41869">
        <ele>343.49</ele>
        <time>2021-08-04T12:40:55Z</time>
      </trkpt>
      <trkpt lat="42.39707" lon="-1.41869">
        <ele>343.49</ele>
        <time>2021-08-04T12:41:57Z</time>
      </trkpt>
      <trkpt lat="42.39707" lon="-1.41867">
        <ele>343.49</ele>
        <time>2021-08-04T12:42:36Z</time>
      </trkpt>
      <trkpt lat="42.39707" lon="-1.41868">
        <ele>343.49</ele>
        <time>2021-08-04T12:43:13Z</time>
      </trkpt>
      <trkpt lat="42.39707" lon="-1.41868">
        <ele>343.49</ele>
        <time>2021-08-04T12:43:47Z</time>
      </trkpt>
      <trkpt lat="42.39708" lon="-1.41867">
        <ele>343.49</ele>
        <time>2021-08-04T12:44:20Z</time>
      </trkpt>
      <trkpt lat="42.39708" lon="-1.41867">
        <ele>343.49</ele>
        <time>2021-08-04T12:44:51Z</time>
      </trkpt>
      <trkpt lat="42.39709" lon="-1.41866">
        <ele>343.49</ele>
        <time>2021-08-04T12:45:32Z</time>
      </trkpt>
      <trkpt lat="42.39709" lon="-1.41867">
        <ele>343.49</ele>
        <time>2021-08-04T12:46:08Z</time>
      </trkpt>
      <trkpt lat="42.39709" lon="-1.41867">
        <ele>343.49</ele>
        <time>2021-08-04T12:46:56Z</time>
      </trkpt>
      <trkpt lat="42.39709" lon="-1.41867">
        <ele>343.49</ele>
        <time>2021-08-04T12:47:43Z</time>
      </trkpt>
      <trkpt lat="42.39709" lon="-1.41868">
        <ele>343.49</ele>
        <time>2021-08-04T12:48:20Z</time>
      </trkpt>
      <trkpt lat="42.39709" lon="-1.41868">
        <ele>343.49</ele>
        <time>2021-08-04T12:49:07Z</time>
      </trkpt>
      <trkpt lat="42.39709" lon="-1.41868">
        <ele>343.49</ele>
        <time>2021-08-04T12:49:41Z</time>
      </trkpt>
      <trkpt lat="42.39709" lon="-1.41868">
        <ele>343.49</ele>
        <time>2021-08-04T12:50:22Z</time>
      </trkpt>
      <trkpt lat="42.39708" lon="-1.41867">
        <ele>343.49</ele>
        <time>2021-08-04T12:50:58Z</time>
      </trkpt>
      <trkpt lat="42.39707" lon="-1.41869">
        <ele>343.49</ele>
        <time>2021-08-04T12:51:35Z</time>
      </trkpt>
      <trkpt lat="42.39707" lon="-1.4187">
        <ele>343.49</ele>
        <time>2021-08-04T12:52:22Z</time>
      </trkpt>
      <trkpt lat="42.39706" lon="-1.41869">
        <ele>343.49</ele>
        <time>2021-08-04T12:53:07Z</time>
      </trkpt>
      <trkpt lat="42.39706" lon="-1.41872">
        <ele>343.49</ele>
        <time>2021-08-04T12:54:00Z</time>
      </trkpt>
      <trkpt lat="42.39706" lon="-1.4187">
        <ele>343.49</ele>
        <time>2021-08-04T12:54:59Z</time>
      </trkpt>
      <trkpt lat="42.39706" lon="-1.4187">
        <ele>343.49</ele>
        <time>2021-08-04T12:55:43Z</time>
      </trkpt>
      <trkpt lat="42.39706" lon="-1.41871">
        <ele>343.49</ele>
        <time>2021-08-04T12:56:29Z</time>
      </trkpt>
      <trkpt lat="42.39707" lon="-1.41872">
        <ele>343.49</ele>
        <time>2021-08-04T12:57:02Z</time>
      </trkpt>
      <trkpt lat="42.39706" lon="-1.41871">
        <ele>343.49</ele>
        <time>2021-08-04T12:57:57Z</time>
      </trkpt>
      <trkpt lat="42.39706" lon="-1.4187">
        <ele>343.49</ele>
        <time>2021-08-04T12:58:34Z</time>
      </trkpt>
      <trkpt lat="42.39707" lon="-1.4187">
        <ele>343.49</ele>
        <time>2021-08-04T12:59:15Z</time>
      </trkpt>
      <trkpt lat="42.39707" lon="-1.4187">
        <ele>343.49</ele>
        <time>2021-08-04T12:59:56Z</time>
      </trkpt>
      <trkpt lat="42.39708" lon="-1.41871">
        <ele>343.49</ele>
        <time>2021-08-04T13:00:32Z</time>
      </trkpt>
      <trkpt lat="42.39708" lon="-1.41871">
        <ele>343.49</ele>
        <time>2021-08-04T13:00:59Z</time>
      </trkpt>
      <trkpt lat="42.39708" lon="-1.41872">
        <ele>343.49</ele>
        <time>2021-08-04T13:01:39Z</time>
      </trkpt>
      <trkpt lat="42.39708" lon="-1.41872">
        <ele>343.49</ele>
        <time>2021-08-04T13:02:14Z</time>
      </trkpt>
      <trkpt lat="42.39708" lon="-1.41872">
        <ele>343.49</ele>
        <time>2021-08-04T13:02:44Z</time>
      </trkpt>
      <trkpt lat="42.39708" lon="-1.41871">
        <ele>343.49</ele>
        <time>2021-08-04T13:03:29Z</time>
      </trkpt>
      <trkpt lat="42.39708" lon="-1.41871">
        <ele>343.49</ele>
        <time>2021-08-04T13:04:12Z</time>
      </trkpt>
      <trkpt lat="42.39708" lon="-1.41869">
        <ele>343.49</ele>
        <time>2021-08-04T13:04:43Z</time>
      </trkpt>
      <trkpt lat="42.39707" lon="-1.41865">
        <ele>343.49</ele>
        <time>2021-08-04T13:05:14Z</time>
      </trkpt>
      <trkpt lat="42.39707" lon="-1.41864">
        <ele>343.49</ele>
        <time>2021-08-04T13:05:49Z</time>
      </trkpt>
      <trkpt lat="42.39707" lon="-1.41865">
        <ele>343.49</ele>
        <time>2021-08-04T13:06:23Z</time>
      </trkpt>
      <trkpt lat="42.39707" lon="-1.41864">
        <ele>343.49</ele>
        <time>2021-08-04T13:07:00Z</time>
      </trkpt>
      <trkpt lat="42.39707" lon="-1.41865">
        <ele>343.49</ele>
        <time>2021-08-04T13:07:39Z</time>
      </trkpt>
      <trkpt lat="42.39708" lon="-1.41864">
        <ele>343.49</ele>
        <time>2021-08-04T13:08:13Z</time>
      </trkpt>
      <trkpt lat="42.39708" lon="-1.41866">
        <ele>343.49</ele>
        <time>2021-08-04T13:08:47Z</time>
      </trkpt>
      <trkpt lat="42.39708" lon="-1.41867">
        <ele>343.49</ele>
        <time>2021-08-04T13:09:29Z</time>
      </trkpt>
      <trkpt lat="42.39709" lon="-1.41867">
        <ele>343.49</ele>
        <time>2021-08-04T13:10:14Z</time>
      </trkpt>
      <trkpt lat="42.39709" lon="-1.41867">
        <ele>343.49</ele>
        <time>2021-08-04T13:10:46Z</time>
      </trkpt>
      <trkpt lat="42.39708" lon="-1.41867">
        <ele>343.49</ele>
        <time>2021-08-04T13:11:22Z</time>
      </trkpt>
      <trkpt lat="42.39709" lon="-1.41865">
        <ele>343.49</ele>
        <time>2021-08-04T13:11:54Z</time>
      </trkpt>
      <trkpt lat="42.39707" lon="-1.41867">
        <ele>343.49</ele>
        <time>2021-08-04T13:12:22Z</time>
      </trkpt>
      <trkpt lat="42.39707" lon="-1.41866">
        <ele>343.49</ele>
        <time>2021-08-04T13:12:57Z</time>
      </trkpt>
      <trkpt lat="42.39707" lon="-1.41864">
        <ele>343.49</ele>
        <time>2021-08-04T13:13:36Z</time>
      </trkpt>
      <trkpt lat="42.39707" lon="-1.41865">
        <ele>343.49</ele>
        <time>2021-08-04T13:14:27Z</time>
      </trkpt>
      <trkpt lat="42.39707" lon="-1.41866">
        <ele>343.49</ele>
        <time>2021-08-04T13:15:09Z</time>
      </trkpt>
      <trkpt lat="42.39708" lon="-1.41864">
        <ele>343.49</ele>
        <time>2021-08-04T13:15:44Z</time>
      </trkpt>
      <trkpt lat="42.39708" lon="-1.41864">
        <ele>343.49</ele>
        <time>2021-08-04T13:16:22Z</time>
      </trkpt>
      <trkpt lat="42.39707" lon="-1.41865">
        <ele>343.49</ele>
        <time>2021-08-04T13:16:52Z</time>
      </trkpt>
      <trkpt lat="42.39707" lon="-1.41865">
        <ele>343.49</ele>
        <time>2021-08-04T13:17:39Z</time>
      </trkpt>
      <trkpt lat="42.39706" lon="-1.41866">
        <ele>343.49</ele>
        <time>2021-08-04T13:18:16Z</time>
      </trkpt>
      <trkpt lat="42.39708" lon="-1.41864">
        <ele>343.49</ele>
        <time>2021-08-04T13:18:49Z</time>
      </trkpt>
      <trkpt lat="42.39708" lon="-1.41868">
        <ele>343.49</ele>
        <time>2021-08-04T13:19:24Z</time>
      </trkpt>
      <trkpt lat="42.39708" lon="-1.41871">
        <ele>343.49</ele>
        <time>2021-08-04T13:19:58Z</time>
      </trkpt>
      <trkpt lat="42.39707" lon="-1.41871">
        <ele>343.49</ele>
        <time>2021-08-04T13:20:32Z</time>
      </trkpt>
      <trkpt lat="42.39707" lon="-1.41871">
        <ele>343.49</ele>
        <time>2021-08-04T13:21:03Z</time>
      </trkpt>
      <trkpt lat="42.39706" lon="-1.41872">
        <ele>343.49</ele>
        <time>2021-08-04T13:21:36Z</time>
      </trkpt>
      <trkpt lat="42.39705" lon="-1.41872">
        <ele>343.49</ele>
        <time>2021-08-04T13:22:12Z</time>
      </trkpt>
      <trkpt lat="42.39706" lon="-1.41873">
        <ele>343.49</ele>
        <time>2021-08-04T13:22:40Z</time>
      </trkpt>
      <trkpt lat="42.39705" lon="-1.41875">
        <ele>343.49</ele>
        <time>2021-08-04T13:23:12Z</time>
      </trkpt>
      <trkpt lat="42.39706" lon="-1.41876">
        <ele>343.49</ele>
        <time>2021-08-04T13:24:05Z</time>
      </trkpt>
      <trkpt lat="42.39707" lon="-1.41874">
        <ele>343.49</ele>
        <time>2021-08-04T13:24:46Z</time>
      </trkpt>
      <trkpt lat="42.39707" lon="-1.41874">
        <ele>343.49</ele>
        <time>2021-08-04T13:25:24Z</time>
      </trkpt>
      <trkpt lat="42.39706" lon="-1.41874">
        <ele>343.49</ele>
        <time>2021-08-04T13:26:04Z</time>
      </trkpt>
      <trkpt lat="42.39707" lon="-1.41876">
        <ele>343.49</ele>
        <time>2021-08-04T13:26:45Z</time>
      </trkpt>
      <trkpt lat="42.39707" lon="-1.41876">
        <ele>343.49</ele>
        <time>2021-08-04T13:27:14Z</time>
      </trkpt>
      <trkpt lat="42.39708" lon="-1.41875">
        <ele>343.49</ele>
        <time>2021-08-04T13:27:47Z</time>
      </trkpt>
      <trkpt lat="42.39708" lon="-1.41875">
        <ele>343.49</ele>
        <time>2021-08-04T13:28:39Z</time>
      </trkpt>
      <trkpt lat="42.39708" lon="-1.41877">
        <ele>343.49</ele>
        <time>2021-08-04T13:29:11Z</time>
      </trkpt>
      <trkpt lat="42.39707" lon="-1.41876">
        <ele>343.49</ele>
        <time>2021-08-04T13:29:47Z</time>
      </trkpt>
      <trkpt lat="42.39707" lon="-1.41877">
        <ele>343.49</ele>
        <time>2021-08-04T13:30:22Z</time>
      </trkpt>
      <trkpt lat="42.39707" lon="-1.41876">
        <ele>343.49</ele>
        <time>2021-08-04T13:31:10Z</time>
      </trkpt>
      <trkpt lat="42.39706" lon="-1.41878">
        <ele>343.49</ele>
        <time>2021-08-04T13:31:48Z</time>
      </trkpt>
      <trkpt lat="42.39706" lon="-1.41876">
        <ele>343.49</ele>
        <time>2021-08-04T13:32:22Z</time>
      </trkpt>
      <trkpt lat="42.39705" lon="-1.41873">
        <ele>343.49</ele>
        <time>2021-08-04T13:32:56Z</time>
      </trkpt>
      <trkpt lat="42.39705" lon="-1.41872">
        <ele>343.49</ele>
        <time>2021-08-04T13:33:29Z</time>
      </trkpt>
      <trkpt lat="42.39705" lon="-1.41871">
        <ele>343.49</ele>
        <time>2021-08-04T13:34:10Z</time>
      </trkpt>
      <trkpt lat="42.39706" lon="-1.41871">
        <ele>343.49</ele>
        <time>2021-08-04T13:34:46Z</time>
      </trkpt>
      <trkpt lat="42.39707" lon="-1.41871">
        <ele>343.49</ele>
        <time>2021-08-04T13:35:17Z</time>
      </trkpt>
      <trkpt lat="42.39706" lon="-1.41871">
        <ele>343.49</ele>
        <time>2021-08-04T13:35:50Z</time>
      </trkpt>
      <trkpt lat="42.39706" lon="-1.41871">
        <ele>343.49</ele>
        <time>2021-08-04T13:36:22Z</time>
      </trkpt>
      <trkpt lat="42.39704" lon="-1.41873">
        <ele>343.49</ele>
        <time>2021-08-04T13:36:53Z</time>
      </trkpt>
      <trkpt lat="42.39704" lon="-1.41872">
        <ele>343.49</ele>
        <time>2021-08-04T13:37:21Z</time>
      </trkpt>
      <trkpt lat="42.39704" lon="-1.41872">
        <ele>343.49</ele>
        <time>2021-08-04T13:37:56Z</time>
      </trkpt>
      <trkpt lat="42.39704" lon="-1.4187">
        <ele>343.49</ele>
        <time>2021-08-04T13:38:51Z</time>
      </trkpt>
      <trkpt lat="42.39705" lon="-1.4187">
        <ele>343.49</ele>
        <time>2021-08-04T13:39:22Z</time>
      </trkpt>
      <trkpt lat="42.39705" lon="-1.41871">
        <ele>343.49</ele>
        <time>2021-08-04T13:40:00Z</time>
      </trkpt>
      <trkpt lat="42.39706" lon="-1.4187">
        <ele>343.49</ele>
        <time>2021-08-04T13:40:35Z</time>
      </trkpt>
      <trkpt lat="42.39705" lon="-1.41871">
        <ele>343.49</ele>
        <time>2021-08-04T13:41:11Z</time>
      </trkpt>
      <trkpt lat="42.39705" lon="-1.4187">
        <ele>343.49</ele>
        <time>2021-08-04T13:41:44Z</time>
      </trkpt>
      <trkpt lat="42.39706" lon="-1.41871">
        <ele>343.49</ele>
        <time>2021-08-04T13:42:16Z</time>
      </trkpt>
      <trkpt lat="42.39707" lon="-1.41871">
        <ele>343.49</ele>
        <time>2021-08-04T13:42:56Z</time>
      </trkpt>
      <trkpt lat="42.39707" lon="-1.41871">
        <ele>343.49</ele>
        <time>2021-08-04T13:43:30Z</time>
      </trkpt>
      <trkpt lat="42.39707" lon="-1.4187">
        <ele>343.49</ele>
        <time>2021-08-04T13:44:00Z</time>
      </trkpt>
      <trkpt lat="42.39708" lon="-1.41869">
        <ele>343.49</ele>
        <time>2021-08-04T13:44:30Z</time>
      </trkpt>
      <trkpt lat="42.39708" lon="-1.4187">
        <ele>343.49</ele>
        <time>2021-08-04T13:45:02Z</time>
      </trkpt>
      <trkpt lat="42.39708" lon="-1.41871">
        <ele>343.49</ele>
        <time>2021-08-04T13:45:36Z</time>
      </trkpt>
      <trkpt lat="42.39708" lon="-1.41872">
        <ele>343.49</ele>
        <time>2021-08-04T13:46:10Z</time>
      </trkpt>
      <trkpt lat="42.39708" lon="-1.41872">
        <ele>343.49</ele>
        <time>2021-08-04T13:46:41Z</time>
      </trkpt>
      <trkpt lat="42.39708" lon="-1.41873">
        <ele>343.49</ele>
        <time>2021-08-04T13:47:11Z</time>
      </trkpt>
      <trkpt lat="42.39708" lon="-1.41872">
        <ele>343.49</ele>
        <time>2021-08-04T13:47:52Z</time>
      </trkpt>
      <trkpt lat="42.39707" lon="-1.41871">
        <ele>343.49</ele>
        <time>2021-08-04T13:48:28Z</time>
      </trkpt>
      <trkpt lat="42.39707" lon="-1.41871">
        <ele>343.49</ele>
        <time>2021-08-04T13:48:56Z</time>
      </trkpt>
      <trkpt lat="42.39707" lon="-1.41871">
        <ele>343.49</ele>
        <time>2021-08-04T13:49:28Z</time>
      </trkpt>
      <trkpt lat="42.39707" lon="-1.41872">
        <ele>343.49</ele>
        <time>2021-08-04T13:49:59Z</time>
      </trkpt>
      <trkpt lat="42.39707" lon="-1.41872">
        <ele>343.49</ele>
        <time>2021-08-04T13:50:41Z</time>
      </trkpt>
      <trkpt lat="42.39708" lon="-1.41872">
        <ele>343.49</ele>
        <time>2021-08-04T13:51:10Z</time>
      </trkpt>
      <trkpt lat="42.39708" lon="-1.41872">
        <ele>343.49</ele>
        <time>2021-08-04T13:51:41Z</time>
      </trkpt>
      <trkpt lat="42.39707" lon="-1.41871">
        <ele>343.49</ele>
        <time>2021-08-04T13:52:19Z</time>
      </trkpt>
      <trkpt lat="42.39708" lon="-1.4187">
        <ele>343.49</ele>
        <time>2021-08-04T13:52:52Z</time>
      </trkpt>
      <trkpt lat="42.39708" lon="-1.4187">
        <ele>343.49</ele>
        <time>2021-08-04T13:53:28Z</time>
      </trkpt>
      <trkpt lat="42.39707" lon="-1.4187">
        <ele>343.49</ele>
        <time>2021-08-04T13:54:01Z</time>
      </trkpt>
      <trkpt lat="42.39707" lon="-1.4187">
        <ele>343.49</ele>
        <time>2021-08-04T13:54:41Z</time>
      </trkpt>
      <trkpt lat="42.39705" lon="-1.41869">
        <ele>343.49</ele>
        <time>2021-08-04T13:55:21Z</time>
      </trkpt>
      <trkpt lat="42.39705" lon="-1.41868">
        <ele>343.49</ele>
        <time>2021-08-04T13:56:06Z</time>
      </trkpt>
      <trkpt lat="42.39706" lon="-1.41869">
        <ele>343.49</ele>
        <time>2021-08-04T13:56:43Z</time>
      </trkpt>
      <trkpt lat="42.39706" lon="-1.41869">
        <ele>343.49</ele>
        <time>2021-08-04T13:57:16Z</time>
      </trkpt>
      <trkpt lat="42.39707" lon="-1.41869">
        <ele>343.49</ele>
        <time>2021-08-04T13:57:50Z</time>
      </trkpt>
      <trkpt lat="42.39707" lon="-1.4187">
        <ele>343.49</ele>
        <time>2021-08-04T13:58:19Z</time>
      </trkpt>
      <trkpt lat="42.39707" lon="-1.4187">
        <ele>343.49</ele>
        <time>2021-08-04T13:58:45Z</time>
      </trkpt>
      <trkpt lat="42.39707" lon="-1.4187">
        <ele>343.49</ele>
        <time>2021-08-04T13:59:23Z</time>
      </trkpt>
      <trkpt lat="42.39707" lon="-1.4187">
        <ele>343.49</ele>
        <time>2021-08-04T14:00:06Z</time>
      </trkpt>
      <trkpt lat="42.39707" lon="-1.41867">
        <ele>343.49</ele>
        <time>2021-08-04T14:00:38Z</time>
      </trkpt>
      <trkpt lat="42.39705" lon="-1.41867">
        <ele>343.49</ele>
        <time>2021-08-04T14:01:20Z</time>
      </trkpt>
      <trkpt lat="42.39704" lon="-1.41867">
        <ele>343.49</ele>
        <time>2021-08-04T14:02:08Z</time>
      </trkpt>
      <trkpt lat="42.39705" lon="-1.41868">
        <ele>343.49</ele>
        <time>2021-08-04T14:02:55Z</time>
      </trkpt>
      <trkpt lat="42.39705" lon="-1.41867">
        <ele>343.49</ele>
        <time>2021-08-04T14:03:36Z</time>
      </trkpt>
      <trkpt lat="42.39708" lon="-1.41865">
        <ele>343.49</ele>
        <time>2021-08-04T14:04:34Z</time>
      </trkpt>
      <trkpt lat="42.39707" lon="-1.41866">
        <ele>343.49</ele>
        <time>2021-08-04T14:05:10Z</time>
      </trkpt>
      <trkpt lat="42.39708" lon="-1.41866">
        <ele>343.49</ele>
        <time>2021-08-04T14:05:52Z</time>
      </trkpt>
      <trkpt lat="42.39709" lon="-1.41867">
        <ele>343.49</ele>
        <time>2021-08-04T14:06:37Z</time>
      </trkpt>
      <trkpt lat="42.39709" lon="-1.41866">
        <ele>343.49</ele>
        <time>2021-08-04T14:07:20Z</time>
      </trkpt>
      <trkpt lat="42.39709" lon="-1.41868">
        <ele>343.49</ele>
        <time>2021-08-04T14:07:52Z</time>
      </trkpt>
      <trkpt lat="42.39709" lon="-1.4187">
        <ele>343.49</ele>
        <time>2021-08-04T14:08:42Z</time>
      </trkpt>
      <trkpt lat="42.39708" lon="-1.4187">
        <ele>343.49</ele>
        <time>2021-08-04T14:09:20Z</time>
      </trkpt>
      <trkpt lat="42.39707" lon="-1.4187">
        <ele>343.49</ele>
        <time>2021-08-04T14:09:55Z</time>
      </trkpt>
      <trkpt lat="42.39706" lon="-1.41869">
        <ele>343.49</ele>
        <time>2021-08-04T14:10:35Z</time>
      </trkpt>
      <trkpt lat="42.39708" lon="-1.41869">
        <ele>343.49</ele>
        <time>2021-08-04T14:11:09Z</time>
      </trkpt>
      <trkpt lat="42.39709" lon="-1.41872">
        <ele>343.49</ele>
        <time>2021-08-04T14:11:56Z</time>
      </trkpt>
      <trkpt lat="42.39709" lon="-1.41872">
        <ele>343.49</ele>
        <time>2021-08-04T14:12:28Z</time>
      </trkpt>
      <trkpt lat="42.39708" lon="-1.41873">
        <ele>343.49</ele>
        <time>2021-08-04T14:12:59Z</time>
      </trkpt>
      <trkpt lat="42.39709" lon="-1.41872">
        <ele>343.49</ele>
        <time>2021-08-04T14:13:32Z</time>
      </trkpt>
      <trkpt lat="42.39708" lon="-1.41871">
        <ele>343.49</ele>
        <time>2021-08-04T14:14:07Z</time>
      </trkpt>
      <trkpt lat="42.39709" lon="-1.41871">
        <ele>343.49</ele>
        <time>2021-08-04T14:14:35Z</time>
      </trkpt>
      <trkpt lat="42.39708" lon="-1.41871">
        <ele>343.49</ele>
        <time>2021-08-04T14:15:13Z</time>
      </trkpt>
      <trkpt lat="42.39708" lon="-1.4187">
        <ele>343.49</ele>
        <time>2021-08-04T14:16:21Z</time>
      </trkpt>
      <trkpt lat="42.39708" lon="-1.4187">
        <ele>343.49</ele>
        <time>2021-08-04T14:17:30Z</time>
      </trkpt>
      <trkpt lat="42.39709" lon="-1.41869">
        <ele>343.49</ele>
        <time>2021-08-04T14:18:42Z</time>
      </trkpt>
      <trkpt lat="42.39708" lon="-1.41868">
        <ele>343.49</ele>
        <time>2021-08-04T14:19:21Z</time>
      </trkpt>
      <trkpt lat="42.39709" lon="-1.41867">
        <ele>343.49</ele>
        <time>2021-08-04T14:19:59Z</time>
      </trkpt>
      <trkpt lat="42.39709" lon="-1.41867">
        <ele>343.49</ele>
        <time>2021-08-04T14:20:31Z</time>
      </trkpt>
      <trkpt lat="42.39709" lon="-1.41867">
        <ele>343.49</ele>
        <time>2021-08-04T14:21:11Z</time>
      </trkpt>
      <trkpt lat="42.39706" lon="-1.41868">
        <ele>343.49</ele>
        <time>2021-08-04T14:22:00Z</time>
      </trkpt>
      <trkpt lat="42.39707" lon="-1.41867">
        <ele>343.49</ele>
        <time>2021-08-04T14:22:55Z</time>
      </trkpt>
      <trkpt lat="42.39707" lon="-1.41867">
        <ele>343.49</ele>
        <time>2021-08-04T14:23:48Z</time>
      </trkpt>
      <trkpt lat="42.39707" lon="-1.41867">
        <ele>343.49</ele>
        <time>2021-08-04T14:24:31Z</time>
      </trkpt>
      <trkpt lat="42.39707" lon="-1.41868">
        <ele>343.49</ele>
        <time>2021-08-04T14:25:09Z</time>
      </trkpt>
      <trkpt lat="42.39705" lon="-1.41869">
        <ele>343.49</ele>
        <time>2021-08-04T14:26:02Z</time>
      </trkpt>
      <trkpt lat="42.39704" lon="-1.41867">
        <ele>343.49</ele>
        <time>2021-08-04T14:26:30Z</time>
      </trkpt>
      <trkpt lat="42.39704" lon="-1.41867">
        <ele>343.49</ele>
        <time>2021-08-04T14:27:19Z</time>
      </trkpt>
      <trkpt lat="42.39704" lon="-1.41865">
        <ele>343.49</ele>
        <time>2021-08-04T14:28:00Z</time>
      </trkpt>
      <trkpt lat="42.39705" lon="-1.41865">
        <ele>343.49</ele>
        <time>2021-08-04T14:28:51Z</time>
      </trkpt>
      <trkpt lat="42.39704" lon="-1.41866">
        <ele>343.49</ele>
        <time>2021-08-04T14:29:33Z</time>
      </trkpt>
      <trkpt lat="42.39703" lon="-1.41866">
        <ele>343.49</ele>
        <time>2021-08-04T14:30:26Z</time>
      </trkpt>
      <trkpt lat="42.39703" lon="-1.41866">
        <ele>343.49</ele>
        <time>2021-08-04T14:31:06Z</time>
      </trkpt>
      <trkpt lat="42.39704" lon="-1.41866">
        <ele>343.49</ele>
        <time>2021-08-04T14:31:56Z</time>
      </trkpt>
      <trkpt lat="42.39703" lon="-1.41865">
        <ele>343.49</ele>
        <time>2021-08-04T14:32:54Z</time>
      </trkpt>
      <trkpt lat="42.39703" lon="-1.41865">
        <ele>343.49</ele>
        <time>2021-08-04T14:33:34Z</time>
      </trkpt>
      <trkpt lat="42.39703" lon="-1.41865">
        <ele>343.49</ele>
        <time>2021-08-04T14:34:24Z</time>
      </trkpt>
      <trkpt lat="42.39705" lon="-1.41866">
        <ele>343.49</ele>
        <time>2021-08-04T14:35:03Z</time>
      </trkpt>
      <trkpt lat="42.39707" lon="-1.41865">
        <ele>343.49</ele>
        <time>2021-08-04T14:35:44Z</time>
      </trkpt>
      <trkpt lat="42.39708" lon="-1.41865">
        <ele>343.49</ele>
        <time>2021-08-04T14:36:54Z</time>
      </trkpt>
      <trkpt lat="42.39709" lon="-1.41865">
        <ele>343.49</ele>
        <time>2021-08-04T14:37:41Z</time>
      </trkpt>
      <trkpt lat="42.39709" lon="-1.41865">
        <ele>343.49</ele>
        <time>2021-08-04T14:38:14Z</time>
      </trkpt>
      <trkpt lat="42.39709" lon="-1.41864">
        <ele>343.49</ele>
        <time>2021-08-04T14:38:49Z</time>
      </trkpt>
      <trkpt lat="42.39709" lon="-1.41865">
        <ele>343.49</ele>
        <time>2021-08-04T14:39:44Z</time>
      </trkpt>
      <trkpt lat="42.39711" lon="-1.41867">
        <ele>343.49</ele>
        <time>2021-08-04T14:40:32Z</time>
      </trkpt>
      <trkpt lat="42.39711" lon="-1.41866">
        <ele>343.49</ele>
        <time>2021-08-04T14:41:58Z</time>
      </trkpt>
      <trkpt lat="42.39711" lon="-1.41866">
        <ele>343.49</ele>
        <time>2021-08-04T14:42:32Z</time>
      </trkpt>
      <trkpt lat="42.3971" lon="-1.41866">
        <ele>343.49</ele>
        <time>2021-08-04T14:43:11Z</time>
      </trkpt>
      <trkpt lat="42.3971" lon="-1.41867">
        <ele>343.49</ele>
        <time>2021-08-04T14:43:42Z</time>
      </trkpt>
      <trkpt lat="42.39709" lon="-1.41866">
        <ele>343.49</ele>
        <time>2021-08-04T14:44:30Z</time>
      </trkpt>
      <trkpt lat="42.39709" lon="-1.41867">
        <ele>343.49</ele>
        <time>2021-08-04T14:45:37Z</time>
      </trkpt>
      <trkpt lat="42.3971" lon="-1.41867">
        <ele>343.49</ele>
        <time>2021-08-04T14:46:33Z</time>
      </trkpt>
      <trkpt lat="42.3971" lon="-1.41864">
        <ele>343.49</ele>
        <time>2021-08-04T14:48:00Z</time>
      </trkpt>
      <trkpt lat="42.39709" lon="-1.41864">
        <ele>343.49</ele>
        <time>2021-08-04T14:48:39Z</time>
      </trkpt>
      <trkpt lat="42.3971" lon="-1.41864">
        <ele>343.49</ele>
        <time>2021-08-04T14:49:27Z</time>
      </trkpt>
      <trkpt lat="42.3971" lon="-1.41863">
        <ele>343.49</ele>
        <time>2021-08-04T14:50:12Z</time>
      </trkpt>
      <trkpt lat="42.39709" lon="-1.41863">
        <ele>343.49</ele>
        <time>2021-08-04T14:51:00Z</time>
      </trkpt>
      <trkpt lat="42.39709" lon="-1.41864">
        <ele>343.49</ele>
        <time>2021-08-04T14:51:37Z</time>
      </trkpt>
      <trkpt lat="42.3971" lon="-1.41864">
        <ele>343.49</ele>
        <time>2021-08-04T14:52:29Z</time>
      </trkpt>
      <trkpt lat="42.3971" lon="-1.41863">
        <ele>343.49</ele>
        <time>2021-08-04T14:53:20Z</time>
      </trkpt>
      <trkpt lat="42.39712" lon="-1.41863">
        <ele>343.49</ele>
        <time>2021-08-04T14:54:20Z</time>
      </trkpt>
      <trkpt lat="42.39712" lon="-1.41863">
        <ele>343.49</ele>
        <time>2021-08-04T14:55:20Z</time>
      </trkpt>
      <trkpt lat="42.39714" lon="-1.41863">
        <ele>343.49</ele>
        <time>2021-08-04T14:56:20Z</time>
      </trkpt>
      <trkpt lat="42.39713" lon="-1.41865">
        <ele>343.49</ele>
        <time>2021-08-04T14:57:21Z</time>
      </trkpt>
      <trkpt lat="42.39712" lon="-1.41866">
        <ele>343.49</ele>
        <time>2021-08-04T14:58:05Z</time>
      </trkpt>
      <trkpt lat="42.39709" lon="-1.41867">
        <ele>343.49</ele>
        <time>2021-08-04T14:59:01Z</time>
      </trkpt>
      <trkpt lat="42.39707" lon="-1.41867">
        <ele>343.49</ele>
        <time>2021-08-04T14:59:33Z</time>
      </trkpt>
      <trkpt lat="42.39707" lon="-1.41868">
        <ele>343.49</ele>
        <time>2021-08-04T15:00:30Z</time>
      </trkpt>
      <trkpt lat="42.39708" lon="-1.41867">
        <ele>343.49</ele>
        <time>2021-08-04T15:01:37Z</time>
      </trkpt>
      <trkpt lat="42.39709" lon="-1.41867">
        <ele>343.49</ele>
        <time>2021-08-04T15:02:33Z</time>
      </trkpt>
      <trkpt lat="42.39709" lon="-1.41867">
        <ele>343.49</ele>
        <time>2021-08-04T15:03:40Z</time>
      </trkpt>
      <trkpt lat="42.39709" lon="-1.41865">
        <ele>343.49</ele>
        <time>2021-08-04T15:05:17Z</time>
      </trkpt>
      <trkpt lat="42.39708" lon="-1.41864">
        <ele>343.49</ele>
        <time>2021-08-04T15:06:15Z</time>
      </trkpt>
      <trkpt lat="42.39707" lon="-1.41867">
        <ele>343.49</ele>
        <time>2021-08-04T15:07:34Z</time>
      </trkpt>
      <trkpt lat="42.39708" lon="-1.41866">
        <ele>343.49</ele>
        <time>2021-08-04T15:08:36Z</time>
      </trkpt>
      <trkpt lat="42.39705" lon="-1.41864">
        <ele>343.49</ele>
        <time>2021-08-04T15:09:44Z</time>
      </trkpt>
      <trkpt lat="42.39706" lon="-1.41864">
        <ele>343.49</ele>
        <time>2021-08-04T15:10:38Z</time>
      </trkpt>
      <trkpt lat="42.39707" lon="-1.41864">
        <ele>343.49</ele>
        <time>2021-08-04T15:11:25Z</time>
      </trkpt>
      <trkpt lat="42.39707" lon="-1.41865">
        <ele>343.49</ele>
        <time>2021-08-04T15:12:08Z</time>
      </trkpt>
      <trkpt lat="42.39707" lon="-1.41866">
        <ele>343.49</ele>
        <time>2021-08-04T15:12:58Z</time>
      </trkpt>
      <trkpt lat="42.39707" lon="-1.41866">
        <ele>343.49</ele>
        <time>2021-08-04T15:14:37Z</time>
      </trkpt>
      <trkpt lat="42.39708" lon="-1.41867">
        <ele>343.49</ele>
        <time>2021-08-04T15:15:16Z</time>
      </trkpt>
      <trkpt lat="42.39708" lon="-1.41867">
        <ele>343.49</ele>
        <time>2021-08-04T15:16:11Z</time>
      </trkpt>
      <trkpt lat="42.39709" lon="-1.41864">
        <ele>343.49</ele>
        <time>2021-08-04T15:17:02Z</time>
      </trkpt>
      <trkpt lat="42.39709" lon="-1.41865">
        <ele>343.49</ele>
        <time>2021-08-04T15:17:56Z</time>
      </trkpt>
      <trkpt lat="42.39709" lon="-1.41865">
        <ele>343.49</ele>
        <time>2021-08-04T15:18:48Z</time>
      </trkpt>
      <trkpt lat="42.39709" lon="-1.41866">
        <ele>343.49</ele>
        <time>2021-08-04T15:19:26Z</time>
      </trkpt>
      <trkpt lat="42.39709" lon="-1.41867">
        <ele>343.49</ele>
        <time>2021-08-04T15:19:49Z</time>
      </trkpt>
      <trkpt lat="42.39703" lon="-1.41872">
        <ele>344.82</ele>
        <time>2021-08-04T15:50:36Z</time>
      </trkpt>
      <trkpt lat="42.39702" lon="-1.41868">
        <ele>344.82</ele>
        <time>2021-08-04T15:50:37Z</time>
      </trkpt>
      <trkpt lat="42.39699" lon="-1.41864">
        <ele>344.82</ele>
        <time>2021-08-04T15:50:47Z</time>
      </trkpt>
      <trkpt lat="42.39707" lon="-1.4184">
        <ele>342.48</ele>
        <time>2021-08-04T15:50:56Z</time>
      </trkpt>
      <trkpt lat="42.39717" lon="-1.41835">
        <ele>342.52</ele>
        <time>2021-08-04T15:51:14Z</time>
      </trkpt>
      <trkpt lat="42.39737" lon="-1.41825">
        <ele>343.62</ele>
        <time>2021-08-04T15:51:33Z</time>
      </trkpt>
      <trkpt lat="42.39738" lon="-1.41779">
        <ele>345.61</ele>
        <time>2021-08-04T15:51:49Z</time>
      </trkpt>
      <trkpt lat="42.39742" lon="-1.41772">
        <ele>346.04</ele>
        <time>2021-08-04T15:51:54Z</time>
      </trkpt>
      <trkpt lat="42.39754" lon="-1.41779">
        <ele>347.29</ele>
        <time>2021-08-04T15:51:59Z</time>
      </trkpt>
      <trkpt lat="42.39775" lon="-1.41807">
        <ele>349</ele>
        <time>2021-08-04T15:52:08Z</time>
      </trkpt>
      <trkpt lat="42.39827" lon="-1.41891">
        <ele>350.01</ele>
        <time>2021-08-04T15:52:20Z</time>
      </trkpt>
      <trkpt lat="42.3989" lon="-1.41986">
        <ele>351.23</ele>
        <time>2021-08-04T15:52:32Z</time>
      </trkpt>
      <trkpt lat="42.39927" lon="-1.42011">
        <ele>351.84</ele>
        <time>2021-08-04T15:52:37Z</time>
      </trkpt>
      <trkpt lat="42.40017" lon="-1.42039">
        <ele>354.72</ele>
        <time>2021-08-04T15:52:46Z</time>
      </trkpt>
      <trkpt lat="42.40072" lon="-1.42014">
        <ele>358.04</ele>
        <time>2021-08-04T15:52:51Z</time>
      </trkpt>
      <trkpt lat="42.40138" lon="-1.41924">
        <ele>362.01</ele>
        <time>2021-08-04T15:52:58Z</time>
      </trkpt>
      <trkpt lat="42.40198" lon="-1.41843">
        <ele>365.09</ele>
        <time>2021-08-04T15:53:06Z</time>
      </trkpt>
      <trkpt lat="42.40263" lon="-1.41757">
        <ele>367.43</ele>
        <time>2021-08-04T15:53:14Z</time>
      </trkpt>
      <trkpt lat="42.40316" lon="-1.41735">
        <ele>370.01</ele>
        <time>2021-08-04T15:53:20Z</time>
      </trkpt>
      <trkpt lat="42.40325" lon="-1.41737">
        <ele>370.49</ele>
        <time>2021-08-04T15:53:21Z</time>
      </trkpt>
      <trkpt lat="42.40451" lon="-1.41776">
        <ele>373.97</ele>
        <time>2021-08-04T15:53:34Z</time>
      </trkpt>
      <trkpt lat="42.40572" lon="-1.4179">
        <ele>374.7</ele>
        <time>2021-08-04T15:53:45Z</time>
      </trkpt>
      <trkpt lat="42.40762" lon="-1.41786">
        <ele>375.83</ele>
        <time>2021-08-04T15:54:00Z</time>
      </trkpt>
      <trkpt lat="42.40833" lon="-1.41786">
        <ele>376.37</ele>
        <time>2021-08-04T15:54:06Z</time>
      </trkpt>
      <trkpt lat="42.40896" lon="-1.41814">
        <ele>376.49</ele>
        <time>2021-08-04T15:54:12Z</time>
      </trkpt>
      <trkpt lat="42.40909" lon="-1.41816">
        <ele>376.56</ele>
        <time>2021-08-04T15:54:13Z</time>
      </trkpt>
      <trkpt lat="42.41101" lon="-1.41823">
        <ele>373.45</ele>
        <time>2021-08-04T15:54:27Z</time>
      </trkpt>
      <trkpt lat="42.41161" lon="-1.41824">
        <ele>370.38</ele>
        <time>2021-08-04T15:54:31Z</time>
      </trkpt>
      <trkpt lat="42.41204" lon="-1.41826">
        <ele>368.35</ele>
        <time>2021-08-04T15:54:34Z</time>
      </trkpt>
      <trkpt lat="42.41262" lon="-1.41813">
        <ele>366.64</ele>
        <time>2021-08-04T15:54:38Z</time>
      </trkpt>
      <trkpt lat="42.41405" lon="-1.41805">
        <ele>366.78</ele>
        <time>2021-08-04T15:54:49Z</time>
      </trkpt>
      <trkpt lat="42.41548" lon="-1.41789">
        <ele>367.11</ele>
        <time>2021-08-04T15:55:00Z</time>
      </trkpt>
      <trkpt lat="42.41558" lon="-1.41787">
        <ele>367.06</ele>
        <time>2021-08-04T15:55:02Z</time>
      </trkpt>
      <trkpt lat="42.4156" lon="-1.41788">
        <ele>365.59</ele>
        <time>2021-08-04T15:55:17Z</time>
      </trkpt>
      <trkpt lat="42.41606" lon="-1.41778">
        <ele>365.74</ele>
        <time>2021-08-04T15:55:24Z</time>
      </trkpt>
      <trkpt lat="42.41618" lon="-1.41776">
        <ele>365.93</ele>
        <time>2021-08-04T15:55:25Z</time>
      </trkpt>
      <trkpt lat="42.41709" lon="-1.41799">
        <ele>367.78</ele>
        <time>2021-08-04T15:55:31Z</time>
      </trkpt>
      <trkpt lat="42.41862" lon="-1.41819">
        <ele>370.07</ele>
        <time>2021-08-04T15:55:39Z</time>
      </trkpt>
      <trkpt lat="42.41909" lon="-1.41818">
        <ele>370.56</ele>
        <time>2021-08-04T15:55:43Z</time>
      </trkpt>
      <trkpt lat="42.4192" lon="-1.41818">
        <ele>368.67</ele>
        <time>2021-08-04T15:55:49Z</time>
      </trkpt>
      <trkpt lat="42.41959" lon="-1.41817">
        <ele>367.46</ele>
        <time>2021-08-04T15:55:55Z</time>
      </trkpt>
      <trkpt lat="42.4203" lon="-1.41815">
        <ele>370.86</ele>
        <time>2021-08-04T15:56:01Z</time>
      </trkpt>
      <trkpt lat="42.42042" lon="-1.41815">
        <ele>371.8</ele>
        <time>2021-08-04T15:56:02Z</time>
      </trkpt>
      <trkpt lat="42.42129" lon="-1.41845">
        <ele>375.74</ele>
        <time>2021-08-04T15:56:08Z</time>
      </trkpt>
      <trkpt lat="42.42146" lon="-1.4185">
        <ele>376.54</ele>
        <time>2021-08-04T15:56:09Z</time>
      </trkpt>
      <trkpt lat="42.42236" lon="-1.41834">
        <ele>379.2</ele>
        <time>2021-08-04T15:56:14Z</time>
      </trkpt>
      <trkpt lat="42.42289" lon="-1.41805">
        <ele>379.45</ele>
        <time>2021-08-04T15:56:17Z</time>
      </trkpt>
      <trkpt lat="42.42411" lon="-1.41739">
        <ele>383.11</ele>
        <time>2021-08-04T15:56:25Z</time>
      </trkpt>
      <trkpt lat="42.42479" lon="-1.41702">
        <ele>386.91</ele>
        <time>2021-08-04T15:56:29Z</time>
      </trkpt>
      <trkpt lat="42.42589" lon="-1.41627">
        <ele>388.45</ele>
        <time>2021-08-04T15:56:36Z</time>
      </trkpt>
      <trkpt lat="42.42643" lon="-1.41559">
        <ele>386.72</ele>
        <time>2021-08-04T15:56:42Z</time>
      </trkpt>
      <trkpt lat="42.42654" lon="-1.41555">
        <ele>386.57</ele>
        <time>2021-08-04T15:56:43Z</time>
      </trkpt>
      <trkpt lat="42.4273" lon="-1.4152">
        <ele>388.07</ele>
        <time>2021-08-04T15:56:48Z</time>
      </trkpt>
      <trkpt lat="42.42825" lon="-1.41463">
        <ele>391.43</ele>
        <time>2021-08-04T15:56:53Z</time>
      </trkpt>
      <trkpt lat="42.42905" lon="-1.41416">
        <ele>394.8</ele>
        <time>2021-08-04T15:56:57Z</time>
      </trkpt>
      <trkpt lat="42.42924" lon="-1.41407">
        <ele>395.4</ele>
        <time>2021-08-04T15:56:58Z</time>
      </trkpt>
      <trkpt lat="42.42983" lon="-1.41357">
        <ele>395.91</ele>
        <time>2021-08-04T15:57:02Z</time>
      </trkpt>
      <trkpt lat="42.4303" lon="-1.41352">
        <ele>393.58</ele>
        <time>2021-08-04T15:57:06Z</time>
      </trkpt>
      <trkpt lat="42.43071" lon="-1.41358">
        <ele>391.98</ele>
        <time>2021-08-04T15:57:09Z</time>
      </trkpt>
      <trkpt lat="42.43203" lon="-1.4135">
        <ele>394.24</ele>
        <time>2021-08-04T15:57:17Z</time>
      </trkpt>
      <trkpt lat="42.43236" lon="-1.41344">
        <ele>394.97</ele>
        <time>2021-08-04T15:57:19Z</time>
      </trkpt>
      <trkpt lat="42.43378" lon="-1.41324">
        <ele>396.85</ele>
        <time>2021-08-04T15:57:26Z</time>
      </trkpt>
      <trkpt lat="42.43437" lon="-1.41313">
        <ele>399.34</ele>
        <time>2021-08-04T15:57:29Z</time>
      </trkpt>
      <trkpt lat="42.43511" lon="-1.4128">
        <ele>399.68</ele>
        <time>2021-08-04T15:57:33Z</time>
      </trkpt>
      <trkpt lat="42.43589" lon="-1.41204">
        <ele>397.27</ele>
        <time>2021-08-04T15:57:39Z</time>
      </trkpt>
      <trkpt lat="42.43602" lon="-1.41201">
        <ele>396.89</ele>
        <time>2021-08-04T15:57:40Z</time>
      </trkpt>
      <trkpt lat="42.43673" lon="-1.41182">
        <ele>396.99</ele>
        <time>2021-08-04T15:57:45Z</time>
      </trkpt>
      <trkpt lat="42.43727" lon="-1.41207">
        <ele>399.39</ele>
        <time>2021-08-04T15:57:50Z</time>
      </trkpt>
      <trkpt lat="42.43755" lon="-1.41241">
        <ele>401.07</ele>
        <time>2021-08-04T15:57:53Z</time>
      </trkpt>
      <trkpt lat="42.43778" lon="-1.413">
        <ele>403.72</ele>
        <time>2021-08-04T15:57:57Z</time>
      </trkpt>
      <trkpt lat="42.43816" lon="-1.41373">
        <ele>406.16</ele>
        <time>2021-08-04T15:58:01Z</time>
      </trkpt>
      <trkpt lat="42.4387" lon="-1.41446">
        <ele>410.22</ele>
        <time>2021-08-04T15:58:06Z</time>
      </trkpt>
      <trkpt lat="42.43884" lon="-1.41474">
        <ele>410.61</ele>
        <time>2021-08-04T15:58:10Z</time>
      </trkpt>
      <trkpt lat="42.43882" lon="-1.41472">
        <ele>407.27</ele>
        <time>2021-08-04T15:58:14Z</time>
      </trkpt>
      <trkpt lat="42.43882" lon="-1.41471">
        <ele>404.53</ele>
        <time>2021-08-04T15:58:22Z</time>
      </trkpt>
      <trkpt lat="42.43893" lon="-1.4149">
        <ele>404.16</ele>
        <time>2021-08-04T15:58:26Z</time>
      </trkpt>
      <trkpt lat="42.43911" lon="-1.41603">
        <ele>405.25</ele>
        <time>2021-08-04T15:58:34Z</time>
      </trkpt>
      <trkpt lat="42.43909" lon="-1.41673">
        <ele>407.46</ele>
        <time>2021-08-04T15:58:38Z</time>
      </trkpt>
      <trkpt lat="42.43945" lon="-1.41766">
        <ele>410.55</ele>
        <time>2021-08-04T15:58:44Z</time>
      </trkpt>
      <trkpt lat="42.43958" lon="-1.4177">
        <ele>410.94</ele>
        <time>2021-08-04T15:58:45Z</time>
      </trkpt>
      <trkpt lat="42.43999" lon="-1.41785">
        <ele>411.99</ele>
        <time>2021-08-04T15:58:48Z</time>
      </trkpt>
      <trkpt lat="42.44063" lon="-1.41775">
        <ele>415</ele>
        <time>2021-08-04T15:58:54Z</time>
      </trkpt>
      <trkpt lat="42.44147" lon="-1.41769">
        <ele>414.05</ele>
        <time>2021-08-04T15:59:02Z</time>
      </trkpt>
      <trkpt lat="42.44191" lon="-1.41751">
        <ele>414.08</ele>
        <time>2021-08-04T15:59:06Z</time>
      </trkpt>
      <trkpt lat="42.44259" lon="-1.41719">
        <ele>412.31</ele>
        <time>2021-08-04T15:59:11Z</time>
      </trkpt>
      <trkpt lat="42.4429" lon="-1.41718">
        <ele>411.3</ele>
        <time>2021-08-04T15:59:13Z</time>
      </trkpt>
      <trkpt lat="42.44343" lon="-1.41707">
        <ele>407.98</ele>
        <time>2021-08-04T15:59:18Z</time>
      </trkpt>
      <trkpt lat="42.44374" lon="-1.41725">
        <ele>404.9</ele>
        <time>2021-08-04T15:59:21Z</time>
      </trkpt>
      <trkpt lat="42.44466" lon="-1.41749">
        <ele>403.81</ele>
        <time>2021-08-04T15:59:28Z</time>
      </trkpt>
      <trkpt lat="42.4457" lon="-1.41732">
        <ele>403.02</ele>
        <time>2021-08-04T15:59:35Z</time>
      </trkpt>
      <trkpt lat="42.44655" lon="-1.41696">
        <ele>401.66</ele>
        <time>2021-08-04T15:59:40Z</time>
      </trkpt>
      <trkpt lat="42.44703" lon="-1.41655">
        <ele>399.48</ele>
        <time>2021-08-04T15:59:44Z</time>
      </trkpt>
      <trkpt lat="42.44768" lon="-1.41637">
        <ele>394.99</ele>
        <time>2021-08-04T15:59:49Z</time>
      </trkpt>
      <trkpt lat="42.44802" lon="-1.41627">
        <ele>393.53</ele>
        <time>2021-08-04T15:59:51Z</time>
      </trkpt>
      <trkpt lat="42.44863" lon="-1.41593">
        <ele>390.87</ele>
        <time>2021-08-04T15:59:55Z</time>
      </trkpt>
      <trkpt lat="42.44928" lon="-1.41605">
        <ele>390.2</ele>
        <time>2021-08-04T16:00:01Z</time>
      </trkpt>
      <trkpt lat="42.44958" lon="-1.41599">
        <ele>390.79</ele>
        <time>2021-08-04T16:00:03Z</time>
      </trkpt>
      <trkpt lat="42.45005" lon="-1.41586">
        <ele>392.71</ele>
        <time>2021-08-04T16:00:06Z</time>
      </trkpt>
      <trkpt lat="42.45094" lon="-1.41534">
        <ele>395.94</ele>
        <time>2021-08-04T16:00:12Z</time>
      </trkpt>
      <trkpt lat="42.45133" lon="-1.41526">
        <ele>396.77</ele>
        <time>2021-08-04T16:00:15Z</time>
      </trkpt>
      <trkpt lat="42.45181" lon="-1.41556">
        <ele>396.1</ele>
        <time>2021-08-04T16:00:20Z</time>
      </trkpt>
      <trkpt lat="42.4522" lon="-1.4154">
        <ele>394.48</ele>
        <time>2021-08-04T16:00:24Z</time>
      </trkpt>
      <trkpt lat="42.45273" lon="-1.41472">
        <ele>390.51</ele>
        <time>2021-08-04T16:00:30Z</time>
      </trkpt>
      <trkpt lat="42.45313" lon="-1.41415">
        <ele>386.79</ele>
        <time>2021-08-04T16:00:35Z</time>
      </trkpt>
      <trkpt lat="42.45337" lon="-1.41387">
        <ele>383.74</ele>
        <time>2021-08-04T16:00:38Z</time>
      </trkpt>
      <trkpt lat="42.45368" lon="-1.4135">
        <ele>380.39</ele>
        <time>2021-08-04T16:00:41Z</time>
      </trkpt>
      <trkpt lat="42.45412" lon="-1.4129">
        <ele>376.64</ele>
        <time>2021-08-04T16:00:45Z</time>
      </trkpt>
      <trkpt lat="42.45491" lon="-1.41206">
        <ele>373.52</ele>
        <time>2021-08-04T16:00:51Z</time>
      </trkpt>
      <trkpt lat="42.45575" lon="-1.4111">
        <ele>372.02</ele>
        <time>2021-08-04T16:00:57Z</time>
      </trkpt>
      <trkpt lat="42.45604" lon="-1.41048">
        <ele>370.4</ele>
        <time>2021-08-04T16:01:01Z</time>
      </trkpt>
      <trkpt lat="42.45604" lon="-1.40926">
        <ele>366.98</ele>
        <time>2021-08-04T16:01:07Z</time>
      </trkpt>
      <trkpt lat="42.45623" lon="-1.40892">
        <ele>363.99</ele>
        <time>2021-08-04T16:01:12Z</time>
      </trkpt>
      <trkpt lat="42.45633" lon="-1.40948">
        <ele>362.35</ele>
        <time>2021-08-04T16:01:16Z</time>
      </trkpt>
      <trkpt lat="42.45666" lon="-1.40996">
        <ele>360.88</ele>
        <time>2021-08-04T16:01:21Z</time>
      </trkpt>
      <trkpt lat="42.45704" lon="-1.40985">
        <ele>359.95</ele>
        <time>2021-08-04T16:01:24Z</time>
      </trkpt>
      <trkpt lat="42.45824" lon="-1.40913">
        <ele>359.58</ele>
        <time>2021-08-04T16:01:31Z</time>
      </trkpt>
      <trkpt lat="42.45943" lon="-1.40854">
        <ele>361.14</ele>
        <time>2021-08-04T16:01:37Z</time>
      </trkpt>
      <trkpt lat="42.45994" lon="-1.40813">
        <ele>361.37</ele>
        <time>2021-08-04T16:01:41Z</time>
      </trkpt>
      <trkpt lat="42.46029" lon="-1.40816">
        <ele>360.91</ele>
        <time>2021-08-04T16:01:45Z</time>
      </trkpt>
      <trkpt lat="42.46095" lon="-1.40824">
        <ele>360.92</ele>
        <time>2021-08-04T16:01:50Z</time>
      </trkpt>
      <trkpt lat="42.46285" lon="-1.40793">
        <ele>362.97</ele>
        <time>2021-08-04T16:01:59Z</time>
      </trkpt>
      <trkpt lat="42.46496" lon="-1.40741">
        <ele>365.94</ele>
        <time>2021-08-04T16:02:07Z</time>
      </trkpt>
      <trkpt lat="42.46604" lon="-1.40711">
        <ele>367.28</ele>
        <time>2021-08-04T16:02:12Z</time>
      </trkpt>
      <trkpt lat="42.46656" lon="-1.40707">
        <ele>367.07</ele>
        <time>2021-08-04T16:02:15Z</time>
      </trkpt>
      <trkpt lat="42.46716" lon="-1.40696">
        <ele>366.04</ele>
        <time>2021-08-04T16:02:19Z</time>
      </trkpt>
      <trkpt lat="42.46752" lon="-1.40715">
        <ele>363.78</ele>
        <time>2021-08-04T16:02:23Z</time>
      </trkpt>
      <trkpt lat="42.468" lon="-1.40729">
        <ele>362.53</ele>
        <time>2021-08-04T16:02:27Z</time>
      </trkpt>
      <trkpt lat="42.46893" lon="-1.40781">
        <ele>362.87</ele>
        <time>2021-08-04T16:02:33Z</time>
      </trkpt>
      <trkpt lat="42.47032" lon="-1.40939">
        <ele>366.51</ele>
        <time>2021-08-04T16:02:41Z</time>
      </trkpt>
      <trkpt lat="42.47115" lon="-1.41051">
        <ele>370.01</ele>
        <time>2021-08-04T16:02:46Z</time>
      </trkpt>
      <trkpt lat="42.47129" lon="-1.41071">
        <ele>370.67</ele>
        <time>2021-08-04T16:02:47Z</time>
      </trkpt>
      <trkpt lat="42.47199" lon="-1.4124">
        <ele>374.43</ele>
        <time>2021-08-04T16:02:54Z</time>
      </trkpt>
      <trkpt lat="42.4728" lon="-1.41375">
        <ele>377.15</ele>
        <time>2021-08-04T16:03:00Z</time>
      </trkpt>
      <trkpt lat="42.47373" lon="-1.41517">
        <ele>380.81</ele>
        <time>2021-08-04T16:03:06Z</time>
      </trkpt>
      <trkpt lat="42.47398" lon="-1.41547">
        <ele>381.74</ele>
        <time>2021-08-04T16:03:08Z</time>
      </trkpt>
      <trkpt lat="42.47432" lon="-1.41619">
        <ele>382.67</ele>
        <time>2021-08-04T16:03:12Z</time>
      </trkpt>
      <trkpt lat="42.47492" lon="-1.41883">
        <ele>385.41</ele>
        <time>2021-08-04T16:03:22Z</time>
      </trkpt>
      <trkpt lat="42.47518" lon="-1.41971">
        <ele>386.4</ele>
        <time>2021-08-04T16:03:26Z</time>
      </trkpt>
      <trkpt lat="42.47563" lon="-1.42026">
        <ele>386.06</ele>
        <time>2021-08-04T16:03:30Z</time>
      </trkpt>
      <trkpt lat="42.47593" lon="-1.42042">
        <ele>385.65</ele>
        <time>2021-08-04T16:03:32Z</time>
      </trkpt>
      <trkpt lat="42.47687" lon="-1.42046">
        <ele>383.74</ele>
        <time>2021-08-04T16:03:37Z</time>
      </trkpt>
      <trkpt lat="42.4778" lon="-1.42017">
        <ele>380.7</ele>
        <time>2021-08-04T16:03:42Z</time>
      </trkpt>
      <trkpt lat="42.47842" lon="-1.41967">
        <ele>377.78</ele>
        <time>2021-08-04T16:03:46Z</time>
      </trkpt>
      <trkpt lat="42.47916" lon="-1.41854">
        <ele>375.1</ele>
        <time>2021-08-04T16:03:52Z</time>
      </trkpt>
      <trkpt lat="42.48052" lon="-1.41688">
        <ele>375.84</ele>
        <time>2021-08-04T16:04:00Z</time>
      </trkpt>
      <trkpt lat="42.48148" lon="-1.41555">
        <ele>376.16</ele>
        <time>2021-08-04T16:04:06Z</time>
      </trkpt>
      <trkpt lat="42.48276" lon="-1.41456">
        <ele>374.98</ele>
        <time>2021-08-04T16:04:13Z</time>
      </trkpt>
      <trkpt lat="42.48405" lon="-1.41403">
        <ele>373.6</ele>
        <time>2021-08-04T16:04:19Z</time>
      </trkpt>
      <trkpt lat="42.48443" lon="-1.41387">
        <ele>372.99</ele>
        <time>2021-08-04T16:04:21Z</time>
      </trkpt>
      <trkpt lat="42.48544" lon="-1.41368">
        <ele>370.13</ele>
        <time>2021-08-04T16:04:27Z</time>
      </trkpt>
      <trkpt lat="42.48581" lon="-1.41388">
        <ele>369.29</ele>
        <time>2021-08-04T16:04:31Z</time>
      </trkpt>
      <trkpt lat="42.48623" lon="-1.41422">
        <ele>370.32</ele>
        <time>2021-08-04T16:04:41Z</time>
      </trkpt>
      <trkpt lat="42.48652" lon="-1.41426">
        <ele>369.13</ele>
        <time>2021-08-04T16:04:58Z</time>
      </trkpt>
      <trkpt lat="42.48753" lon="-1.41449">
        <ele>370.39</ele>
        <time>2021-08-04T16:05:05Z</time>
      </trkpt>
      <trkpt lat="42.48822" lon="-1.4149">
        <ele>372.92</ele>
        <time>2021-08-04T16:05:09Z</time>
      </trkpt>
      <trkpt lat="42.48938" lon="-1.41631">
        <ele>377.06</ele>
        <time>2021-08-04T16:05:16Z</time>
      </trkpt>
      <trkpt lat="42.48964" lon="-1.41669">
        <ele>377.84</ele>
        <time>2021-08-04T16:05:18Z</time>
      </trkpt>
      <trkpt lat="42.49" lon="-1.41816">
        <ele>378.76</ele>
        <time>2021-08-04T16:05:24Z</time>
      </trkpt>
      <trkpt lat="42.49019" lon="-1.41964">
        <ele>377.08</ele>
        <time>2021-08-04T16:05:30Z</time>
      </trkpt>
      <trkpt lat="42.49048" lon="-1.4201">
        <ele>373.98</ele>
        <time>2021-08-04T16:05:34Z</time>
      </trkpt>
      <trkpt lat="42.49075" lon="-1.4203">
        <ele>372.91</ele>
        <time>2021-08-04T16:05:36Z</time>
      </trkpt>
      <trkpt lat="42.49164" lon="-1.42189">
        <ele>373.47</ele>
        <time>2021-08-04T16:05:44Z</time>
      </trkpt>
      <trkpt lat="42.49218" lon="-1.42314">
        <ele>376.4</ele>
        <time>2021-08-04T16:05:50Z</time>
      </trkpt>
      <trkpt lat="42.49237" lon="-1.42347">
        <ele>377.44</ele>
        <time>2021-08-04T16:05:52Z</time>
      </trkpt>
      <trkpt lat="42.4926" lon="-1.42374">
        <ele>378.42</ele>
        <time>2021-08-04T16:05:54Z</time>
      </trkpt>
      <trkpt lat="42.49286" lon="-1.4242">
        <ele>378.91</ele>
        <time>2021-08-04T16:05:57Z</time>
      </trkpt>
      <trkpt lat="42.49314" lon="-1.42461">
        <ele>379.13</ele>
        <time>2021-08-04T16:06:00Z</time>
      </trkpt>
      <trkpt lat="42.49383" lon="-1.42491">
        <ele>381.38</ele>
        <time>2021-08-04T16:06:07Z</time>
      </trkpt>
      <trkpt lat="42.49395" lon="-1.42489">
        <ele>381.88</ele>
        <time>2021-08-04T16:06:08Z</time>
      </trkpt>
      <trkpt lat="42.49435" lon="-1.42479">
        <ele>383.44</ele>
        <time>2021-08-04T16:06:11Z</time>
      </trkpt>
      <trkpt lat="42.49494" lon="-1.4242">
        <ele>385.27</ele>
        <time>2021-08-04T16:06:17Z</time>
      </trkpt>
      <trkpt lat="42.49531" lon="-1.42386">
        <ele>385.91</ele>
        <time>2021-08-04T16:06:20Z</time>
      </trkpt>
      <trkpt lat="42.49662" lon="-1.42313">
        <ele>389.41</ele>
        <time>2021-08-04T16:06:28Z</time>
      </trkpt>
      <trkpt lat="42.49694" lon="-1.42295">
        <ele>389.61</ele>
        <time>2021-08-04T16:06:30Z</time>
      </trkpt>
      <trkpt lat="42.49752" lon="-1.4224">
        <ele>388.42</ele>
        <time>2021-08-04T16:06:34Z</time>
      </trkpt>
      <trkpt lat="42.49867" lon="-1.42161">
        <ele>384.71</ele>
        <time>2021-08-04T16:06:41Z</time>
      </trkpt>
      <trkpt lat="42.49964" lon="-1.42061">
        <ele>381.61</ele>
        <time>2021-08-04T16:06:47Z</time>
      </trkpt>
      <trkpt lat="42.50075" lon="-1.4194">
        <ele>380.11</ele>
        <time>2021-08-04T16:06:54Z</time>
      </trkpt>
      <trkpt lat="42.50185" lon="-1.41857">
        <ele>377.74</ele>
        <time>2021-08-04T16:07:01Z</time>
      </trkpt>
      <trkpt lat="42.50287" lon="-1.41813">
        <ele>374.24</ele>
        <time>2021-08-04T16:07:07Z</time>
      </trkpt>
      <trkpt lat="42.50321" lon="-1.41801">
        <ele>373.07</ele>
        <time>2021-08-04T16:07:09Z</time>
      </trkpt>
      <trkpt lat="42.50442" lon="-1.41824">
        <ele>370.46</ele>
        <time>2021-08-04T16:07:16Z</time>
      </trkpt>
      <trkpt lat="42.50495" lon="-1.41843">
        <ele>370.66</ele>
        <time>2021-08-04T16:07:19Z</time>
      </trkpt>
      <trkpt lat="42.5056" lon="-1.41879">
        <ele>372.11</ele>
        <time>2021-08-04T16:07:23Z</time>
      </trkpt>
      <trkpt lat="42.50637" lon="-1.41957">
        <ele>374.8</ele>
        <time>2021-08-04T16:07:28Z</time>
      </trkpt>
      <trkpt lat="42.50689" lon="-1.41989">
        <ele>377.19</ele>
        <time>2021-08-04T16:07:32Z</time>
      </trkpt>
      <trkpt lat="42.50721" lon="-1.4205">
        <ele>378.83</ele>
        <time>2021-08-04T16:07:37Z</time>
      </trkpt>
      <trkpt lat="42.50797" lon="-1.42231">
        <ele>382.66</ele>
        <time>2021-08-04T16:07:46Z</time>
      </trkpt>
      <trkpt lat="42.50826" lon="-1.42303">
        <ele>385.45</ele>
        <time>2021-08-04T16:07:50Z</time>
      </trkpt>
      <trkpt lat="42.50864" lon="-1.42343">
        <ele>388.27</ele>
        <time>2021-08-04T16:07:54Z</time>
      </trkpt>
      <trkpt lat="42.509" lon="-1.42362">
        <ele>390.24</ele>
        <time>2021-08-04T16:07:57Z</time>
      </trkpt>
      <trkpt lat="42.50944" lon="-1.42373">
        <ele>392.08</ele>
        <time>2021-08-04T16:08:01Z</time>
      </trkpt>
      <trkpt lat="42.50985" lon="-1.42372">
        <ele>392.84</ele>
        <time>2021-08-04T16:08:04Z</time>
      </trkpt>
      <trkpt lat="42.51094" lon="-1.42311">
        <ele>389.11</ele>
        <time>2021-08-04T16:08:12Z</time>
      </trkpt>
      <trkpt lat="42.51122" lon="-1.42289">
        <ele>387.13</ele>
        <time>2021-08-04T16:08:14Z</time>
      </trkpt>
      <trkpt lat="42.51173" lon="-1.42229">
        <ele>382.87</ele>
        <time>2021-08-04T16:08:18Z</time>
      </trkpt>
      <trkpt lat="42.51239" lon="-1.4213">
        <ele>379.7</ele>
        <time>2021-08-04T16:08:23Z</time>
      </trkpt>
      <trkpt lat="42.51314" lon="-1.42009">
        <ele>378.16</ele>
        <time>2021-08-04T16:08:29Z</time>
      </trkpt>
      <trkpt lat="42.51391" lon="-1.41821">
        <ele>376.99</ele>
        <time>2021-08-04T16:08:38Z</time>
      </trkpt>
      <trkpt lat="42.51439" lon="-1.41702">
        <ele>380.7</ele>
        <time>2021-08-04T16:08:44Z</time>
      </trkpt>
      <trkpt lat="42.51462" lon="-1.41648">
        <ele>383.33</ele>
        <time>2021-08-04T16:08:47Z</time>
      </trkpt>
      <trkpt lat="42.51488" lon="-1.41578">
        <ele>385.26</ele>
        <time>2021-08-04T16:08:51Z</time>
      </trkpt>
      <trkpt lat="42.51513" lon="-1.41523">
        <ele>386.28</ele>
        <time>2021-08-04T16:08:54Z</time>
      </trkpt>
      <trkpt lat="42.5157" lon="-1.41443">
        <ele>387.81</ele>
        <time>2021-08-04T16:09:00Z</time>
      </trkpt>
      <trkpt lat="42.51619" lon="-1.4141">
        <ele>388.39</ele>
        <time>2021-08-04T16:09:04Z</time>
      </trkpt>
      <trkpt lat="42.51734" lon="-1.41323">
        <ele>387.66</ele>
        <time>2021-08-04T16:09:13Z</time>
      </trkpt>
      <trkpt lat="42.51787" lon="-1.41271">
        <ele>387.87</ele>
        <time>2021-08-04T16:09:18Z</time>
      </trkpt>
      <trkpt lat="42.51826" lon="-1.41268">
        <ele>387.42</ele>
        <time>2021-08-04T16:09:22Z</time>
      </trkpt>
      <trkpt lat="42.51864" lon="-1.41241">
        <ele>385.34</ele>
        <time>2021-08-04T16:09:29Z</time>
      </trkpt>
      <trkpt lat="42.51849" lon="-1.41159">
        <ele>382.18</ele>
        <time>2021-08-04T16:09:35Z</time>
      </trkpt>
      <trkpt lat="42.51827" lon="-1.40995">
        <ele>377.61</ele>
        <time>2021-08-04T16:09:45Z</time>
      </trkpt>
      <trkpt lat="42.51811" lon="-1.40852">
        <ele>376.27</ele>
        <time>2021-08-04T16:09:54Z</time>
      </trkpt>
      <trkpt lat="42.51832" lon="-1.40737">
        <ele>379.46</ele>
        <time>2021-08-04T16:10:01Z</time>
      </trkpt>
      <trkpt lat="42.51848" lon="-1.40671">
        <ele>380.15</ele>
        <time>2021-08-04T16:10:05Z</time>
      </trkpt>
      <trkpt lat="42.51878" lon="-1.40625">
        <ele>380.44</ele>
        <time>2021-08-04T16:10:09Z</time>
      </trkpt>
      <trkpt lat="42.51917" lon="-1.40533">
        <ele>379.94</ele>
        <time>2021-08-04T16:10:16Z</time>
      </trkpt>
      <trkpt lat="42.51944" lon="-1.40474">
        <ele>378.51</ele>
        <time>2021-08-04T16:10:22Z</time>
      </trkpt>
      <trkpt lat="42.51957" lon="-1.40456">
        <ele>378.16</ele>
        <time>2021-08-04T16:10:25Z</time>
      </trkpt>
      <trkpt lat="42.51973" lon="-1.40451">
        <ele>377.44</ele>
        <time>2021-08-04T16:10:29Z</time>
      </trkpt>
      <trkpt lat="42.51976" lon="-1.40453">
        <ele>377.21</ele>
        <time>2021-08-04T16:10:30Z</time>
      </trkpt>
      <trkpt lat="42.51979" lon="-1.40456">
        <ele>376.99</ele>
        <time>2021-08-04T16:10:31Z</time>
      </trkpt>
      <trkpt lat="42.51981" lon="-1.4046">
        <ele>376.84</ele>
        <time>2021-08-04T16:10:32Z</time>
      </trkpt>
      <trkpt lat="42.51983" lon="-1.40466">
        <ele>376.7</ele>
        <time>2021-08-04T16:10:33Z</time>
      </trkpt>
      <trkpt lat="42.51986" lon="-1.40472">
        <ele>376.53</ele>
        <time>2021-08-04T16:10:34Z</time>
      </trkpt>
      <trkpt lat="42.51992" lon="-1.40485">
        <ele>376.16</ele>
        <time>2021-08-04T16:10:36Z</time>
      </trkpt>
      <trkpt lat="42.51996" lon="-1.40491">
        <ele>375.97</ele>
        <time>2021-08-04T16:10:37Z</time>
      </trkpt>
      <trkpt lat="42.51999" lon="-1.40495">
        <ele>375.79</ele>
        <time>2021-08-04T16:10:38Z</time>
      </trkpt>
      <trkpt lat="42.52035" lon="-1.40537">
        <ele>375.49</ele>
        <time>2021-08-04T16:10:50Z</time>
      </trkpt>
      <trkpt lat="42.52074" lon="-1.40587">
        <ele>376.91</ele>
        <time>2021-08-04T16:11:04Z</time>
      </trkpt>
      <trkpt lat="42.52093" lon="-1.40609">
        <ele>375.93</ele>
        <time>2021-08-04T16:11:13Z</time>
      </trkpt>
      <trkpt lat="42.52119" lon="-1.40593">
        <ele>375.62</ele>
        <time>2021-08-04T16:11:18Z</time>
      </trkpt>
      <trkpt lat="42.52128" lon="-1.40573">
        <ele>375.5</ele>
        <time>2021-08-04T16:11:20Z</time>
      </trkpt>
      <trkpt lat="42.52143" lon="-1.40554">
        <ele>374.55</ele>
        <time>2021-08-04T16:11:24Z</time>
      </trkpt>
      <trkpt lat="42.52175" lon="-1.405">
        <ele>373.4</ele>
        <time>2021-08-04T16:11:29Z</time>
      </trkpt>
      <trkpt lat="42.52188" lon="-1.40461">
        <ele>372.85</ele>
        <time>2021-08-04T16:11:32Z</time>
      </trkpt>
      <trkpt lat="42.52227" lon="-1.40403">
        <ele>371.32</ele>
        <time>2021-08-04T16:11:39Z</time>
      </trkpt>
      <trkpt lat="42.52269" lon="-1.40368">
        <ele>370.95</ele>
        <time>2021-08-04T16:11:44Z</time>
      </trkpt>
      <trkpt lat="42.52313" lon="-1.40302">
        <ele>371.82</ele>
        <time>2021-08-04T16:11:51Z</time>
      </trkpt>
      <trkpt lat="42.52364" lon="-1.40223">
        <ele>374.36</ele>
        <time>2021-08-04T16:11:59Z</time>
      </trkpt>
      <trkpt lat="42.52381" lon="-1.40193">
        <ele>375.09</ele>
        <time>2021-08-04T16:12:02Z</time>
      </trkpt>
      <trkpt lat="42.52437" lon="-1.40072">
        <ele>377.18</ele>
        <time>2021-08-04T16:12:15Z</time>
      </trkpt>
      <trkpt lat="42.52512" lon="-1.39927">
        <ele>378.87</ele>
        <time>2021-08-04T16:12:28Z</time>
      </trkpt>
      <trkpt lat="42.52581" lon="-1.39777">
        <ele>381</ele>
        <time>2021-08-04T16:12:38Z</time>
      </trkpt>
      <trkpt lat="42.52681" lon="-1.39611">
        <ele>383.74</ele>
        <time>2021-08-04T16:12:46Z</time>
      </trkpt>
      <trkpt lat="42.52704" lon="-1.39569">
        <ele>384.16</ele>
        <time>2021-08-04T16:12:48Z</time>
      </trkpt>
      <trkpt lat="42.52803" lon="-1.39458">
        <ele>384.86</ele>
        <time>2021-08-04T16:12:55Z</time>
      </trkpt>
      <trkpt lat="42.52876" lon="-1.39354">
        <ele>385.76</ele>
        <time>2021-08-04T16:13:01Z</time>
      </trkpt>
      <trkpt lat="42.52918" lon="-1.39339">
        <ele>384.96</ele>
        <time>2021-08-04T16:13:05Z</time>
      </trkpt>
      <trkpt lat="42.53035" lon="-1.39385">
        <ele>382.01</ele>
        <time>2021-08-04T16:13:14Z</time>
      </trkpt>
      <trkpt lat="42.53121" lon="-1.39461">
        <ele>382.11</ele>
        <time>2021-08-04T16:13:22Z</time>
      </trkpt>
      <trkpt lat="42.53166" lon="-1.39473">
        <ele>383.15</ele>
        <time>2021-08-04T16:13:28Z</time>
      </trkpt>
      <trkpt lat="42.5317" lon="-1.39472">
        <ele>383.58</ele>
        <time>2021-08-04T16:13:30Z</time>
      </trkpt>
      <trkpt lat="42.53174" lon="-1.39469">
        <ele>383.85</ele>
        <time>2021-08-04T16:13:32Z</time>
      </trkpt>
      <trkpt lat="42.53186" lon="-1.39486">
        <ele>384.58</ele>
        <time>2021-08-04T16:13:36Z</time>
      </trkpt>
      <trkpt lat="42.53223" lon="-1.39594">
        <ele>386.3</ele>
        <time>2021-08-04T16:13:43Z</time>
      </trkpt>
      <trkpt lat="42.53306" lon="-1.39799">
        <ele>388.95</ele>
        <time>2021-08-04T16:13:52Z</time>
      </trkpt>
      <trkpt lat="42.53437" lon="-1.40059">
        <ele>391.96</ele>
        <time>2021-08-04T16:14:03Z</time>
      </trkpt>
      <trkpt lat="42.53514" lon="-1.40251">
        <ele>393.25</ele>
        <time>2021-08-04T16:14:12Z</time>
      </trkpt>
      <trkpt lat="42.53606" lon="-1.40463">
        <ele>396.27</ele>
        <time>2021-08-04T16:14:22Z</time>
      </trkpt>
      <trkpt lat="42.53721" lon="-1.40579">
        <ele>398.41</ele>
        <time>2021-08-04T16:14:30Z</time>
      </trkpt>
      <trkpt lat="42.53775" lon="-1.40629">
        <ele>398.93</ele>
        <time>2021-08-04T16:14:35Z</time>
      </trkpt>
      <trkpt lat="42.53787" lon="-1.4064">
        <ele>398.5</ele>
        <time>2021-08-04T16:14:37Z</time>
      </trkpt>
      <trkpt lat="42.53813" lon="-1.40654">
        <ele>396.88</ele>
        <time>2021-08-04T16:14:43Z</time>
      </trkpt>
      <trkpt lat="42.53873" lon="-1.40673">
        <ele>396.83</ele>
        <time>2021-08-04T16:14:49Z</time>
      </trkpt>
      <trkpt lat="42.53997" lon="-1.40704">
        <ele>399.6</ele>
        <time>2021-08-04T16:14:57Z</time>
      </trkpt>
      <trkpt lat="42.5415" lon="-1.40745">
        <ele>402.63</ele>
        <time>2021-08-04T16:15:07Z</time>
      </trkpt>
      <trkpt lat="42.5426" lon="-1.40774">
        <ele>405.67</ele>
        <time>2021-08-04T16:15:14Z</time>
      </trkpt>
      <trkpt lat="42.54342" lon="-1.40795">
        <ele>408.68</ele>
        <time>2021-08-04T16:15:19Z</time>
      </trkpt>
      <trkpt lat="42.54458" lon="-1.4085">
        <ele>411.71</ele>
        <time>2021-08-04T16:15:27Z</time>
      </trkpt>
      <trkpt lat="42.54564" lon="-1.4093">
        <ele>413.44</ele>
        <time>2021-08-04T16:15:37Z</time>
      </trkpt>
      <trkpt lat="42.54665" lon="-1.41005">
        <ele>416.87</ele>
        <time>2021-08-04T16:15:44Z</time>
      </trkpt>
      <trkpt lat="42.54739" lon="-1.41058">
        <ele>419.15</ele>
        <time>2021-08-04T16:15:49Z</time>
      </trkpt>
      <trkpt lat="42.54796" lon="-1.41081">
        <ele>421.3</ele>
        <time>2021-08-04T16:15:53Z</time>
      </trkpt>
      <trkpt lat="42.54969" lon="-1.41074">
        <ele>425.15</ele>
        <time>2021-08-04T16:16:04Z</time>
      </trkpt>
      <trkpt lat="42.55" lon="-1.41065">
        <ele>425.85</ele>
        <time>2021-08-04T16:16:06Z</time>
      </trkpt>
      <trkpt lat="42.55089" lon="-1.4109">
        <ele>427.41</ele>
        <time>2021-08-04T16:16:12Z</time>
      </trkpt>
      <trkpt lat="42.55113" lon="-1.41101">
        <ele>427.98</ele>
        <time>2021-08-04T16:16:14Z</time>
      </trkpt>
      <trkpt lat="42.55154" lon="-1.41144">
        <ele>428.99</ele>
        <time>2021-08-04T16:16:18Z</time>
      </trkpt>
      <trkpt lat="42.55189" lon="-1.41212">
        <ele>430.47</ele>
        <time>2021-08-04T16:16:22Z</time>
      </trkpt>
      <trkpt lat="42.55284" lon="-1.4132">
        <ele>433.88</ele>
        <time>2021-08-04T16:16:30Z</time>
      </trkpt>
      <trkpt lat="42.55403" lon="-1.41435">
        <ele>435.66</ele>
        <time>2021-08-04T16:16:41Z</time>
      </trkpt>
      <trkpt lat="42.55439" lon="-1.41464">
        <ele>435.97</ele>
        <time>2021-08-04T16:16:44Z</time>
      </trkpt>
      <trkpt lat="42.55511" lon="-1.41476">
        <ele>437.13</ele>
        <time>2021-08-04T16:16:50Z</time>
      </trkpt>
      <trkpt lat="42.55564" lon="-1.41457">
        <ele>440.71</ele>
        <time>2021-08-04T16:16:56Z</time>
      </trkpt>
      <trkpt lat="42.55582" lon="-1.41459">
        <ele>442.24</ele>
        <time>2021-08-04T16:16:59Z</time>
      </trkpt>
      <trkpt lat="42.55602" lon="-1.41456">
        <ele>443.52</ele>
        <time>2021-08-04T16:17:02Z</time>
      </trkpt>
      <trkpt lat="42.55639" lon="-1.41403">
        <ele>444.42</ele>
        <time>2021-08-04T16:17:08Z</time>
      </trkpt>
      <trkpt lat="42.55693" lon="-1.41238">
        <ele>445.26</ele>
        <time>2021-08-04T16:17:16Z</time>
      </trkpt>
      <trkpt lat="42.55744" lon="-1.41081">
        <ele>448.5</ele>
        <time>2021-08-04T16:17:22Z</time>
      </trkpt>
      <trkpt lat="42.55858" lon="-1.40785">
        <ele>450.71</ele>
        <time>2021-08-04T16:17:34Z</time>
      </trkpt>
      <trkpt lat="42.55995" lon="-1.40592">
        <ele>451.67</ele>
        <time>2021-08-04T16:17:44Z</time>
      </trkpt>
      <trkpt lat="42.56247" lon="-1.40309">
        <ele>453.07</ele>
        <time>2021-08-04T16:18:00Z</time>
      </trkpt>
      <trkpt lat="42.56361" lon="-1.40147">
        <ele>453.97</ele>
        <time>2021-08-04T16:18:08Z</time>
      </trkpt>
      <trkpt lat="42.56419" lon="-1.39951">
        <ele>455.66</ele>
        <time>2021-08-04T16:18:15Z</time>
      </trkpt>
      <trkpt lat="42.56468" lon="-1.39691">
        <ele>456.92</ele>
        <time>2021-08-04T16:18:24Z</time>
      </trkpt>
      <trkpt lat="42.56556" lon="-1.39529">
        <ele>456.54</ele>
        <time>2021-08-04T16:18:31Z</time>
      </trkpt>
      <trkpt lat="42.56675" lon="-1.39421">
        <ele>453.89</ele>
        <time>2021-08-04T16:18:38Z</time>
      </trkpt>
      <trkpt lat="42.56774" lon="-1.39376">
        <ele>450.33</ele>
        <time>2021-08-04T16:18:43Z</time>
      </trkpt>
      <trkpt lat="42.56855" lon="-1.39342">
        <ele>446.68</ele>
        <time>2021-08-04T16:18:47Z</time>
      </trkpt>
      <trkpt lat="42.56914" lon="-1.39317">
        <ele>443.35</ele>
        <time>2021-08-04T16:18:50Z</time>
      </trkpt>
      <trkpt lat="42.56976" lon="-1.39291">
        <ele>439.69</ele>
        <time>2021-08-04T16:18:53Z</time>
      </trkpt>
      <trkpt lat="42.57058" lon="-1.39259">
        <ele>435.87</ele>
        <time>2021-08-04T16:18:57Z</time>
      </trkpt>
      <trkpt lat="42.57274" lon="-1.39204">
        <ele>434.03</ele>
        <time>2021-08-04T16:19:07Z</time>
      </trkpt>
      <trkpt lat="42.57429" lon="-1.39224">
        <ele>435.23</ele>
        <time>2021-08-04T16:19:14Z</time>
      </trkpt>
      <trkpt lat="42.576" lon="-1.39258">
        <ele>437.77</ele>
        <time>2021-08-04T16:19:22Z</time>
      </trkpt>
      <trkpt lat="42.57806" lon="-1.39259">
        <ele>441.06</ele>
        <time>2021-08-04T16:19:33Z</time>
      </trkpt>
      <trkpt lat="42.57932" lon="-1.39258">
        <ele>444.1</ele>
        <time>2021-08-04T16:19:40Z</time>
      </trkpt>
      <trkpt lat="42.58078" lon="-1.39217">
        <ele>445.57</ele>
        <time>2021-08-04T16:19:48Z</time>
      </trkpt>
      <trkpt lat="42.58192" lon="-1.39124">
        <ele>448.73</ele>
        <time>2021-08-04T16:19:55Z</time>
      </trkpt>
      <trkpt lat="42.58268" lon="-1.39022">
        <ele>452.24</ele>
        <time>2021-08-04T16:20:01Z</time>
      </trkpt>
      <trkpt lat="42.58347" lon="-1.38922">
        <ele>455.82</ele>
        <time>2021-08-04T16:20:07Z</time>
      </trkpt>
      <trkpt lat="42.58424" lon="-1.38848">
        <ele>459.45</ele>
        <time>2021-08-04T16:20:12Z</time>
      </trkpt>
      <trkpt lat="42.58485" lon="-1.38786">
        <ele>462.96</ele>
        <time>2021-08-04T16:20:16Z</time>
      </trkpt>
      <trkpt lat="42.5854" lon="-1.3871">
        <ele>466.33</ele>
        <time>2021-08-04T16:20:20Z</time>
      </trkpt>
      <trkpt lat="42.58579" lon="-1.38618">
        <ele>469.99</ele>
        <time>2021-08-04T16:20:24Z</time>
      </trkpt>
      <trkpt lat="42.58606" lon="-1.38491">
        <ele>473.23</ele>
        <time>2021-08-04T16:20:29Z</time>
      </trkpt>
      <trkpt lat="42.58602" lon="-1.38296">
        <ele>476.05</ele>
        <time>2021-08-04T16:20:36Z</time>
      </trkpt>
      <trkpt lat="42.58572" lon="-1.37909">
        <ele>475.99</ele>
        <time>2021-08-04T16:20:49Z</time>
      </trkpt>
      <trkpt lat="42.58556" lon="-1.37472">
        <ele>475.72</ele>
        <time>2021-08-04T16:21:04Z</time>
      </trkpt>
      <trkpt lat="42.5854" lon="-1.37178">
        <ele>473.1</ele>
        <time>2021-08-04T16:21:15Z</time>
      </trkpt>
      <trkpt lat="42.58474" lon="-1.36984">
        <ele>473.06</ele>
        <time>2021-08-04T16:21:23Z</time>
      </trkpt>
      <trkpt lat="42.58357" lon="-1.36763">
        <ele>471.24</ele>
        <time>2021-08-04T16:21:34Z</time>
      </trkpt>
      <trkpt lat="42.58234" lon="-1.36532">
        <ele>469.78</ele>
        <time>2021-08-04T16:21:46Z</time>
      </trkpt>
    </trkseg>
  </trk>
</gpx>